Time,TemperatureF,DewpointF,PressureIn,WindDirection,WindDirectionDegrees,WindSpeedMPH,WindSpeedGustMPH,Humidity,HourlyPrecipIn,Conditions,Clouds,dailyrainin,SoftwareType,DateUTC
2013-01-28 00:00:00,44.5,39.4,30.45,NE,49,0.0,2.0,82,0.00,,---,0.00,VWS V14.00,2013-01-28 05:00:00,
2013-01-28 00:01:00,44.3,39.2,30.44,NE,40,0.0,2.0,82,0.00,,---,0.00,VWS V14.00,2013-01-28 05:01:00,
2013-01-28 00:02:00,44.4,39.3,30.45,NE,43,0.0,2.0,82,0.00,,---,0.00,VWS V14.00,2013-01-28 05:02:00,
2013-01-28 00:03:00,44.4,39.3,30.44,NE,43,0.0,1.0,82,0.00,,---,0.00,VWS V14.00,2013-01-28 05:03:00,
2013-01-28 00:04:00,44.4,39.3,30.45,NE,49,0.0,2.0,82,0.00,,---,0.00,VWS V14.00,2013-01-28 05:04:00,
2013-01-28 00:05:00,44.6,39.5,30.44,ENE,65,1.0,4.0,82,0.00,,---,0.00,VWS V14.00,2013-01-28 05:05:00,
2013-01-28 00:06:00,44.5,39.4,30.45,ENE,70,0.0,3.0,82,0.00,,---,0.00,VWS V14.00,2013-01-28 05:06:00,
2013-01-28 00:07:00,44.5,39.0,30.45,ENE,70,0.0,1.0,81,0.00,,---,0.00,VWS V14.00,2013-01-28 05:07:00,
2013-01-28 00:08:00,44.6,39.1,30.45,ENE,69,0.0,0.0,81,0.00,,---,0.00,VWS V14.00,2013-01-28 05:08:00,
2013-01-28 00:09:00,44.6,39.5,30.45,ENE,69,0.0,1.0,82,0.00,,---,0.00,VWS V14.00,2013-01-28 05:09:00,
2013-01-28 00:10:00,44.7,39.2,30.45,ENE,65,0.0,1.0,81,0.00,,---,0.00,VWS V14.00,2013-01-28 05:10:00,
2013-01-28 00:11:00,44.6,39.5,30.44,ENE,65,0.0,4.0,82,0.00,,---,0.00,VWS V14.00,2013-01-28 05:11:00,
2013-01-28 00:12:00,44.7,39.2,30.45,ENE,65,0.0,0.0,81,0.00,,---,0.00,VWS V14.00,2013-01-28 05:12:00,
2013-01-28 00:13:00,44.7,39.2,30.45,ENE,65,0.0,1.0,81,0.00,,---,0.00,VWS V14.00,2013-01-28 05:13:00,
2013-01-28 00:14:00,44.7,39.2,30.44,ENE,65,0.0,0.0,81,0.00,,---,0.00,VWS V14.00,2013-01-28 05:14:00,
2013-01-28 00:15:00,44.9,39.4,30.44,ENE,64,1.0,2.0,81,0.00,,---,0.00,VWS V14.00,2013-01-28 05:15:00,
2013-01-28 00:16:00,44.7,39.2,30.45,ENE,65,0.0,1.0,81,0.00,,---,0.00,VWS V14.00,2013-01-28 05:16:00,
2013-01-28 00:17:00,44.8,39.3,30.44,ENE,65,0.0,2.0,81,0.00,,---,0.00,VWS V14.00,2013-01-28 05:17:00,
2013-01-28 00:18:00,44.8,39.3,30.44,ENE,65,1.0,1.0,81,0.00,,---,0.00,VWS V14.00,2013-01-28 05:18:00,
2013-01-28 00:19:00,44.8,39.3,30.44,ENE,65,0.0,2.0,81,0.00,,---,0.00,VWS V14.00,2013-01-28 05:19:00,
2013-01-28 00:20:00,44.9,39.4,30.44,NE,42,0.0,0.0,81,0.00,,---,0.00,VWS V14.00,2013-01-28 05:20:00,
2013-01-28 00:21:00,44.9,39.4,30.44,ENE,64,0.0,2.0,81,0.00,,---,0.00,VWS V14.00,2013-01-28 05:21:00,
2013-01-28 00:22:00,44.9,39.4,30.45,ENE,64,0.0,0.0,81,0.00,,---,0.00,VWS V14.00,2013-01-28 05:22:00,
2013-01-28 00:23:00,44.9,39.4,30.45,ENE,64,0.0,0.0,81,0.00,,---,0.00,VWS V14.00,2013-01-28 05:23:00,
2013-01-28 00:24:00,44.9,39.4,30.45,ENE,64,1.0,2.0,81,0.00,,---,0.00,VWS V14.00,2013-01-28 05:24:00,
2013-01-28 00:25:00,45.0,39.5,30.44,NE,42,0.0,0.0,81,0.00,,---,0.00,VWS V14.00,2013-01-28 05:25:00,
2013-01-28 00:26:00,45.0,39.5,30.44,NE,42,0.0,2.0,81,0.00,,---,0.00,VWS V14.00,2013-01-28 05:26:00,
2013-01-28 00:27:00,45.0,39.5,30.44,NE,42,0.0,1.0,81,0.00,,---,0.00,VWS V14.00,2013-01-28 05:27:00,
2013-01-28 00:28:00,45.0,39.5,30.44,NE,42,0.0,0.0,81,0.00,,---,0.00,VWS V14.00,2013-01-28 05:28:00,
2013-01-28 00:29:00,45.0,39.5,30.44,NE,42,0.0,0.0,81,0.00,,---,0.00,VWS V14.00,2013-01-28 05:29:00,
2013-01-28 00:30:00,45.0,39.5,30.44,NNE,27,0.0,3.0,81,0.00,,---,0.00,VWS V14.00,2013-01-28 05:30:00,
2013-01-28 00:31:00,45.0,39.5,30.44,NE,42,0.0,0.0,81,0.00,,---,0.00,VWS V14.00,2013-01-28 05:31:00,
2013-01-28 00:32:00,45.0,39.5,30.44,NE,42,0.0,2.0,81,0.00,,---,0.00,VWS V14.00,2013-01-28 05:32:00,
2013-01-28 00:33:00,45.0,39.5,30.44,NE,42,0.0,0.0,81,0.00,,---,0.00,VWS V14.00,2013-01-28 05:33:00,
2013-01-28 00:34:00,45.0,39.5,30.44,NE,42,0.0,1.0,81,0.00,,---,0.00,VWS V14.00,2013-01-28 05:34:00,
2013-01-28 00:35:00,45.1,39.6,30.44,NNE,27,0.0,1.0,81,0.00,,---,0.00,VWS V14.00,2013-01-28 05:35:00,
2013-01-28 00:36:00,45.1,39.6,30.44,NNE,27,0.0,3.0,81,0.00,,---,0.00,VWS V14.00,2013-01-28 05:36:00,
2013-01-28 00:37:00,45.0,39.5,30.44,NNE,27,0.0,1.0,81,0.00,,---,0.00,VWS V14.00,2013-01-28 05:37:00,
2013-01-28 00:38:00,45.1,39.6,30.44,NNE,27,0.0,0.0,81,0.00,,---,0.00,VWS V14.00,2013-01-28 05:38:00,
2013-01-28 00:39:00,45.1,39.6,30.44,NNE,27,0.0,0.0,81,0.00,,---,0.00,VWS V14.00,2013-01-28 05:39:00,
2013-01-28 00:40:00,45.1,39.6,30.43,NNE,27,0.0,0.0,81,0.00,,---,0.00,VWS V14.00,2013-01-28 05:40:00,
2013-01-28 00:41:00,45.1,39.6,30.44,NNE,27,0.0,1.0,81,0.00,,---,0.00,VWS V14.00,2013-01-28 05:41:00,
2013-01-28 00:42:00,45.1,39.6,30.44,NNE,27,1.0,2.0,81,0.00,,---,0.00,VWS V14.00,2013-01-28 05:42:00,
2013-01-28 00:43:00,45.1,39.6,30.44,NNE,27,0.0,1.0,81,0.00,,---,0.00,VWS V14.00,2013-01-28 05:43:00,
2013-01-28 00:44:00,45.1,39.6,30.44,NNE,27,0.0,0.0,81,0.00,,---,0.00,VWS V14.00,2013-01-28 05:44:00,
2013-01-28 00:45:00,45.2,39.7,30.43,NE,54,3.0,3.0,81,0.00,,---,0.00,VWS V14.00,2013-01-28 05:45:00,
2013-01-28 00:46:00,45.2,39.7,30.43,NNE,27,0.0,0.0,81,0.00,,---,0.00,VWS V14.00,2013-01-28 05:46:00,
2013-01-28 00:47:00,45.2,39.7,30.43,NNE,29,1.0,2.0,81,0.00,,---,0.00,VWS V14.00,2013-01-28 05:47:00,
2013-01-28 00:48:00,45.2,39.7,30.43,NNE,29,0.0,1.0,81,0.00,,---,0.00,VWS V14.00,2013-01-28 05:48:00,
2013-01-28 00:49:00,45.2,39.7,30.43,NE,53,1.0,2.0,81,0.00,,---,0.00,VWS V14.00,2013-01-28 05:49:00,
2013-01-28 00:50:00,45.4,39.9,30.43,ENE,59,0.0,1.0,81,0.00,,---,0.00,VWS V14.00,2013-01-28 05:50:00,
2013-01-28 00:51:00,45.2,39.7,30.43,ENE,59,2.0,3.0,81,0.00,,---,0.00,VWS V14.00,2013-01-28 05:51:00,
2013-01-28 00:52:00,45.3,39.8,30.43,NE,48,0.0,3.0,81,0.00,,---,0.00,VWS V14.00,2013-01-28 05:52:00,
2013-01-28 00:53:00,45.3,39.8,30.43,NE,50,2.0,2.0,81,0.00,,---,0.00,VWS V14.00,2013-01-28 05:53:00,
2013-01-28 00:54:00,45.4,39.9,30.43,ENE,76,0.0,3.0,81,0.00,,---,0.00,VWS V14.00,2013-01-28 05:54:00,
2013-01-28 00:55:00,45.6,39.8,30.42,NE,51,0.0,2.0,80,0.00,,---,0.00,VWS V14.00,2013-01-28 05:55:00,
2013-01-28 00:56:00,45.4,39.9,30.43,ENE,59,0.0,1.0,81,0.00,,---,0.00,VWS V14.00,2013-01-28 05:56:00,
2013-01-28 00:57:00,45.4,39.9,30.43,NE,47,1.0,4.0,81,0.00,,---,0.00,VWS V14.00,2013-01-28 05:57:00,
2013-01-28 00:58:00,45.5,40.0,30.43,NE,49,0.0,4.0,81,0.00,,---,0.00,VWS V14.00,2013-01-28 05:58:00,
2013-01-28 00:59:00,45.5,39.7,30.43,NE,49,1.0,1.0,80,0.00,,---,0.00,VWS V14.00,2013-01-28 05:59:00,
2013-01-28 01:00:00,45.8,40.0,30.42,ENE,72,2.0,3.0,80,0.00,,---,0.00,VWS V14.00,2013-01-28 06:00:00,
2013-01-28 01:01:00,45.6,39.8,30.42,NE,51,1.0,2.0,80,0.00,,---,0.00,VWS V14.00,2013-01-28 06:01:00,
2013-01-28 01:02:00,45.6,39.8,30.42,ENE,67,2.0,6.0,80,0.00,,---,0.00,VWS V14.00,2013-01-28 06:02:00,
2013-01-28 01:03:00,45.7,39.9,30.42,ENE,69,0.0,4.0,80,0.00,,---,0.00,VWS V14.00,2013-01-28 06:03:00,
2013-01-28 01:04:00,45.7,39.9,30.42,NE,45,5.0,5.0,80,0.00,,---,0.00,VWS V14.00,2013-01-28 06:04:00,
2013-01-28 01:05:00,46.0,39.9,30.42,NE,53,1.0,2.0,79,0.00,,---,0.00,VWS V14.00,2013-01-28 06:05:00,
2013-01-28 01:06:00,45.8,40.0,30.42,ENE,77,3.0,3.0,80,0.00,,---,0.00,VWS V14.00,2013-01-28 06:06:00,
2013-01-28 01:07:00,45.8,40.0,30.42,ENE,67,1.0,4.0,80,0.00,,---,0.00,VWS V14.00,2013-01-28 06:07:00,
2013-01-28 01:08:00,45.9,40.1,30.42,ENE,71,2.0,9.0,80,0.00,,---,0.00,VWS V14.00,2013-01-28 06:08:00,
2013-01-28 01:09:00,45.9,39.8,30.42,NNE,32,7.0,9.0,79,0.00,,---,0.00,VWS V14.00,2013-01-28 06:09:00,
2013-01-28 01:10:00,46.1,39.6,30.42,NNE,19,3.0,4.0,78,0.00,,---,0.00,VWS V14.00,2013-01-28 06:10:00,
2013-01-28 01:11:00,46.0,39.9,30.42,NE,53,1.0,3.0,79,0.00,,---,0.00,VWS V14.00,2013-01-28 06:11:00,
2013-01-28 01:12:00,46.0,39.9,30.42,ENE,64,1.0,3.0,79,0.00,,---,0.00,VWS V14.00,2013-01-28 06:12:00,
2013-01-28 01:13:00,46.0,39.9,30.42,ENE,68,4.0,7.0,79,0.00,,---,0.00,VWS V14.00,2013-01-28 06:13:00,
2013-01-28 01:14:00,46.1,40.0,30.42,NE,44,2.0,4.0,79,0.00,,---,0.00,VWS V14.00,2013-01-28 06:14:00,
2013-01-28 01:15:00,46.1,39.6,30.42,NE,44,3.0,4.0,78,0.00,,---,0.00,VWS V14.00,2013-01-28 06:15:00,
2013-01-28 01:16:00,46.0,39.5,30.42,NNE,22,4.0,4.0,78,0.00,,---,0.00,VWS V14.00,2013-01-28 06:16:00,
2013-01-28 01:17:00,46.1,39.6,30.42,ENE,75,0.0,4.0,78,0.00,,---,0.00,VWS V14.00,2013-01-28 06:17:00,
2013-01-28 01:18:00,46.1,39.6,30.42,East,80,2.0,3.0,78,0.00,,---,0.00,VWS V14.00,2013-01-28 06:18:00,
2013-01-28 01:19:00,46.1,39.6,30.42,ENE,57,0.0,6.0,78,0.00,,---,0.00,VWS V14.00,2013-01-28 06:19:00,
2013-01-28 01:20:00,46.1,39.6,30.42,ENE,64,3.0,4.0,78,0.00,,---,0.00,VWS V14.00,2013-01-28 06:20:00,
2013-01-28 01:21:00,46.1,39.6,30.42,NE,43,1.0,4.0,78,0.00,,---,0.00,VWS V14.00,2013-01-28 06:21:00,
2013-01-28 01:22:00,46.1,39.6,30.42,NE,40,3.0,4.0,78,0.00,,---,0.00,VWS V14.00,2013-01-28 06:22:00,
2013-01-28 01:23:00,46.1,39.6,30.42,NE,41,0.0,4.0,78,0.00,,---,0.00,VWS V14.00,2013-01-28 06:23:00,
2013-01-28 01:24:00,46.1,39.6,30.42,NE,41,2.0,2.0,78,0.00,,---,0.00,VWS V14.00,2013-01-28 06:24:00,
2013-01-28 01:25:00,46.0,39.5,30.42,NE,56,2.0,3.0,78,0.00,,---,0.00,VWS V14.00,2013-01-28 06:25:00,
2013-01-28 01:26:00,46.1,39.6,30.42,ENE,64,0.0,4.0,78,0.00,,---,0.00,VWS V14.00,2013-01-28 06:26:00,
2013-01-28 01:27:00,46.1,39.6,30.42,ENE,64,2.0,2.0,78,0.00,,---,0.00,VWS V14.00,2013-01-28 06:27:00,
2013-01-28 01:28:00,46.1,39.6,30.42,NE,55,0.0,3.0,78,0.00,,---,0.00,VWS V14.00,2013-01-28 06:28:00,
2013-01-28 01:29:00,46.1,39.6,30.42,NE,48,0.0,5.0,78,0.00,,---,0.00,VWS V14.00,2013-01-28 06:29:00,
2013-01-28 01:30:00,46.0,39.9,30.42,NE,51,1.0,2.0,79,0.00,,---,0.00,VWS V14.00,2013-01-28 06:30:00,
2013-01-28 01:31:00,46.0,39.5,30.42,NE,56,2.0,3.0,78,0.00,,---,0.00,VWS V14.00,2013-01-28 06:31:00,
2013-01-28 01:32:00,46.0,39.5,30.42,NE,56,0.0,2.0,78,0.00,,---,0.00,VWS V14.00,2013-01-28 06:32:00,
2013-01-28 01:33:00,46.0,39.5,30.42,NE,56,0.0,2.0,78,0.00,,---,0.00,VWS V14.00,2013-01-28 06:33:00,
2013-01-28 01:34:00,46.0,39.5,30.42,NE,56,1.0,3.0,78,0.00,,---,0.00,VWS V14.00,2013-01-28 06:34:00,
2013-01-28 01:35:00,45.9,39.8,30.42,NE,55,0.0,0.0,79,0.00,,---,0.00,VWS V14.00,2013-01-28 06:35:00,
2013-01-28 01:36:00,46.0,39.9,30.42,NE,51,2.0,2.0,79,0.00,,---,0.00,VWS V14.00,2013-01-28 06:36:00,
2013-01-28 01:37:00,45.9,39.8,30.42,NE,51,0.0,3.0,79,0.00,,---,0.00,VWS V14.00,2013-01-28 06:37:00,
2013-01-28 01:38:00,45.9,39.8,30.42,NE,46,0.0,3.0,79,0.00,,---,0.00,VWS V14.00,2013-01-28 06:38:00,
2013-01-28 01:39:00,45.9,39.8,30.42,NE,55,0.0,4.0,79,0.00,,---,0.00,VWS V14.00,2013-01-28 06:39:00,
2013-01-28 01:40:00,45.8,39.7,30.42,East,90,2.0,4.0,79,0.00,,---,0.00,VWS V14.00,2013-01-28 06:40:00,
2013-01-28 01:41:00,45.8,39.7,30.42,NE,55,0.0,1.0,79,0.00,,---,0.00,VWS V14.00,2013-01-28 06:41:00,
2013-01-28 01:42:00,45.8,39.7,30.42,NE,38,4.0,5.0,79,0.00,,---,0.00,VWS V14.00,2013-01-28 06:42:00,
2013-01-28 01:43:00,45.8,39.3,30.42,NE,41,0.0,6.0,78,0.00,,---,0.00,VWS V14.00,2013-01-28 06:43:00,
2013-01-28 01:45:00,45.6,39.5,30.42,NNE,19,0.0,1.0,79,0.00,,---,0.00,VWS V14.00,2013-01-28 06:45:00,
2013-01-28 01:46:00,45.7,39.6,30.42,East,88,0.0,4.0,79,0.00,,---,0.00,VWS V14.00,2013-01-28 06:46:00,
2013-01-28 01:47:00,45.7,39.6,30.42,ENE,64,0.0,2.0,79,0.00,,---,0.00,VWS V14.00,2013-01-28 06:47:00,
2013-01-28 01:48:00,45.7,39.6,30.42,ENE,57,2.0,3.0,79,0.00,,---,0.00,VWS V14.00,2013-01-28 06:48:00,
2013-01-28 01:49:00,45.7,39.6,30.42,NNW,327,1.0,3.0,79,0.00,,---,0.00,VWS V14.00,2013-01-28 06:49:00,
2013-01-28 01:50:00,45.5,39.4,30.41,ENE,57,1.0,4.0,79,0.00,,---,0.00,VWS V14.00,2013-01-28 06:50:00,
2013-01-28 01:51:00,45.6,39.5,30.42,NNE,19,0.0,1.0,79,0.00,,---,0.00,VWS V14.00,2013-01-28 06:51:00,
2013-01-28 01:52:00,45.6,39.5,30.42,NNE,26,1.0,2.0,79,0.00,,---,0.00,VWS V14.00,2013-01-28 06:52:00,
2013-01-28 01:53:00,45.6,39.5,30.41,NE,36,4.0,4.0,79,0.00,,---,0.00,VWS V14.00,2013-01-28 06:53:00,
2013-01-28 01:54:00,45.6,39.5,30.41,NE,47,1.0,4.0,79,0.00,,---,0.00,VWS V14.00,2013-01-28 06:54:00,
2013-01-28 01:55:00,45.4,39.3,30.41,ENE,78,0.0,1.0,79,0.00,,---,0.00,VWS V14.00,2013-01-28 06:55:00,
2013-01-28 01:56:00,45.5,39.4,30.41,ENE,63,2.0,4.0,79,0.00,,---,0.00,VWS V14.00,2013-01-28 06:56:00,
2013-01-28 01:57:00,45.5,39.4,30.41,ENE,63,0.0,2.0,79,0.00,,---,0.00,VWS V14.00,2013-01-28 06:57:00,
2013-01-28 01:58:00,45.5,39.4,30.41,ENE,59,0.0,3.0,79,0.00,,---,0.00,VWS V14.00,2013-01-28 06:58:00,
2013-01-28 01:59:00,45.5,39.4,30.41,ENE,72,1.0,2.0,79,0.00,,---,0.00,VWS V14.00,2013-01-28 06:59:00,
2013-01-28 02:00:00,45.4,39.3,30.40,NE,49,0.0,3.0,79,0.00,,---,0.00,VWS V14.00,2013-01-28 07:00:00,
2013-01-28 02:01:00,45.4,39.3,30.41,ENE,78,0.0,2.0,79,0.00,,---,0.00,VWS V14.00,2013-01-28 07:01:00,
2013-01-28 02:02:00,45.4,39.3,30.41,NE,40,6.0,6.0,79,0.00,,---,0.00,VWS V14.00,2013-01-28 07:02:00,
2013-01-28 02:03:00,45.4,39.3,30.41,ENE,69,0.0,6.0,79,0.00,,---,0.00,VWS V14.00,2013-01-28 07:03:00,
2013-01-28 02:04:00,45.4,39.3,30.40,NE,38,0.0,2.0,79,0.00,,---,0.00,VWS V14.00,2013-01-28 07:04:00,
2013-01-28 02:05:00,45.3,39.5,30.40,East,84,2.0,2.0,80,0.00,,---,0.00,VWS V14.00,2013-01-28 07:05:00,
2013-01-28 02:06:00,45.4,39.3,30.40,NE,49,0.0,3.0,79,0.00,,---,0.00,VWS V14.00,2013-01-28 07:06:00,
2013-01-28 02:07:00,45.4,39.3,30.40,NE,50,3.0,3.0,79,0.00,,---,0.00,VWS V14.00,2013-01-28 07:07:00,
2013-01-28 02:08:00,45.4,39.3,30.40,NE,38,2.0,4.0,79,0.00,,---,0.00,VWS V14.00,2013-01-28 07:08:00,
2013-01-28 02:09:00,45.3,39.2,30.40,NE,38,1.0,2.0,79,0.00,,---,0.00,VWS V14.00,2013-01-28 07:09:00,
2013-01-28 02:10:00,45.2,39.4,30.40,ENE,71,0.0,1.0,80,0.00,,---,0.00,VWS V14.00,2013-01-28 07:10:00,
2013-01-28 02:11:00,45.3,39.5,30.40,East,86,2.0,2.0,80,0.00,,---,0.00,VWS V14.00,2013-01-28 07:11:00,
2013-01-28 02:12:00,45.3,39.5,30.40,East,92,4.0,4.0,80,0.00,,---,0.00,VWS V14.00,2013-01-28 07:12:00,
2013-01-28 02:13:00,45.3,39.5,30.40,ENE,78,0.0,4.0,80,0.00,,---,0.00,VWS V14.00,2013-01-28 07:13:00,
2013-01-28 02:14:00,45.3,39.5,30.40,ENE,71,0.0,2.0,80,0.00,,---,0.00,VWS V14.00,2013-01-28 07:14:00,
2013-01-28 02:15:00,45.2,39.4,30.40,NE,38,0.0,1.0,80,0.00,,---,0.00,VWS V14.00,2013-01-28 07:15:00,
2013-01-28 02:16:00,45.3,39.5,30.40,ENE,70,0.0,1.0,80,0.00,,---,0.00,VWS V14.00,2013-01-28 07:16:00,
2013-01-28 02:17:00,45.2,39.4,30.40,NE,51,1.0,3.0,80,0.00,,---,0.00,VWS V14.00,2013-01-28 07:17:00,
2013-01-28 02:18:00,45.2,39.4,30.40,NNE,30,2.0,3.0,80,0.00,,---,0.00,VWS V14.00,2013-01-28 07:18:00,
2013-01-28 02:19:00,45.2,39.4,30.40,NNE,30,1.0,2.0,80,0.00,,---,0.00,VWS V14.00,2013-01-28 07:19:00,
2013-01-28 02:20:00,45.2,39.7,30.40,NE,40,3.0,3.0,81,0.00,,---,0.00,VWS V14.00,2013-01-28 07:20:00,
2013-01-28 02:21:00,45.2,39.4,30.40,NE,38,2.0,2.0,80,0.00,,---,0.00,VWS V14.00,2013-01-28 07:21:00,
2013-01-28 02:22:00,45.2,39.4,30.40,ENE,62,3.0,4.0,80,0.00,,---,0.00,VWS V14.00,2013-01-28 07:22:00,
2013-01-28 02:23:00,45.2,39.7,30.40,ENE,62,0.0,3.0,81,0.00,,---,0.00,VWS V14.00,2013-01-28 07:23:00,
2013-01-28 02:24:00,45.2,39.7,30.40,NE,55,1.0,2.0,81,0.00,,---,0.00,VWS V14.00,2013-01-28 07:24:00,
2013-01-28 02:25:00,45.2,39.7,30.40,NNE,25,3.0,4.0,81,0.00,,---,0.00,VWS V14.00,2013-01-28 07:25:00,
2013-01-28 02:26:00,45.2,39.7,30.40,NE,40,0.0,3.0,81,0.00,,---,0.00,VWS V14.00,2013-01-28 07:26:00,
2013-01-28 02:27:00,45.2,39.7,30.40,NE,40,0.0,1.0,81,0.00,,---,0.00,VWS V14.00,2013-01-28 07:27:00,
2013-01-28 02:28:00,45.2,39.7,30.40,NE,40,0.0,0.0,81,0.00,,---,0.00,VWS V14.00,2013-01-28 07:28:00,
2013-01-28 02:29:00,45.2,39.7,30.40,NE,40,0.0,2.0,81,0.00,,---,0.00,VWS V14.00,2013-01-28 07:29:00,
2013-01-28 02:30:00,45.1,39.6,30.40,NNE,16,2.0,3.0,81,0.00,,---,0.00,VWS V14.00,2013-01-28 07:30:00,
2013-01-28 02:31:00,45.2,39.7,30.40,NNE,30,1.0,4.0,81,0.00,,---,0.00,VWS V14.00,2013-01-28 07:31:00,
2013-01-28 02:32:00,45.1,39.6,30.40,NE,46,0.0,3.0,81,0.00,,---,0.00,VWS V14.00,2013-01-28 07:32:00,
2013-01-28 02:33:00,45.1,39.6,30.40,NE,34,0.0,3.0,81,0.00,,---,0.00,VWS V14.00,2013-01-28 07:33:00,
2013-01-28 02:34:00,45.1,39.6,30.40,NE,37,1.0,2.0,81,0.00,,---,0.00,VWS V14.00,2013-01-28 07:34:00,
2013-01-28 02:35:00,45.1,39.6,30.40,NE,51,0.0,0.0,81,0.00,,---,0.00,VWS V14.00,2013-01-28 07:35:00,
2013-01-28 02:36:00,45.1,39.6,30.40,NNE,18,1.0,3.0,81,0.00,,---,0.00,VWS V14.00,2013-01-28 07:36:00,
2013-01-28 02:37:00,45.1,39.6,30.40,NE,50,0.0,2.0,81,0.00,,---,0.00,VWS V14.00,2013-01-28 07:37:00,
2013-01-28 02:38:00,45.1,39.6,30.40,NE,51,0.0,3.0,81,0.00,,---,0.00,VWS V14.00,2013-01-28 07:38:00,
2013-01-28 02:39:00,45.1,39.6,30.40,NE,51,2.0,2.0,81,0.00,,---,0.00,VWS V14.00,2013-01-28 07:39:00,
2013-01-28 02:40:00,45.0,39.5,30.40,ENE,71,0.0,2.0,81,0.00,,---,0.00,VWS V14.00,2013-01-28 07:40:00,
2013-01-28 02:41:00,45.1,39.6,30.40,NE,51,0.0,0.0,81,0.00,,---,0.00,VWS V14.00,2013-01-28 07:41:00,
2013-01-28 02:42:00,45.1,39.6,30.40,East,82,1.0,4.0,81,0.00,,---,0.00,VWS V14.00,2013-01-28 07:42:00,
2013-01-28 02:43:00,45.0,39.5,30.40,ENE,59,0.0,3.0,81,0.00,,---,0.00,VWS V14.00,2013-01-28 07:43:00,
2013-01-28 02:44:00,45.1,39.6,30.40,ENE,72,0.0,3.0,81,0.00,,---,0.00,VWS V14.00,2013-01-28 07:44:00,
2013-01-28 02:45:00,45.0,39.8,30.40,ENE,71,0.0,0.0,82,0.00,,---,0.00,VWS V14.00,2013-01-28 07:45:00,
2013-01-28 02:46:00,45.0,39.8,30.40,ENE,71,0.0,2.0,82,0.00,,---,0.00,VWS V14.00,2013-01-28 07:46:00,
2013-01-28 02:47:00,45.0,39.8,30.40,ENE,71,0.0,0.0,82,0.00,,---,0.00,VWS V14.00,2013-01-28 07:47:00,
2013-01-28 02:48:00,45.0,39.8,30.40,ENE,71,0.0,0.0,82,0.00,,---,0.00,VWS V14.00,2013-01-28 07:48:00,
2013-01-28 02:49:00,45.0,39.8,30.40,ENE,71,0.0,0.0,82,0.00,,---,0.00,VWS V14.00,2013-01-28 07:49:00,
2013-01-28 02:50:00,44.9,39.8,30.40,NE,56,0.0,3.0,82,0.00,,---,0.00,VWS V14.00,2013-01-28 07:50:00,
2013-01-28 02:51:00,45.0,39.8,30.40,ENE,71,2.0,2.0,82,0.00,,---,0.00,VWS V14.00,2013-01-28 07:51:00,
2013-01-28 02:52:00,45.0,39.8,30.40,NE,49,0.0,3.0,82,0.00,,---,0.00,VWS V14.00,2013-01-28 07:52:00,
2013-01-28 02:53:00,45.0,39.8,30.40,NE,49,2.0,2.0,82,0.00,,---,0.00,VWS V14.00,2013-01-28 07:53:00,
2013-01-28 02:54:00,45.0,39.8,30.40,NE,49,0.0,2.0,82,0.00,,---,0.00,VWS V14.00,2013-01-28 07:54:00,
2013-01-28 02:55:00,44.8,39.7,30.40,NE,56,2.0,2.0,82,0.00,,---,0.00,VWS V14.00,2013-01-28 07:55:00,
2013-01-28 02:56:00,44.9,39.8,30.40,NE,56,2.0,3.0,82,0.00,,---,0.00,VWS V14.00,2013-01-28 07:56:00,
2013-01-28 02:57:00,44.9,39.8,30.40,NE,56,0.0,3.0,82,0.00,,---,0.00,VWS V14.00,2013-01-28 07:57:00,
2013-01-28 02:58:00,44.9,39.8,30.40,NE,56,0.0,1.0,82,0.00,,---,0.00,VWS V14.00,2013-01-28 07:58:00,
2013-01-28 02:59:00,44.9,39.8,30.40,NE,56,0.0,1.0,82,0.00,,---,0.00,VWS V14.00,2013-01-28 07:59:00,
2013-01-28 03:00:00,44.7,39.5,30.40,NE,56,0.0,1.0,82,0.00,,---,0.00,VWS V14.00,2013-01-28 08:00:00,
2013-01-28 03:01:00,44.9,39.8,30.40,NE,56,0.0,2.0,82,0.00,,---,0.00,VWS V14.00,2013-01-28 08:01:00,
2013-01-28 03:02:00,44.8,39.7,30.40,NE,56,0.0,1.0,82,0.00,,---,0.00,VWS V14.00,2013-01-28 08:02:00,
2013-01-28 03:03:00,44.8,39.7,30.40,NE,56,0.0,3.0,82,0.00,,---,0.00,VWS V14.00,2013-01-28 08:03:00,
2013-01-28 03:04:00,44.8,39.7,30.40,NE,56,1.0,2.0,82,0.00,,---,0.00,VWS V14.00,2013-01-28 08:04:00,
2013-01-28 03:05:00,44.7,39.5,30.40,NE,56,0.0,1.0,82,0.00,,---,0.00,VWS V14.00,2013-01-28 08:05:00,
2013-01-28 03:06:00,44.7,39.5,30.40,NE,56,2.0,2.0,82,0.00,,---,0.00,VWS V14.00,2013-01-28 08:06:00,
2013-01-28 03:07:00,44.7,39.5,30.40,NE,50,0.0,3.0,82,0.00,,---,0.00,VWS V14.00,2013-01-28 08:07:00,
2013-01-28 03:08:00,44.7,39.5,30.40,NE,56,1.0,2.0,82,0.00,,---,0.00,VWS V14.00,2013-01-28 08:08:00,
2013-01-28 03:09:00,44.7,39.5,30.40,NE,56,0.0,1.0,82,0.00,,---,0.00,VWS V14.00,2013-01-28 08:09:00,
2013-01-28 03:10:00,44.6,39.5,30.39,NE,56,1.0,2.0,82,0.00,,---,0.00,VWS V14.00,2013-01-28 08:10:00,
2013-01-28 03:11:00,44.7,39.5,30.40,NE,56,0.0,1.0,82,0.00,,---,0.00,VWS V14.00,2013-01-28 08:11:00,
2013-01-28 03:12:00,44.6,39.5,30.40,NE,56,0.0,1.0,82,0.00,,---,0.00,VWS V14.00,2013-01-28 08:12:00,
2013-01-28 03:13:00,44.6,39.5,30.40,NE,56,0.0,2.0,82,0.00,,---,0.00,VWS V14.00,2013-01-28 08:13:00,
2013-01-28 03:14:00,44.6,39.5,30.39,NE,56,1.0,2.0,82,0.00,,---,0.00,VWS V14.00,2013-01-28 08:14:00,
2013-01-28 03:15:00,44.5,39.4,30.39,ENE,61,0.0,2.0,82,0.00,,---,0.00,VWS V14.00,2013-01-28 08:15:00,
2013-01-28 03:16:00,44.6,39.5,30.39,NE,56,1.0,2.0,82,0.00,,---,0.00,VWS V14.00,2013-01-28 08:16:00,
2013-01-28 03:17:00,44.6,39.5,30.39,ENE,61,0.0,2.0,82,0.00,,---,0.00,VWS V14.00,2013-01-28 08:17:00,
2013-01-28 03:18:00,44.6,39.5,30.39,ENE,61,0.0,1.0,82,0.00,,---,0.00,VWS V14.00,2013-01-28 08:18:00,
2013-01-28 03:19:00,44.5,39.4,30.39,ENE,61,0.0,0.0,82,0.00,,---,0.00,VWS V14.00,2013-01-28 08:19:00,
2013-01-28 03:20:00,44.5,39.7,30.40,NE,55,1.0,1.0,83,0.00,,---,0.00,VWS V14.00,2013-01-28 08:20:00,
2013-01-28 03:21:00,44.5,39.4,30.39,ENE,61,0.0,2.0,82,0.00,,---,0.00,VWS V14.00,2013-01-28 08:21:00,
2013-01-28 03:22:00,44.5,39.4,30.39,ENE,77,3.0,4.0,82,0.00,,---,0.00,VWS V14.00,2013-01-28 08:22:00,
2013-01-28 03:23:00,44.5,39.4,30.40,NE,55,0.0,4.0,82,0.00,,---,0.00,VWS V14.00,2013-01-28 08:23:00,
2013-01-28 03:24:00,44.5,39.7,30.40,NE,55,0.0,2.0,83,0.00,,---,0.00,VWS V14.00,2013-01-28 08:24:00,
2013-01-28 03:25:00,44.5,39.7,30.40,ENE,71,0.0,1.0,83,0.00,,---,0.00,VWS V14.00,2013-01-28 08:25:00,
2013-01-28 03:26:00,44.5,39.7,30.40,NE,55,0.0,1.0,83,0.00,,---,0.00,VWS V14.00,2013-01-28 08:26:00,
2013-01-28 03:28:00,44.5,39.7,30.40,ENE,57,1.0,3.0,83,0.00,,---,0.00,VWS V14.00,2013-01-28 08:28:00,
2013-01-28 03:30:00,44.4,39.6,30.40,NE,42,0.0,2.0,83,0.00,,---,0.00,VWS V14.00,2013-01-28 08:30:00,
2013-01-28 03:31:00,44.4,39.6,30.40,ENE,71,0.0,1.0,83,0.00,,---,0.00,VWS V14.00,2013-01-28 08:31:00,
2013-01-28 03:32:00,44.4,39.6,30.40,ENE,71,1.0,1.0,83,0.00,,---,0.00,VWS V14.00,2013-01-28 08:32:00,
2013-01-28 03:35:00,44.3,39.5,30.39,NE,42,0.0,1.0,83,0.00,,---,0.00,VWS V14.00,2013-01-28 08:35:00,
2013-01-28 03:36:00,44.4,39.6,30.40,NE,42,0.0,2.0,83,0.00,,---,0.00,VWS V14.00,2013-01-28 08:36:00,
2013-01-28 03:37:00,44.4,39.6,30.40,NE,42,0.0,2.0,83,0.00,,---,0.00,VWS V14.00,2013-01-28 08:37:00,
2013-01-28 03:39:00,44.3,39.5,30.40,NE,42,0.0,1.0,83,0.00,,---,0.00,VWS V14.00,2013-01-28 08:39:00,
2013-01-28 03:40:00,44.3,39.5,30.39,NE,42,1.0,1.0,83,0.00,,---,0.00,VWS V14.00,2013-01-28 08:40:00,
2013-01-28 03:42:00,44.3,39.5,30.39,NE,42,0.0,2.0,83,0.00,,---,0.00,VWS V14.00,2013-01-28 08:42:00,
2013-01-28 03:43:00,44.3,39.5,30.39,NE,42,1.0,1.0,83,0.00,,---,0.00,VWS V14.00,2013-01-28 08:43:00,
2013-01-28 03:44:00,44.3,39.5,30.39,NE,42,0.0,2.0,83,0.00,,---,0.00,VWS V14.00,2013-01-28 08:44:00,
2013-01-28 03:45:00,44.2,39.7,30.39,NE,42,0.0,0.0,84,0.00,,---,0.00,VWS V14.00,2013-01-28 08:45:00,
2013-01-28 03:47:00,44.3,39.5,30.39,NE,42,0.0,3.0,83,0.00,,---,0.00,VWS V14.00,2013-01-28 08:47:00,
2013-01-28 03:48:00,44.2,39.4,30.39,NE,42,0.0,2.0,83,0.00,,---,0.00,VWS V14.00,2013-01-28 08:48:00,
2013-01-28 03:49:00,44.2,39.4,30.39,NE,42,0.0,0.0,83,0.00,,---,0.00,VWS V14.00,2013-01-28 08:49:00,
2013-01-28 03:50:00,44.1,39.6,30.39,NE,42,0.0,1.0,84,0.00,,---,0.00,VWS V14.00,2013-01-28 08:50:00,
2013-01-28 03:51:00,44.2,39.7,30.39,NE,42,0.0,0.0,84,0.00,,---,0.00,VWS V14.00,2013-01-28 08:51:00,
2013-01-28 03:52:00,44.2,39.7,30.39,NE,42,0.0,0.0,84,0.00,,---,0.00,VWS V14.00,2013-01-28 08:52:00,
2013-01-28 03:53:00,44.2,39.7,30.39,NE,42,0.0,2.0,84,0.00,,---,0.00,VWS V14.00,2013-01-28 08:53:00,
2013-01-28 03:54:00,44.2,39.7,30.39,NE,42,0.0,0.0,84,0.00,,---,0.00,VWS V14.00,2013-01-28 08:54:00,
2013-01-28 03:55:00,44.1,39.6,30.40,NE,42,0.0,2.0,84,0.00,,---,0.00,VWS V14.00,2013-01-28 08:55:00,
2013-01-28 03:56:00,44.1,39.6,30.39,NE,42,0.0,1.0,84,0.00,,---,0.00,VWS V14.00,2013-01-28 08:56:00,
2013-01-28 03:57:00,44.1,39.6,30.39,NE,42,0.0,1.0,84,0.00,,---,0.00,VWS V14.00,2013-01-28 08:57:00,
2013-01-28 03:58:00,44.1,39.6,30.39,NE,42,0.0,0.0,84,0.00,,---,0.00,VWS V14.00,2013-01-28 08:58:00,
2013-01-28 03:59:00,44.1,39.6,30.40,NE,42,0.0,0.0,84,0.00,,---,0.00,VWS V14.00,2013-01-28 08:59:00,
2013-01-28 04:00:00,44.0,39.5,30.40,NE,42,0.0,0.0,84,0.00,,---,0.00,VWS V14.00,2013-01-28 09:00:00,
2013-01-28 04:01:00,44.1,39.6,30.40,NE,42,1.0,2.0,84,0.00,,---,0.00,VWS V14.00,2013-01-28 09:01:00,
2013-01-28 04:02:00,44.1,39.6,30.40,NE,42,0.0,1.0,84,0.00,,---,0.00,VWS V14.00,2013-01-28 09:02:00,
2013-01-28 04:03:00,44.1,39.6,30.40,NE,42,0.0,1.0,84,0.00,,---,0.00,VWS V14.00,2013-01-28 09:03:00,
2013-01-28 04:04:00,44.1,39.6,30.40,NE,42,0.0,0.0,84,0.00,,---,0.00,VWS V14.00,2013-01-28 09:04:00,
2013-01-28 04:05:00,44.0,39.5,30.40,NE,42,0.0,0.0,84,0.00,,---,0.00,VWS V14.00,2013-01-28 09:05:00,
2013-01-28 04:06:00,44.0,39.5,30.40,NE,42,0.0,0.0,84,0.00,,---,0.00,VWS V14.00,2013-01-28 09:06:00,
2013-01-28 04:07:00,44.0,39.5,30.40,NE,42,0.0,1.0,84,0.00,,---,0.00,VWS V14.00,2013-01-28 09:07:00,
2013-01-28 04:08:00,44.0,39.5,30.40,NE,42,0.0,0.0,84,0.00,,---,0.00,VWS V14.00,2013-01-28 09:08:00,
2013-01-28 04:09:00,44.0,39.5,30.40,NE,42,0.0,0.0,84,0.00,,---,0.00,VWS V14.00,2013-01-28 09:09:00,
2013-01-28 04:10:00,44.0,39.5,30.40,NE,42,3.0,3.0,84,0.00,,---,0.00,VWS V14.00,2013-01-28 09:10:00,
2013-01-28 04:11:00,44.0,39.5,30.40,NE,42,0.0,0.0,84,0.00,,---,0.00,VWS V14.00,2013-01-28 09:11:00,
2013-01-28 04:12:00,44.0,39.5,30.40,NE,42,1.0,2.0,84,0.00,,---,0.00,VWS V14.00,2013-01-28 09:12:00,
2013-01-28 04:13:00,44.0,39.5,30.40,NE,42,0.0,2.0,84,0.00,,---,0.00,VWS V14.00,2013-01-28 09:13:00,
2013-01-28 04:14:00,44.0,39.5,30.40,NE,42,0.0,1.0,84,0.00,,---,0.00,VWS V14.00,2013-01-28 09:14:00,
2013-01-28 04:15:00,43.9,39.4,30.40,NE,42,2.0,2.0,84,0.00,,---,0.00,VWS V14.00,2013-01-28 09:15:00,
2013-01-28 04:16:00,43.9,39.4,30.40,NE,42,0.0,3.0,84,0.00,,---,0.00,VWS V14.00,2013-01-28 09:16:00,
2013-01-28 04:17:00,44.0,39.5,30.39,NE,42,0.0,1.0,84,0.00,,---,0.00,VWS V14.00,2013-01-28 09:17:00,
2013-01-28 04:18:00,43.9,39.4,30.40,NE,42,0.0,1.0,84,0.00,,---,0.00,VWS V14.00,2013-01-28 09:18:00,
2013-01-28 04:19:00,43.9,39.4,30.40,NE,42,1.0,1.0,84,0.00,,---,0.00,VWS V14.00,2013-01-28 09:19:00,
2013-01-28 04:20:00,43.8,39.3,30.40,NE,38,0.0,1.0,84,0.00,,---,0.00,VWS V14.00,2013-01-28 09:20:00,
2013-01-28 04:21:00,43.9,39.4,30.40,NE,42,2.0,2.0,84,0.00,,---,0.00,VWS V14.00,2013-01-28 09:21:00,
2013-01-28 04:22:00,43.9,39.4,30.40,NE,42,0.0,1.0,84,0.00,,---,0.00,VWS V14.00,2013-01-28 09:22:00,
2013-01-28 04:23:00,43.9,39.4,30.40,NE,42,0.0,2.0,84,0.00,,---,0.00,VWS V14.00,2013-01-28 09:23:00,
2013-01-28 04:24:00,43.9,39.4,30.40,NE,42,0.0,0.0,84,0.00,,---,0.00,VWS V14.00,2013-01-28 09:24:00,
2013-01-28 04:25:00,43.8,39.6,30.39,NE,39,0.0,2.0,85,0.00,,---,0.00,VWS V14.00,2013-01-28 09:25:00,
2013-01-28 04:26:00,43.8,39.6,30.40,NE,38,0.0,1.0,85,0.00,,---,0.00,VWS V14.00,2013-01-28 09:26:00,
2013-01-28 04:27:00,43.9,39.7,30.39,NE,39,0.0,2.0,85,0.00,,---,0.00,VWS V14.00,2013-01-28 09:27:00,
2013-01-28 04:28:00,43.8,39.3,30.39,NE,39,0.0,0.0,84,0.00,,---,0.00,VWS V14.00,2013-01-28 09:28:00,
2013-01-28 04:29:00,43.8,39.3,30.39,NE,39,0.0,1.0,84,0.00,,---,0.00,VWS V14.00,2013-01-28 09:29:00,
2013-01-28 04:30:00,43.8,39.6,30.39,NE,39,0.0,2.0,85,0.00,,---,0.00,VWS V14.00,2013-01-28 09:30:00,
2013-01-28 04:31:00,43.8,39.6,30.39,NE,39,0.0,2.0,85,0.00,,---,0.00,VWS V14.00,2013-01-28 09:31:00,
2013-01-28 04:32:00,43.8,39.6,30.39,NE,39,0.0,2.0,85,0.00,,---,0.00,VWS V14.00,2013-01-28 09:32:00,
2013-01-28 04:33:00,43.8,39.6,30.39,NE,39,0.0,1.0,85,0.00,,---,0.00,VWS V14.00,2013-01-28 09:33:00,
2013-01-28 04:34:00,43.8,39.6,30.39,NE,39,0.0,1.0,85,0.00,,---,0.00,VWS V14.00,2013-01-28 09:34:00,
2013-01-28 04:35:00,43.8,39.6,30.39,ENE,58,0.0,2.0,85,0.00,,---,0.00,VWS V14.00,2013-01-28 09:35:00,
2013-01-28 04:36:00,43.8,39.6,30.39,NE,39,1.0,2.0,85,0.00,,---,0.00,VWS V14.00,2013-01-28 09:36:00,
2013-01-28 04:37:00,43.8,39.6,30.39,ENE,57,0.0,3.0,85,0.00,,---,0.00,VWS V14.00,2013-01-28 09:37:00,
2013-01-28 04:38:00,43.8,39.6,30.39,ENE,57,0.0,1.0,85,0.00,,---,0.00,VWS V14.00,2013-01-28 09:38:00,
2013-01-28 04:39:00,43.8,39.6,30.39,ENE,57,1.0,2.0,85,0.00,,---,0.00,VWS V14.00,2013-01-28 09:39:00,
2013-01-28 04:40:00,43.8,39.6,30.39,ENE,57,0.0,2.0,85,0.00,,---,0.00,VWS V14.00,2013-01-28 09:40:00,
2013-01-28 04:41:00,43.8,39.6,30.39,ENE,58,0.0,2.0,85,0.00,,---,0.00,VWS V14.00,2013-01-28 09:41:00,
2013-01-28 04:42:00,43.8,39.6,30.39,ENE,58,0.0,1.0,85,0.00,,---,0.00,VWS V14.00,2013-01-28 09:42:00,
2013-01-28 04:43:00,43.8,39.6,30.39,ENE,57,1.0,3.0,85,0.00,,---,0.00,VWS V14.00,2013-01-28 09:43:00,
2013-01-28 04:44:00,43.8,39.6,30.39,ENE,57,0.0,2.0,85,0.00,,---,0.00,VWS V14.00,2013-01-28 09:44:00,
2013-01-28 04:45:00,43.7,39.5,30.39,ENE,57,0.0,0.0,85,0.00,,---,0.00,VWS V14.00,2013-01-28 09:45:00,
2013-01-28 04:46:00,43.8,39.6,30.39,ENE,57,0.0,2.0,85,0.00,,---,0.00,VWS V14.00,2013-01-28 09:46:00,
2013-01-28 04:48:00,43.8,39.6,30.39,ENE,57,0.0,1.0,85,0.00,,---,0.00,VWS V14.00,2013-01-28 09:48:00,
2013-01-28 04:49:00,43.8,39.6,30.39,ENE,57,0.0,1.0,85,0.00,,---,0.00,VWS V14.00,2013-01-28 09:49:00,
2013-01-28 04:50:00,43.8,39.6,30.39,NE,38,0.0,3.0,85,0.00,,---,0.00,VWS V14.00,2013-01-28 09:50:00,
2013-01-28 04:51:00,43.8,39.6,30.39,ENE,57,0.0,0.0,85,0.00,,---,0.00,VWS V14.00,2013-01-28 09:51:00,
2013-01-28 04:52:00,43.8,39.6,30.39,ENE,57,0.0,0.0,85,0.00,,---,0.00,VWS V14.00,2013-01-28 09:52:00,
2013-01-28 04:53:00,43.8,39.6,30.39,ENE,57,3.0,3.0,85,0.00,,---,0.00,VWS V14.00,2013-01-28 09:53:00,
2013-01-28 04:54:00,43.8,39.6,30.39,NE,44,3.0,4.0,85,0.00,,---,0.00,VWS V14.00,2013-01-28 09:54:00,
2013-01-28 04:55:00,43.7,39.5,30.39,ENE,67,0.0,0.0,85,0.00,,---,0.00,VWS V14.00,2013-01-28 09:55:00,
2013-01-28 04:56:00,43.7,39.5,30.39,NE,49,2.0,3.0,85,0.00,,---,0.00,VWS V14.00,2013-01-28 09:56:00,
2013-01-28 04:57:00,43.7,39.5,30.39,ENE,59,3.0,3.0,85,0.00,,---,0.00,VWS V14.00,2013-01-28 09:57:00,
2013-01-28 04:58:00,43.7,39.5,30.39,East,84,2.0,4.0,85,0.00,,---,0.00,VWS V14.00,2013-01-28 09:58:00,
2013-01-28 04:59:00,43.7,39.5,30.39,ENE,67,0.0,2.0,85,0.00,,---,0.00,VWS V14.00,2013-01-28 09:59:00,
2013-01-28 05:00:00,43.7,39.5,30.39,ENE,67,0.0,0.0,85,0.00,,---,0.00,VWS V14.00,2013-01-28 10:00:00,
2013-01-28 05:01:00,43.7,39.5,30.39,ENE,67,0.0,0.0,85,0.00,,---,0.00,VWS V14.00,2013-01-28 10:01:00,
2013-01-28 05:02:00,43.7,39.5,30.39,ENE,67,0.0,0.0,85,0.00,,---,0.00,VWS V14.00,2013-01-28 10:02:00,
2013-01-28 05:03:00,43.7,39.5,30.39,ENE,67,0.0,2.0,85,0.00,,---,0.00,VWS V14.00,2013-01-28 10:03:00,
2013-01-28 05:04:00,43.7,39.5,30.39,ENE,67,0.0,1.0,85,0.00,,---,0.00,VWS V14.00,2013-01-28 10:04:00,
2013-01-28 05:05:00,43.7,39.5,30.39,ENE,57,0.0,1.0,85,0.00,,---,0.00,VWS V14.00,2013-01-28 10:05:00,
2013-01-28 05:06:00,43.7,39.5,30.39,ENE,67,0.0,0.0,85,0.00,,---,0.00,VWS V14.00,2013-01-28 10:06:00,
2013-01-28 05:07:00,43.7,39.5,30.39,ENE,67,2.0,2.0,85,0.00,,---,0.00,VWS V14.00,2013-01-28 10:07:00,
2013-01-28 05:08:00,43.7,39.5,30.39,ENE,57,0.0,3.0,85,0.00,,---,0.00,VWS V14.00,2013-01-28 10:08:00,
2013-01-28 05:09:00,43.7,39.5,30.39,ENE,57,1.0,2.0,85,0.00,,---,0.00,VWS V14.00,2013-01-28 10:09:00,
2013-01-28 05:10:00,43.7,39.8,30.39,ENE,59,0.0,0.0,86,0.00,,---,0.00,VWS V14.00,2013-01-28 10:10:00,
2013-01-28 05:11:00,43.7,39.5,30.39,ENE,57,0.0,1.0,85,0.00,,---,0.00,VWS V14.00,2013-01-28 10:11:00,
2013-01-28 05:12:00,43.7,39.5,30.39,ENE,57,0.0,2.0,85,0.00,,---,0.00,VWS V14.00,2013-01-28 10:12:00,
2013-01-28 05:13:00,43.7,39.8,30.39,ENE,57,0.0,0.0,86,0.00,,---,0.00,VWS V14.00,2013-01-28 10:13:00,
2013-01-28 05:14:00,43.7,39.8,30.39,ENE,59,1.0,3.0,86,0.00,,---,0.00,VWS V14.00,2013-01-28 10:14:00,
2013-01-28 05:15:00,43.7,39.8,30.39,NE,42,2.0,2.0,86,0.00,,---,0.00,VWS V14.00,2013-01-28 10:15:00,
2013-01-28 05:16:00,43.7,39.8,30.39,ENE,59,2.0,2.0,86,0.00,,---,0.00,VWS V14.00,2013-01-28 10:16:00,
2013-01-28 05:17:00,43.7,39.8,30.39,ENE,59,0.0,3.0,86,0.00,,---,0.00,VWS V14.00,2013-01-28 10:17:00,
2013-01-28 05:18:00,43.7,39.8,30.39,NE,41,1.0,5.0,86,0.00,,---,0.00,VWS V14.00,2013-01-28 10:18:00,
2013-01-28 05:19:00,43.7,39.8,30.39,NE,41,0.0,1.0,86,0.00,,---,0.00,VWS V14.00,2013-01-28 10:19:00,
2013-01-28 05:20:00,43.6,39.7,30.39,NE,44,1.0,2.0,86,0.00,,---,0.00,VWS V14.00,2013-01-28 10:20:00,
2013-01-28 05:21:00,43.7,39.8,30.39,NE,42,2.0,2.0,86,0.00,,---,0.00,VWS V14.00,2013-01-28 10:21:00,
2013-01-28 05:22:00,43.7,39.8,30.39,NE,40,0.0,2.0,86,0.00,,---,0.00,VWS V14.00,2013-01-28 10:22:00,
2013-01-28 05:23:00,43.7,39.8,30.39,NNE,15,2.0,2.0,86,0.00,,---,0.00,VWS V14.00,2013-01-28 10:23:00,
2013-01-28 05:24:00,43.6,39.7,30.39,ENE,73,3.0,3.0,86,0.00,,---,0.00,VWS V14.00,2013-01-28 10:24:00,
2013-01-28 05:25:00,43.6,39.7,30.39,NE,54,2.0,4.0,86,0.00,,---,0.00,VWS V14.00,2013-01-28 10:25:00,
2013-01-28 05:26:00,43.6,39.7,30.39,NE,43,2.0,2.0,86,0.00,,---,0.00,VWS V14.00,2013-01-28 10:26:00,
2013-01-28 05:27:00,43.6,39.7,30.39,NE,38,0.0,3.0,86,0.00,,---,0.00,VWS V14.00,2013-01-28 10:27:00,
2013-01-28 05:28:00,43.6,39.7,30.39,NE,38,0.0,2.0,86,0.00,,---,0.00,VWS V14.00,2013-01-28 10:28:00,
2013-01-28 05:29:00,43.6,39.4,30.39,NE,38,0.0,1.0,85,0.00,,---,0.00,VWS V14.00,2013-01-28 10:29:00,
2013-01-28 05:30:00,43.6,39.7,30.38,NE,55,0.0,2.0,86,0.00,,---,0.00,VWS V14.00,2013-01-28 10:30:00,
2013-01-28 05:31:00,43.6,39.7,30.39,NE,48,2.0,4.0,86,0.00,,---,0.00,VWS V14.00,2013-01-28 10:31:00,
2013-01-28 05:32:00,43.6,39.7,30.38,NE,55,2.0,4.0,86,0.00,,---,0.00,VWS V14.00,2013-01-28 10:32:00,
2013-01-28 05:33:00,43.6,39.7,30.38,ENE,59,0.0,3.0,86,0.00,,---,0.00,VWS V14.00,2013-01-28 10:33:00,
2013-01-28 05:34:00,43.6,39.7,30.38,ENE,60,3.0,5.0,86,0.00,,---,0.00,VWS V14.00,2013-01-28 10:34:00,
2013-01-28 05:35:00,43.6,39.7,30.38,East,92,0.0,1.0,86,0.00,,---,0.00,VWS V14.00,2013-01-28 10:35:00,
2013-01-28 05:36:00,43.6,39.7,30.38,NE,49,1.0,3.0,86,0.00,,---,0.00,VWS V14.00,2013-01-28 10:36:00,
2013-01-28 05:37:00,43.6,39.7,30.38,NE,49,1.0,2.0,86,0.00,,---,0.00,VWS V14.00,2013-01-28 10:37:00,
2013-01-28 05:38:00,43.6,39.7,30.38,ENE,57,2.0,5.0,86,0.00,,---,0.00,VWS V14.00,2013-01-28 10:38:00,
2013-01-28 05:39:00,43.6,39.7,30.38,NNE,30,1.0,2.0,86,0.00,,---,0.00,VWS V14.00,2013-01-28 10:39:00,
2013-01-28 05:40:00,43.5,39.6,30.38,NE,53,3.0,3.0,86,0.00,,---,0.00,VWS V14.00,2013-01-28 10:40:00,
2013-01-28 05:41:00,43.6,39.7,30.38,East,92,0.0,1.0,86,0.00,,---,0.00,VWS V14.00,2013-01-28 10:41:00,
2013-01-28 05:42:00,43.6,39.7,30.39,NE,54,0.0,3.0,86,0.00,,---,0.00,VWS V14.00,2013-01-28 10:42:00,
2013-01-28 05:43:00,43.5,39.6,30.39,NE,46,0.0,2.0,86,0.00,,---,0.00,VWS V14.00,2013-01-28 10:43:00,
2013-01-28 05:44:00,43.5,39.6,30.39,NE,46,2.0,3.0,86,0.00,,---,0.00,VWS V14.00,2013-01-28 10:44:00,
2013-01-28 05:45:00,43.5,39.6,30.39,East,80,0.0,2.0,86,0.00,,---,0.00,VWS V14.00,2013-01-28 10:45:00,
2013-01-28 05:47:00,43.5,39.6,30.39,NE,54,0.0,2.0,86,0.00,,---,0.00,VWS V14.00,2013-01-28 10:47:00,
2013-01-28 05:48:00,43.6,39.7,30.39,NE,54,0.0,2.0,86,0.00,,---,0.00,VWS V14.00,2013-01-28 10:48:00,
2013-01-28 05:49:00,43.5,39.6,30.39,NE,39,0.0,2.0,86,0.00,,---,0.00,VWS V14.00,2013-01-28 10:49:00,
2013-01-28 05:50:00,43.5,39.6,30.39,NE,44,1.0,2.0,86,0.00,,---,0.00,VWS V14.00,2013-01-28 10:50:00,
2013-01-28 05:51:00,43.5,39.6,30.39,NNE,15,2.0,3.0,86,0.00,,---,0.00,VWS V14.00,2013-01-28 10:51:00,
2013-01-28 05:52:00,43.5,39.6,30.39,NNE,15,1.0,3.0,86,0.00,,---,0.00,VWS V14.00,2013-01-28 10:52:00,
2013-01-28 05:53:00,43.5,39.6,30.39,NE,53,0.0,3.0,86,0.00,,---,0.00,VWS V14.00,2013-01-28 10:53:00,
2013-01-28 05:54:00,43.5,39.6,30.39,NE,49,0.0,3.0,86,0.00,,---,0.00,VWS V14.00,2013-01-28 10:54:00,
2013-01-28 05:55:00,43.5,39.9,30.39,NE,40,1.0,3.0,87,0.00,,---,0.00,VWS V14.00,2013-01-28 10:55:00,
2013-01-28 05:56:00,43.5,39.6,30.39,ENE,71,3.0,3.0,86,0.00,,---,0.00,VWS V14.00,2013-01-28 10:56:00,
2013-01-28 05:57:00,43.5,39.9,30.39,ENE,71,1.0,3.0,87,0.00,,---,0.00,VWS V14.00,2013-01-28 10:57:00,
2013-01-28 05:58:00,43.5,39.9,30.39,ENE,71,0.0,2.0,87,0.00,,---,0.00,VWS V14.00,2013-01-28 10:58:00,
2013-01-28 05:59:00,43.5,39.9,30.39,North,11,2.0,4.0,87,0.00,,---,0.00,VWS V14.00,2013-01-28 10:59:00,
2013-01-28 06:00:00,43.6,40.0,30.39,ENE,58,2.0,2.0,87,0.00,,---,0.00,VWS V14.00,2013-01-28 11:00:00,
2013-01-28 06:01:00,43.5,39.9,30.39,NE,36,1.0,3.0,87,0.00,,---,0.00,VWS V14.00,2013-01-28 11:01:00,
2013-01-28 06:02:00,43.5,39.9,30.39,NE,55,1.0,3.0,87,0.00,,---,0.00,VWS V14.00,2013-01-28 11:02:00,
2013-01-28 06:03:00,43.5,39.9,30.39,ENE,71,0.0,2.0,87,0.00,,---,0.00,VWS V14.00,2013-01-28 11:03:00,
2013-01-28 06:04:00,43.5,39.9,30.39,ENE,71,0.0,1.0,87,0.00,,---,0.00,VWS V14.00,2013-01-28 11:04:00,
2013-01-28 06:05:00,43.6,40.0,30.39,NE,40,1.0,2.0,87,0.00,,---,0.00,VWS V14.00,2013-01-28 11:05:00,
2013-01-28 06:06:00,43.5,39.9,30.39,ENE,61,2.0,3.0,87,0.00,,---,0.00,VWS V14.00,2013-01-28 11:06:00,
2013-01-28 06:07:00,43.5,39.9,30.39,ENE,57,0.0,2.0,87,0.00,,---,0.00,VWS V14.00,2013-01-28 11:07:00,
2013-01-28 06:08:00,43.6,40.0,30.39,NE,39,2.0,2.0,87,0.00,,---,0.00,VWS V14.00,2013-01-28 11:08:00,
2013-01-28 06:09:00,43.6,40.0,30.39,NE,39,1.0,2.0,87,0.00,,---,0.00,VWS V14.00,2013-01-28 11:09:00,
2013-01-28 06:10:00,43.6,40.0,30.39,NNE,19,4.0,6.0,87,0.00,,---,0.00,VWS V14.00,2013-01-28 11:10:00,
2013-01-28 06:11:00,43.6,40.0,30.39,NE,40,1.0,2.0,87,0.00,,---,0.00,VWS V14.00,2013-01-28 11:11:00,
2013-01-28 06:12:00,43.6,40.0,30.39,NE,40,2.0,4.0,87,0.00,,---,0.00,VWS V14.00,2013-01-28 11:12:00,
2013-01-28 06:13:00,43.6,40.0,30.39,NE,46,3.0,3.0,87,0.00,,---,0.00,VWS V14.00,2013-01-28 11:13:00,
2013-01-28 06:14:00,43.6,40.0,30.39,NE,46,0.0,3.0,87,0.00,,---,0.00,VWS V14.00,2013-01-28 11:14:00,
2013-01-28 06:15:00,43.6,40.0,30.39,NNE,33,0.0,1.0,87,0.00,,---,0.00,VWS V14.00,2013-01-28 11:15:00,
2013-01-28 06:16:00,43.6,40.0,30.39,NNE,20,0.0,6.0,87,0.00,,---,0.00,VWS V14.00,2013-01-28 11:16:00,
2013-01-28 06:17:00,43.6,40.0,30.39,NNE,19,0.0,1.0,87,0.00,,---,0.00,VWS V14.00,2013-01-28 11:17:00,
2013-01-28 06:18:00,43.6,40.0,30.39,NNE,26,2.0,2.0,87,0.00,,---,0.00,VWS V14.00,2013-01-28 11:18:00,
2013-01-28 06:19:00,43.6,40.0,30.39,NE,45,1.0,3.0,87,0.00,,---,0.00,VWS V14.00,2013-01-28 11:19:00,
2013-01-28 06:20:00,43.7,40.1,30.40,East,84,3.0,3.0,87,0.00,,---,0.00,VWS V14.00,2013-01-28 11:20:00,
2013-01-28 06:21:00,43.6,40.0,30.39,NNE,33,0.0,1.0,87,0.00,,---,0.00,VWS V14.00,2013-01-28 11:21:00,
2013-01-28 06:22:00,43.6,40.0,30.39,NE,34,2.0,2.0,87,0.00,,---,0.00,VWS V14.00,2013-01-28 11:22:00,
2013-01-28 06:23:00,43.6,40.0,30.40,ENE,75,0.0,4.0,87,0.00,,---,0.00,VWS V14.00,2013-01-28 11:23:00,
2013-01-28 06:24:00,43.6,40.0,30.40,ENE,75,0.0,2.0,87,0.00,,---,0.00,VWS V14.00,2013-01-28 11:24:00,
2013-01-28 06:25:00,43.7,40.1,30.40,ENE,57,0.0,1.0,87,0.00,,---,0.00,VWS V14.00,2013-01-28 11:25:00,
2013-01-28 06:26:00,43.6,40.0,30.40,NE,53,2.0,3.0,87,0.00,,---,0.00,VWS V14.00,2013-01-28 11:26:00,
2013-01-28 06:27:00,43.7,40.1,30.40,ENE,69,4.0,5.0,87,0.00,,---,0.00,VWS V14.00,2013-01-28 11:27:00,
2013-01-28 06:28:00,43.7,40.1,30.40,NE,51,0.0,4.0,87,0.00,,---,0.00,VWS V14.00,2013-01-28 11:28:00,
2013-01-28 06:29:00,43.7,40.1,30.40,NE,51,1.0,2.0,87,0.00,,---,0.00,VWS V14.00,2013-01-28 11:29:00,
2013-01-28 06:30:00,43.7,40.4,30.40,North,11,1.0,2.0,88,0.00,,---,0.00,VWS V14.00,2013-01-28 11:30:00,
2013-01-28 06:31:00,43.7,40.1,30.40,ENE,57,1.0,1.0,87,0.00,,---,0.00,VWS V14.00,2013-01-28 11:31:00,
2013-01-28 06:32:00,43.7,40.1,30.40,ENE,57,1.0,3.0,87,0.00,,---,0.00,VWS V14.00,2013-01-28 11:32:00,
2013-01-28 06:33:00,43.7,40.1,30.40,NE,53,3.0,3.0,87,0.00,,---,0.00,VWS V14.00,2013-01-28 11:33:00,
2013-01-28 06:34:00,43.7,40.1,30.40,ENE,62,0.0,3.0,87,0.00,,---,0.00,VWS V14.00,2013-01-28 11:34:00,
2013-01-28 06:35:00,43.8,40.2,30.40,NE,44,2.0,3.0,87,0.00,,---,0.00,VWS V14.00,2013-01-28 11:35:00,
2013-01-28 06:36:00,43.7,40.4,30.40,North,11,0.0,2.0,88,0.00,,---,0.00,VWS V14.00,2013-01-28 11:36:00,
2013-01-28 06:37:00,43.7,40.4,30.40,ENE,66,3.0,4.0,88,0.00,,---,0.00,VWS V14.00,2013-01-28 11:37:00,
2013-01-28 06:38:00,43.8,40.2,30.40,NE,54,0.0,3.0,87,0.00,,---,0.00,VWS V14.00,2013-01-28 11:38:00,
2013-01-28 06:39:00,43.7,40.1,30.40,ENE,57,0.0,2.0,87,0.00,,---,0.00,VWS V14.00,2013-01-28 11:39:00,
2013-01-28 06:40:00,43.8,40.5,30.40,NE,34,0.0,1.0,88,0.00,,---,0.00,VWS V14.00,2013-01-28 11:40:00,
2013-01-28 06:41:00,43.8,40.2,30.40,ENE,76,2.0,4.0,87,0.00,,---,0.00,VWS V14.00,2013-01-28 11:41:00,
2013-01-28 06:42:00,43.8,40.2,30.40,NE,49,0.0,3.0,87,0.00,,---,0.00,VWS V14.00,2013-01-28 11:42:00,
2013-01-28 06:43:00,43.8,40.2,30.40,ENE,61,0.0,2.0,87,0.00,,---,0.00,VWS V14.00,2013-01-28 11:43:00,
2013-01-28 06:44:00,43.8,40.2,30.40,ENE,61,0.0,1.0,87,0.00,,---,0.00,VWS V14.00,2013-01-28 11:44:00,
2013-01-28 06:45:00,43.9,40.6,30.40,NE,34,0.0,2.0,88,0.00,,---,0.00,VWS V14.00,2013-01-28 11:45:00,
2013-01-28 06:46:00,43.8,40.5,30.40,NE,34,0.0,1.0,88,0.00,,---,0.00,VWS V14.00,2013-01-28 11:46:00,
2013-01-28 06:47:00,43.8,40.5,30.40,NE,34,0.0,0.0,88,0.00,,---,0.00,VWS V14.00,2013-01-28 11:47:00,
2013-01-28 06:48:00,43.8,40.5,30.40,NE,34,0.0,1.0,88,0.00,,---,0.00,VWS V14.00,2013-01-28 11:48:00,
2013-01-28 06:49:00,43.8,40.5,30.40,NE,34,0.0,1.0,88,0.00,,---,0.00,VWS V14.00,2013-01-28 11:49:00,
2013-01-28 06:50:00,43.9,41.7,30.40,NE,39,0.0,3.0,92,0.00,,---,0.00,VWS V14.00,2013-01-28 11:50:00,
2013-01-28 06:51:00,43.8,40.5,30.40,NE,34,0.0,2.0,88,0.00,,---,0.00,VWS V14.00,2013-01-28 11:51:00,
2013-01-28 06:52:00,43.9,40.6,30.40,NE,48,2.0,3.0,88,0.00,,---,0.00,VWS V14.00,2013-01-28 11:52:00,
2013-01-28 06:53:00,43.9,40.6,30.40,NE,48,0.0,2.0,88,0.00,,---,0.00,VWS V14.00,2013-01-28 11:53:00,
2013-01-28 06:54:00,43.8,40.5,30.40,NE,39,1.0,3.0,88,0.00,,---,0.00,VWS V14.00,2013-01-28 11:54:00,
2013-01-28 06:55:00,44.0,40.7,30.40,NNE,32,0.0,4.0,88,0.00,,---,0.00,VWS V14.00,2013-01-28 11:55:00,
2013-01-28 06:56:00,43.9,41.7,30.40,ENE,63,2.0,3.0,92,0.00,,---,0.00,VWS V14.00,2013-01-28 11:56:00,
2013-01-28 06:57:00,43.9,41.7,30.40,ENE,63,3.0,3.0,92,0.00,,---,0.00,VWS V14.00,2013-01-28 11:57:00,
2013-01-28 06:58:00,43.9,40.6,30.40,East,101,4.0,4.0,88,0.00,,---,0.00,VWS V14.00,2013-01-28 11:58:00,
2013-01-28 06:59:00,43.9,41.7,30.40,NNE,30,1.0,4.0,92,0.00,,---,0.00,VWS V14.00,2013-01-28 11:59:00,
2013-01-28 07:00:00,44.0,40.7,30.40,NE,46,0.0,1.0,88,0.00,,---,0.00,VWS V14.00,2013-01-28 12:00:00,
2013-01-28 07:01:00,43.9,40.6,30.40,NNE,32,0.0,4.0,88,0.00,,---,0.00,VWS V14.00,2013-01-28 12:01:00,
2013-01-28 07:02:00,43.9,40.6,30.40,NNE,32,0.0,1.0,88,0.00,,---,0.00,VWS V14.00,2013-01-28 12:02:00,
2013-01-28 07:03:00,44.0,40.7,30.40,NE,36,2.0,3.0,88,0.00,,---,0.00,VWS V14.00,2013-01-28 12:03:00,
2013-01-28 07:04:00,44.0,40.7,30.40,NE,46,1.0,3.0,88,0.00,,---,0.00,VWS V14.00,2013-01-28 12:04:00,
2013-01-28 07:05:00,44.0,40.7,30.41,NE,46,0.0,1.0,88,0.00,,---,0.00,VWS V14.00,2013-01-28 12:05:00,
2013-01-28 07:06:00,44.0,40.7,30.40,NE,46,0.0,1.0,88,0.00,,---,0.00,VWS V14.00,2013-01-28 12:06:00,
2013-01-28 07:07:00,44.0,40.7,30.41,NE,46,0.0,2.0,88,0.00,,---,0.00,VWS V14.00,2013-01-28 12:07:00,
2013-01-28 07:08:00,44.0,40.7,30.40,NE,46,0.0,2.0,88,0.00,,---,0.00,VWS V14.00,2013-01-28 12:08:00,
2013-01-28 07:09:00,44.0,40.7,30.41,NE,46,2.0,2.0,88,0.00,,---,0.00,VWS V14.00,2013-01-28 12:09:00,
2013-01-28 07:10:00,44.1,40.8,30.41,NE,46,0.0,0.0,88,0.00,,---,0.00,VWS V14.00,2013-01-28 12:10:00,
2013-01-28 07:11:00,44.0,40.7,30.41,NE,46,0.0,1.0,88,0.00,,---,0.00,VWS V14.00,2013-01-28 12:11:00,
2013-01-28 07:12:00,44.0,40.7,30.41,NE,46,0.0,1.0,88,0.00,,---,0.00,VWS V14.00,2013-01-28 12:12:00,
2013-01-28 07:13:00,44.1,40.8,30.41,NE,46,2.0,2.0,88,0.00,,---,0.00,VWS V14.00,2013-01-28 12:13:00,
2013-01-28 07:14:00,44.1,40.8,30.41,NE,46,0.0,2.0,88,0.00,,---,0.00,VWS V14.00,2013-01-28 12:14:00,
2013-01-28 07:15:00,44.2,40.9,30.42,NNE,27,0.0,0.0,88,0.00,,---,0.00,VWS V14.00,2013-01-28 12:15:00,
2013-01-28 07:17:00,44.1,40.8,30.41,ENE,65,6.0,7.0,88,0.00,,---,0.00,VWS V14.00,2013-01-28 12:17:00,
2013-01-28 07:18:00,44.1,40.8,30.41,NNE,26,5.0,6.0,88,0.00,,---,0.00,VWS V14.00,2013-01-28 12:18:00,
2013-01-28 07:19:00,44.1,40.8,30.41,NNE,27,0.0,5.0,88,0.00,,---,0.00,VWS V14.00,2013-01-28 12:19:00,
2013-01-28 07:20:00,44.2,41.2,30.42,ENE,60,0.0,0.0,89,0.00,,---,0.00,VWS V14.00,2013-01-28 12:20:00,
2013-01-28 07:21:00,44.2,40.9,30.42,NNE,27,1.0,2.0,88,0.00,,---,0.00,VWS V14.00,2013-01-28 12:21:00,
2013-01-28 07:22:00,44.2,40.9,30.42,NNE,27,0.0,2.0,88,0.00,,---,0.00,VWS V14.00,2013-01-28 12:22:00,
2013-01-28 07:23:00,44.2,40.9,30.42,NNE,27,2.0,2.0,88,0.00,,---,0.00,VWS V14.00,2013-01-28 12:23:00,
2013-01-28 07:24:00,44.2,40.9,30.42,North,5,3.0,4.0,88,0.00,,---,0.00,VWS V14.00,2013-01-28 12:24:00,
2013-01-28 07:25:00,44.3,41.3,30.42,NE,49,0.0,3.0,89,0.00,,---,0.00,VWS V14.00,2013-01-28 12:25:00,
2013-01-28 07:26:00,44.2,41.2,30.42,ENE,60,2.0,2.0,89,0.00,,---,0.00,VWS V14.00,2013-01-28 12:26:00,
2013-01-28 07:27:00,44.2,41.2,30.42,ENE,57,1.0,4.0,89,0.00,,---,0.00,VWS V14.00,2013-01-28 12:27:00,
2013-01-28 07:28:00,44.3,41.3,30.42,ENE,62,0.0,3.0,89,0.00,,---,0.00,VWS V14.00,2013-01-28 12:28:00,
2013-01-28 07:29:00,44.3,41.3,30.42,ENE,62,1.0,1.0,89,0.00,,---,0.00,VWS V14.00,2013-01-28 12:29:00,
2013-01-28 07:30:00,44.4,41.4,30.41,NE,50,0.0,0.0,89,0.00,,---,0.00,VWS V14.00,2013-01-28 12:30:00,
2013-01-28 07:31:00,44.3,41.3,30.42,NE,49,1.0,3.0,89,0.00,,---,0.00,VWS V14.00,2013-01-28 12:31:00,
2013-01-28 07:32:00,44.3,41.3,30.42,NE,49,0.0,2.0,89,0.00,,---,0.00,VWS V14.00,2013-01-28 12:32:00,
2013-01-28 07:33:00,44.4,41.4,30.42,NE,49,0.0,2.0,89,0.00,,---,0.00,VWS V14.00,2013-01-28 12:33:00,
2013-01-28 07:34:00,44.4,41.4,30.41,NE,46,1.0,2.0,89,0.00,,---,0.00,VWS V14.00,2013-01-28 12:34:00,
2013-01-28 07:35:00,44.5,41.5,30.41,ENE,60,1.0,1.0,89,0.00,,---,0.00,VWS V14.00,2013-01-28 12:35:00,
2013-01-28 07:36:00,44.4,41.4,30.41,NE,43,0.0,3.0,89,0.00,,---,0.00,VWS V14.00,2013-01-28 12:36:00,
2013-01-28 07:37:00,44.5,41.5,30.41,ENE,71,0.0,4.0,89,0.00,,---,0.00,VWS V14.00,2013-01-28 12:37:00,
2013-01-28 07:38:00,44.5,41.5,30.41,ENE,71,0.0,2.0,89,0.00,,---,0.00,VWS V14.00,2013-01-28 12:38:00,
2013-01-28 07:39:00,44.5,41.5,30.41,NE,55,2.0,2.0,89,0.00,,---,0.00,VWS V14.00,2013-01-28 12:39:00,
2013-01-28 07:40:00,44.5,41.2,30.42,ENE,61,0.0,0.0,88,0.00,,---,0.00,VWS V14.00,2013-01-28 12:40:00,
2013-01-28 07:41:00,44.5,41.5,30.41,ENE,60,0.0,1.0,89,0.00,,---,0.00,VWS V14.00,2013-01-28 12:41:00,
2013-01-28 07:42:00,44.5,41.5,30.42,ENE,60,0.0,0.0,89,0.00,,---,0.00,VWS V14.00,2013-01-28 12:42:00,
2013-01-28 07:43:00,44.5,41.5,30.42,ENE,60,0.0,1.0,89,0.00,,---,0.00,VWS V14.00,2013-01-28 12:43:00,
2013-01-28 07:44:00,44.5,41.2,30.41,ENE,61,1.0,1.0,88,0.00,,---,0.00,VWS V14.00,2013-01-28 12:44:00,
2013-01-28 07:45:00,44.5,41.2,30.41,ENE,60,1.0,1.0,88,0.00,,---,0.00,VWS V14.00,2013-01-28 12:45:00,
2013-01-28 07:46:00,44.5,41.2,30.42,ENE,60,0.0,0.0,88,0.00,,---,0.00,VWS V14.00,2013-01-28 12:46:00,
2013-01-28 07:47:00,44.5,41.2,30.42,ENE,60,1.0,2.0,88,0.00,,---,0.00,VWS V14.00,2013-01-28 12:47:00,
2013-01-28 07:48:00,44.5,41.2,30.41,ENE,60,0.0,3.0,88,0.00,,---,0.00,VWS V14.00,2013-01-28 12:48:00,
2013-01-28 07:49:00,44.5,41.2,30.41,ENE,61,0.0,1.0,88,0.00,,---,0.00,VWS V14.00,2013-01-28 12:49:00,
2013-01-28 07:50:00,44.4,41.1,30.42,ENE,60,0.0,1.0,88,0.00,,---,0.00,VWS V14.00,2013-01-28 12:50:00,
2013-01-28 07:51:00,44.5,41.2,30.41,ENE,60,1.0,2.0,88,0.00,,---,0.00,VWS V14.00,2013-01-28 12:51:00,
2013-01-28 07:52:00,44.5,41.2,30.41,ENE,60,0.0,2.0,88,0.00,,---,0.00,VWS V14.00,2013-01-28 12:52:00,
2013-01-28 07:53:00,44.4,41.1,30.41,ENE,60,0.0,2.0,88,0.00,,---,0.00,VWS V14.00,2013-01-28 12:53:00,
2013-01-28 07:54:00,44.4,41.1,30.41,ENE,60,0.0,0.0,88,0.00,,---,0.00,VWS V14.00,2013-01-28 12:54:00,
2013-01-28 07:55:00,44.4,40.8,30.41,ENE,60,0.0,1.0,87,0.00,,---,0.00,VWS V14.00,2013-01-28 12:55:00,
2013-01-28 07:56:00,44.4,41.1,30.42,ENE,60,0.0,1.0,88,0.00,,---,0.00,VWS V14.00,2013-01-28 12:56:00,
2013-01-28 07:57:00,44.4,41.1,30.41,ENE,60,0.0,1.0,88,0.00,,---,0.00,VWS V14.00,2013-01-28 12:57:00,
2013-01-28 07:58:00,44.4,41.1,30.41,ENE,60,0.0,2.0,88,0.00,,---,0.00,VWS V14.00,2013-01-28 12:58:00,
2013-01-28 07:59:00,44.4,40.8,30.41,ENE,60,0.0,3.0,87,0.00,,---,0.00,VWS V14.00,2013-01-28 12:59:00,
2013-01-28 08:00:00,44.4,41.1,30.41,ENE,61,0.0,2.0,88,0.00,,---,0.00,VWS V14.00,2013-01-28 13:00:00,
2013-01-28 08:01:00,44.4,40.8,30.41,ENE,60,0.0,1.0,87,0.00,,---,0.00,VWS V14.00,2013-01-28 13:01:00,
2013-01-28 08:02:00,44.4,40.8,30.41,ENE,60,0.0,1.0,87,0.00,,---,0.00,VWS V14.00,2013-01-28 13:02:00,
2013-01-28 08:03:00,44.4,40.8,30.41,ENE,59,3.0,3.0,87,0.00,,---,0.00,VWS V14.00,2013-01-28 13:03:00,
2013-01-28 08:04:00,44.4,40.8,30.41,ENE,59,0.0,3.0,87,0.00,,---,0.00,VWS V14.00,2013-01-28 13:04:00,
2013-01-28 08:05:00,44.5,41.2,30.41,NE,50,0.0,0.0,88,0.00,,---,0.00,VWS V14.00,2013-01-28 13:05:00,
2013-01-28 08:06:00,44.4,41.1,30.41,ENE,61,1.0,2.0,88,0.00,,---,0.00,VWS V14.00,2013-01-28 13:06:00,
2013-01-28 08:07:00,44.4,41.1,30.41,NE,42,2.0,4.0,88,0.00,,---,0.00,VWS V14.00,2013-01-28 13:07:00,
2013-01-28 08:08:00,44.4,41.1,30.41,NE,49,0.0,3.0,88,0.00,,---,0.00,VWS V14.00,2013-01-28 13:08:00,
2013-01-28 08:09:00,44.4,41.1,30.41,NE,50,0.0,3.0,88,0.00,,---,0.00,VWS V14.00,2013-01-28 13:09:00,
2013-01-28 08:10:00,44.5,41.2,30.42,NE,50,0.0,0.0,88,0.00,,---,0.00,VWS V14.00,2013-01-28 13:10:00,
2013-01-28 08:11:00,44.5,41.2,30.41,NE,50,0.0,0.0,88,0.00,,---,0.00,VWS V14.00,2013-01-28 13:11:00,
2013-01-28 08:12:00,44.5,41.2,30.41,NE,50,0.0,1.0,88,0.00,,---,0.00,VWS V14.00,2013-01-28 13:12:00,
2013-01-28 08:13:00,44.5,41.2,30.41,NE,50,0.0,1.0,88,0.00,,---,0.00,VWS V14.00,2013-01-28 13:13:00,
2013-01-28 08:14:00,44.5,41.2,30.42,NE,50,0.0,1.0,88,0.00,,---,0.00,VWS V14.00,2013-01-28 13:14:00,
2013-01-28 08:15:00,44.5,41.2,30.41,ENE,69,1.0,2.0,88,0.00,,---,0.00,VWS V14.00,2013-01-28 13:15:00,
2013-01-28 08:16:00,44.5,41.2,30.42,NE,50,0.0,0.0,88,0.00,,---,0.00,VWS V14.00,2013-01-28 13:16:00,
2013-01-28 08:17:00,44.5,41.2,30.42,ENE,63,1.0,3.0,88,0.00,,---,0.00,VWS V14.00,2013-01-28 13:17:00,
2013-01-28 08:18:00,44.5,41.2,30.41,ENE,63,0.0,1.0,88,0.00,,---,0.00,VWS V14.00,2013-01-28 13:18:00,
2013-01-28 08:19:00,44.5,41.2,30.41,ENE,61,2.0,2.0,88,0.00,,---,0.00,VWS V14.00,2013-01-28 13:19:00,
2013-01-28 08:20:00,44.6,42.4,30.41,ENE,76,0.0,1.0,92,0.00,,---,0.00,VWS V14.00,2013-01-28 13:20:00,
2013-01-28 08:21:00,44.5,41.2,30.41,NE,49,0.0,3.0,88,0.00,,---,0.00,VWS V14.00,2013-01-28 13:21:00,
2013-01-28 08:22:00,44.6,41.3,30.41,ENE,71,0.0,2.0,88,0.00,,---,0.00,VWS V14.00,2013-01-28 13:22:00,
2013-01-28 08:23:00,44.6,41.3,30.41,NE,51,3.0,4.0,88,0.00,,---,0.00,VWS V14.00,2013-01-28 13:23:00,
2013-01-28 08:24:00,44.6,41.3,30.41,ENE,63,0.0,4.0,88,0.00,,---,0.00,VWS V14.00,2013-01-28 13:24:00,
2013-01-28 08:25:00,44.7,41.4,30.41,ENE,65,3.0,3.0,88,0.00,,---,0.00,VWS V14.00,2013-01-28 13:25:00,
2013-01-28 08:26:00,44.6,42.4,30.41,ENE,76,1.0,1.0,92,0.00,,---,0.00,VWS V14.00,2013-01-28 13:26:00,
2013-01-28 08:27:00,44.7,41.4,30.41,ENE,59,0.0,2.0,88,0.00,,---,0.00,VWS V14.00,2013-01-28 13:27:00,
2013-01-28 08:28:00,44.7,41.4,30.41,NE,39,1.0,3.0,88,0.00,,---,0.00,VWS V14.00,2013-01-28 13:28:00,
2013-01-28 08:29:00,44.7,41.4,30.41,ENE,69,4.0,4.0,88,0.00,,---,0.00,VWS V14.00,2013-01-28 13:29:00,
2013-01-28 08:30:00,44.7,41.4,30.41,ENE,57,2.0,3.0,88,0.00,,---,0.00,VWS V14.00,2013-01-28 13:30:00,
2013-01-28 08:31:00,44.7,41.4,30.41,ENE,67,1.0,3.0,88,0.00,,---,0.00,VWS V14.00,2013-01-28 13:31:00,
2013-01-28 08:32:00,44.7,41.4,30.41,ENE,63,2.0,3.0,88,0.00,,---,0.00,VWS V14.00,2013-01-28 13:32:00,
2013-01-28 08:33:00,44.7,41.4,30.41,NNE,28,0.0,2.0,88,0.00,,---,0.00,VWS V14.00,2013-01-28 13:33:00,
2013-01-28 08:34:00,44.7,41.4,30.41,NNE,28,0.0,2.0,88,0.00,,---,0.00,VWS V14.00,2013-01-28 13:34:00,
2013-01-28 08:35:00,44.8,41.5,30.41,NE,55,0.0,2.0,88,0.00,,---,0.00,VWS V14.00,2013-01-28 13:35:00,
2013-01-28 08:36:00,44.8,41.5,30.41,NE,54,2.0,3.0,88,0.00,,---,0.00,VWS V14.00,2013-01-28 13:36:00,
2013-01-28 08:37:00,44.8,41.5,30.41,NE,54,0.0,2.0,88,0.00,,---,0.00,VWS V14.00,2013-01-28 13:37:00,
2013-01-28 08:38:00,44.8,41.5,30.41,NE,54,0.0,1.0,88,0.00,,---,0.00,VWS V14.00,2013-01-28 13:38:00,
2013-01-28 08:39:00,44.8,41.5,30.41,NE,55,0.0,3.0,88,0.00,,---,0.00,VWS V14.00,2013-01-28 13:39:00,
2013-01-28 08:40:00,44.9,41.6,30.41,ENE,67,1.0,2.0,88,0.00,,---,0.00,VWS V14.00,2013-01-28 13:40:00,
2013-01-28 08:41:00,44.8,41.5,30.41,NE,55,0.0,2.0,88,0.00,,---,0.00,VWS V14.00,2013-01-28 13:41:00,
2013-01-28 08:42:00,44.8,41.2,30.41,NE,55,0.0,2.0,87,0.00,,---,0.00,VWS V14.00,2013-01-28 13:42:00,
2013-01-28 08:43:00,44.9,41.3,30.41,NE,55,0.0,0.0,87,0.00,,---,0.00,VWS V14.00,2013-01-28 13:43:00,
2013-01-28 08:45:00,44.9,41.3,30.41,ENE,59,0.0,1.0,87,0.00,,---,0.00,VWS V14.00,2013-01-28 13:45:00,
2013-01-28 08:46:00,44.9,41.3,30.41,ENE,75,3.0,3.0,87,0.00,,---,0.00,VWS V14.00,2013-01-28 13:46:00,
2013-01-28 08:47:00,44.9,41.3,30.41,ENE,72,0.0,4.0,87,0.00,,---,0.00,VWS V14.00,2013-01-28 13:47:00,
2013-01-28 08:48:00,44.9,41.3,30.41,ENE,59,2.0,2.0,87,0.00,,---,0.00,VWS V14.00,2013-01-28 13:48:00,
2013-01-28 08:49:00,44.9,41.3,30.41,NE,40,3.0,3.0,87,0.00,,---,0.00,VWS V14.00,2013-01-28 13:49:00,
2013-01-28 08:50:00,45.0,41.4,30.41,NE,50,0.0,2.0,87,0.00,,---,0.00,VWS V14.00,2013-01-28 13:50:00,
2013-01-28 08:51:00,44.9,41.3,30.41,ENE,59,0.0,1.0,87,0.00,,---,0.00,VWS V14.00,2013-01-28 13:51:00,
2013-01-28 08:52:00,45.0,41.4,30.41,ENE,59,0.0,0.0,87,0.00,,---,0.00,VWS V14.00,2013-01-28 13:52:00,
2013-01-28 08:53:00,45.0,41.4,30.41,ENE,59,0.0,0.0,87,0.00,,---,0.00,VWS V14.00,2013-01-28 13:53:00,
2013-01-28 08:54:00,45.0,41.4,30.41,ENE,59,0.0,0.0,87,0.00,,---,0.00,VWS V14.00,2013-01-28 13:54:00,
2013-01-28 08:55:00,45.1,41.5,30.41,NE,35,2.0,2.0,87,0.00,,---,0.00,VWS V14.00,2013-01-28 13:55:00,
2013-01-28 08:56:00,45.0,41.4,30.41,NE,50,0.0,2.0,87,0.00,,---,0.00,VWS V14.00,2013-01-28 13:56:00,
2013-01-28 08:57:00,45.1,41.5,30.41,NE,49,2.0,2.0,87,0.00,,---,0.00,VWS V14.00,2013-01-28 13:57:00,
2013-01-28 08:58:00,45.1,41.5,30.41,ENE,60,1.0,3.0,87,0.00,,---,0.00,VWS V14.00,2013-01-28 13:58:00,
2013-01-28 08:59:00,45.1,41.5,30.41,NNE,27,0.0,5.0,87,0.00,,---,0.00,VWS V14.00,2013-01-28 13:59:00,
2013-01-28 09:00:00,45.2,41.6,30.41,ENE,69,2.0,4.0,87,0.00,,---,0.00,VWS V14.00,2013-01-28 14:00:00,
2013-01-28 09:01:00,45.1,41.5,30.41,NE,34,0.0,2.0,87,0.00,,---,0.00,VWS V14.00,2013-01-28 14:01:00,
2013-01-28 09:02:00,45.1,41.5,30.41,NE,34,2.0,2.0,87,0.00,,---,0.00,VWS V14.00,2013-01-28 14:02:00,
2013-01-28 09:03:00,45.1,41.5,30.41,NE,53,2.0,5.0,87,0.00,,---,0.00,VWS V14.00,2013-01-28 14:03:00,
2013-01-28 09:04:00,45.1,41.5,30.41,ENE,59,3.0,4.0,87,0.00,,---,0.00,VWS V14.00,2013-01-28 14:04:00,
2013-01-28 09:05:00,45.2,41.6,30.41,NE,47,2.0,2.0,87,0.00,,---,0.00,VWS V14.00,2013-01-28 14:05:00,
2013-01-28 09:06:00,45.2,41.6,30.41,ENE,68,2.0,4.0,87,0.00,,---,0.00,VWS V14.00,2013-01-28 14:06:00,
2013-01-28 09:07:00,45.2,41.6,30.41,NNE,26,2.0,4.0,87,0.00,,---,0.00,VWS V14.00,2013-01-28 14:07:00,
2013-01-28 09:08:00,45.2,41.6,30.41,ENE,69,1.0,5.0,87,0.00,,---,0.00,VWS V14.00,2013-01-28 14:08:00,
2013-01-28 09:09:00,45.2,41.6,30.41,ENE,67,0.0,1.0,87,0.00,,---,0.00,VWS V14.00,2013-01-28 14:09:00,
2013-01-28 09:10:00,45.3,41.7,30.42,NE,48,1.0,3.0,87,0.00,,---,0.00,VWS V14.00,2013-01-28 14:10:00,
2013-01-28 09:11:00,45.2,41.6,30.41,NE,47,0.0,2.0,87,0.00,,---,0.00,VWS V14.00,2013-01-28 14:11:00,
2013-01-28 09:12:00,45.2,41.6,30.41,NE,47,0.0,2.0,87,0.00,,---,0.00,VWS V14.00,2013-01-28 14:12:00,
2013-01-28 09:13:00,45.2,41.6,30.41,NE,47,0.0,1.0,87,0.00,,---,0.00,VWS V14.00,2013-01-28 14:13:00,
2013-01-28 09:14:00,45.2,41.6,30.41,NE,48,0.0,3.0,87,0.00,,---,0.00,VWS V14.00,2013-01-28 14:14:00,
2013-01-28 09:15:00,45.4,41.8,30.42,NE,35,2.0,2.0,87,0.00,,---,0.00,VWS V14.00,2013-01-28 14:15:00,
2013-01-28 09:16:00,45.3,41.7,30.42,NE,48,0.0,3.0,87,0.00,,---,0.00,VWS V14.00,2013-01-28 14:16:00,
2013-01-28 09:17:00,45.3,41.7,30.42,NE,48,0.0,3.0,87,0.00,,---,0.00,VWS V14.00,2013-01-28 14:17:00,
2013-01-28 09:18:00,45.3,41.7,30.42,North,360,2.0,3.0,87,0.00,,---,0.00,VWS V14.00,2013-01-28 14:18:00,
2013-01-28 09:19:00,45.3,41.7,30.42,North,5,0.0,2.0,87,0.00,,---,0.00,VWS V14.00,2013-01-28 14:19:00,
2013-01-28 09:20:00,45.5,41.9,30.42,NE,42,1.0,3.0,87,0.00,,---,0.00,VWS V14.00,2013-01-28 14:20:00,
2013-01-28 09:21:00,45.4,41.8,30.42,NE,35,0.0,2.0,87,0.00,,---,0.00,VWS V14.00,2013-01-28 14:21:00,
2013-01-28 09:22:00,45.4,41.8,30.42,NE,42,2.0,2.0,87,0.00,,---,0.00,VWS V14.00,2013-01-28 14:22:00,
2013-01-28 09:23:00,45.4,41.8,30.42,NE,42,0.0,2.0,87,0.00,,---,0.00,VWS V14.00,2013-01-28 14:23:00,
2013-01-28 09:24:00,45.4,41.8,30.42,NE,42,0.0,0.0,87,0.00,,---,0.00,VWS V14.00,2013-01-28 14:24:00,
2013-01-28 09:25:00,45.5,41.9,30.42,East,82,2.0,4.0,87,0.00,,---,0.00,VWS V14.00,2013-01-28 14:25:00,
2013-01-28 09:26:00,45.5,41.9,30.42,NE,44,2.0,3.0,87,0.00,,---,0.00,VWS V14.00,2013-01-28 14:26:00,
2013-01-28 09:27:00,45.5,41.9,30.42,NE,46,1.0,2.0,87,0.00,,---,0.00,VWS V14.00,2013-01-28 14:27:00,
2013-01-28 09:28:00,45.5,41.9,30.42,NE,46,0.0,2.0,87,0.00,,---,0.00,VWS V14.00,2013-01-28 14:28:00,
2013-01-28 09:29:00,45.5,41.9,30.42,NE,46,0.0,0.0,87,0.00,,---,0.00,VWS V14.00,2013-01-28 14:29:00,
2013-01-28 09:30:00,45.6,42.0,30.42,NNE,17,0.0,1.0,87,0.00,,---,0.00,VWS V14.00,2013-01-28 14:30:00,
2013-01-28 09:31:00,45.5,41.9,30.42,East,82,1.0,4.0,87,0.00,,---,0.00,VWS V14.00,2013-01-28 14:31:00,
2013-01-28 09:32:00,45.6,42.0,30.43,East,82,0.0,1.0,87,0.00,,---,0.00,VWS V14.00,2013-01-28 14:32:00,
2013-01-28 09:33:00,45.6,42.0,30.42,East,82,0.0,0.0,87,0.00,,---,0.00,VWS V14.00,2013-01-28 14:33:00,
2013-01-28 09:34:00,45.6,42.0,30.43,East,80,1.0,1.0,87,0.00,,---,0.00,VWS V14.00,2013-01-28 14:34:00,
2013-01-28 09:35:00,45.6,42.0,30.43,ENE,57,1.0,3.0,87,0.00,,---,0.00,VWS V14.00,2013-01-28 14:35:00,
2013-01-28 09:36:00,45.6,42.0,30.42,NNE,17,1.0,1.0,87,0.00,,---,0.00,VWS V14.00,2013-01-28 14:36:00,
2013-01-28 09:37:00,45.6,42.0,30.43,NNE,17,0.0,1.0,87,0.00,,---,0.00,VWS V14.00,2013-01-28 14:37:00,
2013-01-28 09:38:00,45.6,42.0,30.43,NNE,17,0.0,1.0,87,0.00,,---,0.00,VWS V14.00,2013-01-28 14:38:00,
2013-01-28 09:39:00,45.6,42.0,30.43,NNE,19,2.0,2.0,87,0.00,,---,0.00,VWS V14.00,2013-01-28 14:39:00,
2013-01-28 09:40:00,45.6,41.7,30.43,North,5,1.0,1.0,86,0.00,,---,0.00,VWS V14.00,2013-01-28 14:40:00,
2013-01-28 09:41:00,45.6,42.0,30.43,ENE,57,0.0,3.0,87,0.00,,---,0.00,VWS V14.00,2013-01-28 14:41:00,
2013-01-28 09:42:00,45.6,41.7,30.42,ENE,57,0.0,1.0,86,0.00,,---,0.00,VWS V14.00,2013-01-28 14:42:00,
2013-01-28 09:43:00,45.6,41.7,30.43,North,5,0.0,2.0,86,0.00,,---,0.00,VWS V14.00,2013-01-28 14:43:00,
2013-01-28 09:44:00,45.6,41.7,30.43,North,5,0.0,0.0,86,0.00,,---,0.00,VWS V14.00,2013-01-28 14:44:00,
2013-01-28 09:45:00,45.6,41.7,30.43,NE,50,3.0,4.0,86,0.00,,---,0.00,VWS V14.00,2013-01-28 14:45:00,
2013-01-28 09:46:00,45.6,41.7,30.43,North,5,0.0,1.0,86,0.00,,---,0.00,VWS V14.00,2013-01-28 14:46:00,
2013-01-28 09:47:00,45.6,41.7,30.42,North,5,0.0,2.0,86,0.00,,---,0.00,VWS V14.00,2013-01-28 14:47:00,
2013-01-28 09:48:00,45.6,41.7,30.43,NNE,26,0.0,1.0,86,0.00,,---,0.00,VWS V14.00,2013-01-28 14:48:00,
2013-01-28 09:49:00,45.6,41.7,30.43,NNE,20,0.0,1.0,86,0.00,,---,0.00,VWS V14.00,2013-01-28 14:49:00,
2013-01-28 09:50:00,45.6,41.7,30.43,NE,41,0.0,1.0,86,0.00,,---,0.00,VWS V14.00,2013-01-28 14:50:00,
2013-01-28 09:51:00,45.6,41.7,30.43,NE,54,1.0,4.0,86,0.00,,---,0.00,VWS V14.00,2013-01-28 14:51:00,
2013-01-28 09:52:00,45.6,41.7,30.42,NE,45,3.0,3.0,86,0.00,,---,0.00,VWS V14.00,2013-01-28 14:52:00,
2013-01-28 09:53:00,45.7,41.8,30.42,NE,40,2.0,4.0,86,0.00,,---,0.00,VWS V14.00,2013-01-28 14:53:00,
2013-01-28 09:54:00,45.7,41.8,30.42,ENE,62,0.0,4.0,86,0.00,,---,0.00,VWS V14.00,2013-01-28 14:54:00,
2013-01-28 09:55:00,45.7,41.8,30.42,NE,41,0.0,2.0,86,0.00,,---,0.00,VWS V14.00,2013-01-28 14:55:00,
2013-01-28 09:56:00,45.6,41.7,30.43,NE,41,1.0,2.0,86,0.00,,---,0.00,VWS V14.00,2013-01-28 14:56:00,
2013-01-28 09:57:00,45.7,41.8,30.43,NE,41,1.0,1.0,86,0.00,,---,0.00,VWS V14.00,2013-01-28 14:57:00,
2013-01-28 09:58:00,45.7,41.8,30.42,NE,41,0.0,3.0,86,0.00,,---,0.00,VWS V14.00,2013-01-28 14:58:00,
2013-01-28 09:59:00,45.7,41.8,30.42,NE,41,2.0,2.0,86,0.00,,---,0.00,VWS V14.00,2013-01-28 14:59:00,
2013-01-28 10:00:00,45.8,41.9,30.43,NE,45,1.0,3.0,86,0.00,,---,0.00,VWS V14.00,2013-01-28 15:00:00,
2013-01-28 10:01:00,45.7,41.8,30.42,NE,41,0.0,2.0,86,0.00,,---,0.00,VWS V14.00,2013-01-28 15:01:00,
2013-01-28 10:02:00,45.7,41.8,30.43,NE,41,0.0,0.0,86,0.00,,---,0.00,VWS V14.00,2013-01-28 15:02:00,
2013-01-28 10:03:00,45.8,41.9,30.42,East,85,1.0,3.0,86,0.00,,---,0.00,VWS V14.00,2013-01-28 15:03:00,
2013-01-28 10:04:00,45.8,41.9,30.43,ENE,65,0.0,3.0,86,0.00,,---,0.00,VWS V14.00,2013-01-28 15:04:00,
2013-01-28 10:05:00,45.9,42.0,30.43,NE,55,0.0,1.0,86,0.00,,---,0.00,VWS V14.00,2013-01-28 15:05:00,
2013-01-28 10:06:00,45.8,41.9,30.43,ENE,57,3.0,4.0,86,0.00,,---,0.00,VWS V14.00,2013-01-28 15:06:00,
2013-01-28 10:07:00,45.8,41.9,30.43,ENE,57,1.0,4.0,86,0.00,,---,0.00,VWS V14.00,2013-01-28 15:07:00,
2013-01-28 10:08:00,45.8,41.9,30.43,NE,55,1.0,3.0,86,0.00,,---,0.00,VWS V14.00,2013-01-28 15:08:00,
2013-01-28 10:09:00,45.8,41.9,30.43,NE,55,0.0,2.0,86,0.00,,---,0.00,VWS V14.00,2013-01-28 15:09:00,
2013-01-28 10:10:00,46.0,42.0,30.43,NE,55,0.0,0.0,86,0.00,,---,0.00,VWS V14.00,2013-01-28 15:10:00,
2013-01-28 10:11:00,45.9,42.0,30.43,NE,55,0.0,1.0,86,0.00,,---,0.00,VWS V14.00,2013-01-28 15:11:00,
2013-01-28 10:12:00,45.9,42.0,30.43,NE,55,0.0,0.0,86,0.00,,---,0.00,VWS V14.00,2013-01-28 15:12:00,
2013-01-28 10:13:00,45.9,42.0,30.43,NE,55,0.0,0.0,86,0.00,,---,0.00,VWS V14.00,2013-01-28 15:13:00,
2013-01-28 10:14:00,45.9,42.0,30.43,NE,55,0.0,1.0,86,0.00,,---,0.00,VWS V14.00,2013-01-28 15:14:00,
2013-01-28 10:15:00,46.0,42.0,30.43,NE,49,0.0,1.0,86,0.00,,---,0.00,VWS V14.00,2013-01-28 15:15:00,
2013-01-28 10:16:00,46.0,42.0,30.43,NE,55,0.0,1.0,86,0.00,,---,0.00,VWS V14.00,2013-01-28 15:16:00,
2013-01-28 10:17:00,46.0,42.0,30.43,NE,55,0.0,0.0,86,0.00,,---,0.00,VWS V14.00,2013-01-28 15:17:00,
2013-01-28 10:18:00,46.0,42.0,30.43,NE,55,0.0,0.0,86,0.00,,---,0.00,VWS V14.00,2013-01-28 15:18:00,
2013-01-28 10:19:00,46.0,42.0,30.43,NNE,16,0.0,1.0,86,0.00,,---,0.00,VWS V14.00,2013-01-28 15:19:00,
2013-01-28 10:20:00,46.1,42.2,30.43,East,79,0.0,0.0,86,0.00,,---,0.00,VWS V14.00,2013-01-28 15:20:00,
2013-01-28 10:21:00,46.0,42.0,30.43,NE,49,0.0,1.0,86,0.00,,---,0.00,VWS V14.00,2013-01-28 15:21:00,
2013-01-28 10:22:00,46.1,42.2,30.43,NE,49,1.0,1.0,86,0.00,,---,0.00,VWS V14.00,2013-01-28 15:22:00,
2013-01-28 10:23:00,46.1,42.2,30.43,NE,49,0.0,1.0,86,0.00,,---,0.00,VWS V14.00,2013-01-28 15:23:00,
2013-01-28 10:24:00,46.1,42.2,30.43,East,84,1.0,4.0,86,0.00,,---,0.00,VWS V14.00,2013-01-28 15:24:00,
2013-01-28 10:25:00,46.3,42.3,30.43,ENE,74,0.0,2.0,86,0.00,,---,0.00,VWS V14.00,2013-01-28 15:25:00,
2013-01-28 10:26:00,46.1,42.2,30.43,East,79,0.0,1.0,86,0.00,,---,0.00,VWS V14.00,2013-01-28 15:26:00,
2013-01-28 10:27:00,46.2,42.2,30.43,ENE,78,0.0,0.0,86,0.00,,---,0.00,VWS V14.00,2013-01-28 15:27:00,
2013-01-28 10:28:00,46.2,42.2,30.43,East,79,0.0,1.0,86,0.00,,---,0.00,VWS V14.00,2013-01-28 15:28:00,
2013-01-28 10:29:00,46.2,42.2,30.43,ENE,74,1.0,2.0,86,0.00,,---,0.00,VWS V14.00,2013-01-28 15:29:00,
2013-01-28 10:30:00,46.3,42.3,30.43,NE,52,1.0,1.0,86,0.00,,---,0.00,VWS V14.00,2013-01-28 15:30:00,
2013-01-28 10:31:00,46.3,42.3,30.43,ENE,74,0.0,2.0,86,0.00,,---,0.00,VWS V14.00,2013-01-28 15:31:00,
2013-01-28 10:32:00,46.3,42.3,30.43,NE,52,0.0,2.0,86,0.00,,---,0.00,VWS V14.00,2013-01-28 15:32:00,
2013-01-28 10:33:00,46.3,42.3,30.43,NE,52,0.0,2.0,86,0.00,,---,0.00,VWS V14.00,2013-01-28 15:33:00,
2013-01-28 10:34:00,46.3,42.3,30.43,NE,52,0.0,1.0,86,0.00,,---,0.00,VWS V14.00,2013-01-28 15:34:00,
2013-01-28 10:35:00,46.4,42.5,30.43,NE,52,0.0,0.0,86,0.00,,---,0.00,VWS V14.00,2013-01-28 15:35:00,
2013-01-28 10:36:00,46.3,42.3,30.43,NE,52,0.0,2.0,86,0.00,,---,0.00,VWS V14.00,2013-01-28 15:36:00,
2013-01-28 10:37:00,46.4,42.5,30.43,NE,52,0.0,1.0,86,0.00,,---,0.00,VWS V14.00,2013-01-28 15:37:00,
2013-01-28 10:38:00,46.4,42.5,30.43,NE,52,0.0,1.0,86,0.00,,---,0.00,VWS V14.00,2013-01-28 15:38:00,
2013-01-28 10:39:00,46.4,42.5,30.43,NE,52,0.0,0.0,86,0.00,,---,0.00,VWS V14.00,2013-01-28 15:39:00,
2013-01-28 10:40:00,46.6,42.6,30.42,NE,51,2.0,2.0,86,0.00,,---,0.00,VWS V14.00,2013-01-28 15:40:00,
2013-01-28 10:41:00,46.4,42.5,30.43,NE,52,0.0,0.0,86,0.00,,---,0.00,VWS V14.00,2013-01-28 15:41:00,
2013-01-28 10:42:00,46.5,42.5,30.43,NE,52,1.0,2.0,86,0.00,,---,0.00,VWS V14.00,2013-01-28 15:42:00,
2013-01-28 10:43:00,46.5,42.5,30.42,North,355,2.0,4.0,86,0.00,,---,0.00,VWS V14.00,2013-01-28 15:43:00,
2013-01-28 10:44:00,46.5,42.5,30.42,NNE,33,1.0,2.0,86,0.00,,---,0.00,VWS V14.00,2013-01-28 15:44:00,
2013-01-28 10:45:00,46.8,42.8,30.42,ENE,63,0.0,2.0,86,0.00,,---,0.00,VWS V14.00,2013-01-28 15:45:00,
2013-01-28 10:46:00,46.6,42.6,30.42,NE,51,1.0,2.0,86,0.00,,---,0.00,VWS V14.00,2013-01-28 15:46:00,
2013-01-28 10:47:00,46.7,42.7,30.42,NE,51,1.0,1.0,86,0.00,,---,0.00,VWS V14.00,2013-01-28 15:47:00,
2013-01-28 10:48:00,46.7,42.7,30.42,NNE,28,4.0,4.0,86,0.00,,---,0.00,VWS V14.00,2013-01-28 15:48:00,
2013-01-28 10:49:00,46.8,42.8,30.42,ENE,75,5.0,5.0,86,0.00,,---,0.00,VWS V14.00,2013-01-28 15:49:00,
2013-01-28 10:50:00,47.0,42.7,30.42,NE,56,1.0,2.0,85,0.00,,---,0.00,VWS V14.00,2013-01-28 15:50:00,
2013-01-28 10:51:00,46.8,42.8,30.42,NE,55,1.0,2.0,86,0.00,,---,0.00,VWS V14.00,2013-01-28 15:51:00,
2013-01-28 10:52:00,46.9,42.9,30.42,NE,56,2.0,3.0,86,0.00,,---,0.00,VWS V14.00,2013-01-28 15:52:00,
2013-01-28 10:53:00,46.9,42.6,30.42,NE,56,0.0,2.0,85,0.00,,---,0.00,VWS V14.00,2013-01-28 15:53:00,
2013-01-28 10:54:00,47.0,42.7,30.42,NE,56,0.0,2.0,85,0.00,,---,0.00,VWS V14.00,2013-01-28 15:54:00,
2013-01-28 10:55:00,47.2,42.9,30.42,ENE,63,0.0,1.0,85,0.00,,---,0.00,VWS V14.00,2013-01-28 15:55:00,
2013-01-28 10:56:00,47.0,42.7,30.42,NE,37,1.0,4.0,85,0.00,,---,0.00,VWS V14.00,2013-01-28 15:56:00,
2013-01-28 10:57:00,47.1,42.8,30.42,NE,46,3.0,3.0,85,0.00,,---,0.00,VWS V14.00,2013-01-28 15:57:00,
2013-01-28 10:58:00,47.1,43.1,30.42,NE,46,2.0,3.0,86,0.00,,---,0.00,VWS V14.00,2013-01-28 15:58:00,
2013-01-28 10:59:00,47.2,42.9,30.42,ENE,63,2.0,3.0,85,0.00,,---,0.00,VWS V14.00,2013-01-28 15:59:00,
2013-01-28 11:00:00,47.5,43.5,30.42,NE,56,0.0,3.0,86,0.00,,---,0.00,VWS V14.00,2013-01-28 16:00:00,
2013-01-28 11:01:00,47.3,43.3,30.42,ENE,63,0.0,1.0,86,0.00,,---,0.00,VWS V14.00,2013-01-28 16:01:00,
2013-01-28 11:02:00,47.3,43.3,30.42,ENE,63,0.0,1.0,86,0.00,,---,0.00,VWS V14.00,2013-01-28 16:02:00,
2013-01-28 11:03:00,47.4,43.4,30.42,ENE,63,0.0,1.0,86,0.00,,---,0.00,VWS V14.00,2013-01-28 16:03:00,
2013-01-28 11:04:00,47.4,43.4,30.42,ENE,63,0.0,1.0,86,0.00,,---,0.00,VWS V14.00,2013-01-28 16:04:00,
2013-01-28 11:05:00,47.8,43.8,30.42,NE,40,0.0,0.0,86,0.00,,---,0.00,VWS V14.00,2013-01-28 16:05:00,
2013-01-28 11:06:00,47.5,43.5,30.42,ENE,58,1.0,3.0,86,0.00,,---,0.00,VWS V14.00,2013-01-28 16:06:00,
2013-01-28 11:07:00,47.6,43.6,30.42,ENE,62,0.0,2.0,86,0.00,,---,0.00,VWS V14.00,2013-01-28 16:07:00,
2013-01-28 11:08:00,47.7,43.7,30.42,NE,40,1.0,3.0,86,0.00,,---,0.00,VWS V14.00,2013-01-28 16:08:00,
2013-01-28 11:09:00,47.7,43.7,30.42,NE,40,0.0,2.0,86,0.00,,---,0.00,VWS V14.00,2013-01-28 16:09:00,
2013-01-28 11:10:00,48.1,44.1,30.42,North,355,0.0,1.0,86,0.00,,---,0.00,VWS V14.00,2013-01-28 16:10:00,
2013-01-28 11:11:00,47.8,43.8,30.42,NE,40,1.0,1.0,86,0.00,,---,0.00,VWS V14.00,2013-01-28 16:11:00,
2013-01-28 11:12:00,47.9,43.9,30.42,NE,42,0.0,3.0,86,0.00,,---,0.00,VWS V14.00,2013-01-28 16:12:00,
2013-01-28 11:13:00,47.9,43.9,30.42,NE,52,0.0,3.0,86,0.00,,---,0.00,VWS V14.00,2013-01-28 16:13:00,
2013-01-28 11:14:00,48.0,44.0,30.42,North,355,0.0,4.0,86,0.00,,---,0.00,VWS V14.00,2013-01-28 16:14:00,
2013-01-28 11:15:00,48.4,44.4,30.42,NE,36,0.0,1.0,86,0.00,,---,0.00,VWS V14.00,2013-01-28 16:15:00,
2013-01-28 11:16:00,48.1,44.1,30.42,North,355,0.0,1.0,86,0.00,,---,0.00,VWS V14.00,2013-01-28 16:16:00,
2013-01-28 11:17:00,48.1,44.1,30.42,North,355,0.0,0.0,86,0.00,,---,0.00,VWS V14.00,2013-01-28 16:17:00,
2013-01-28 11:18:00,48.2,44.2,30.42,NNE,33,0.0,2.0,86,0.00,,---,0.00,VWS V14.00,2013-01-28 16:18:00,
2013-01-28 11:19:00,48.3,44.3,30.42,NNE,33,0.0,0.0,86,0.00,,---,0.00,VWS V14.00,2013-01-28 16:19:00,
2013-01-28 11:20:00,48.9,44.9,30.41,ENE,62,3.0,4.0,86,0.00,,---,0.00,VWS V14.00,2013-01-28 16:20:00,
2013-01-28 11:21:00,48.5,44.5,30.42,NE,50,0.0,2.0,86,0.00,,---,0.00,VWS V14.00,2013-01-28 16:21:00,
2013-01-28 11:22:00,48.6,44.6,30.42,NE,50,1.0,1.0,86,0.00,,---,0.00,VWS V14.00,2013-01-28 16:22:00,
2013-01-28 11:23:00,48.7,44.7,30.41,NE,43,2.0,3.0,86,0.00,,---,0.00,VWS V14.00,2013-01-28 16:23:00,
2013-01-28 11:24:00,48.8,44.8,30.41,NE,46,1.0,2.0,86,0.00,,---,0.00,VWS V14.00,2013-01-28 16:24:00,
2013-01-28 11:25:00,49.4,45.1,30.41,ENE,67,0.0,0.0,85,0.00,,---,0.00,VWS V14.00,2013-01-28 16:25:00,
2013-01-28 11:26:00,49.0,45.0,30.41,ENE,67,0.0,4.0,86,0.00,,---,0.00,VWS V14.00,2013-01-28 16:26:00,
2013-01-28 11:27:00,49.1,44.8,30.41,ENE,67,0.0,2.0,85,0.00,,---,0.00,VWS V14.00,2013-01-28 16:27:00,
2013-01-28 11:28:00,49.2,44.9,30.41,ENE,67,0.0,0.0,85,0.00,,---,0.00,VWS V14.00,2013-01-28 16:28:00,
2013-01-28 11:29:00,49.2,44.9,30.41,ENE,67,0.0,0.0,85,0.00,,---,0.00,VWS V14.00,2013-01-28 16:29:00,
2013-01-28 11:30:00,50.0,45.7,30.40,ENE,67,1.0,1.0,85,0.00,,---,0.00,VWS V14.00,2013-01-28 16:30:00,
2013-01-28 11:31:00,49.5,45.5,30.41,ENE,67,0.0,0.0,86,0.00,,---,0.00,VWS V14.00,2013-01-28 16:31:00,
2013-01-28 11:32:00,49.6,45.6,30.41,ENE,67,0.0,1.0,86,0.00,,---,0.00,VWS V14.00,2013-01-28 16:32:00,
2013-01-28 11:33:00,49.7,45.4,30.41,ENE,67,0.0,2.0,85,0.00,,---,0.00,VWS V14.00,2013-01-28 16:33:00,
2013-01-28 11:34:00,49.9,45.6,30.41,ENE,67,0.0,0.0,85,0.00,,---,0.00,VWS V14.00,2013-01-28 16:34:00,
2013-01-28 11:35:00,50.7,46.4,30.40,NNW,341,1.0,2.0,85,0.00,,---,0.00,VWS V14.00,2013-01-28 16:35:00,
2013-01-28 11:36:00,50.1,46.1,30.40,ENE,67,0.0,2.0,86,0.00,,---,0.00,VWS V14.00,2013-01-28 16:36:00,
2013-01-28 11:37:00,50.2,45.9,30.40,ENE,68,0.0,1.0,85,0.00,,---,0.00,VWS V14.00,2013-01-28 16:37:00,
2013-01-28 11:38:00,50.4,46.1,30.40,ENE,68,0.0,0.0,85,0.00,,---,0.00,VWS V14.00,2013-01-28 16:38:00,
2013-01-28 11:39:00,50.5,46.2,30.40,ENE,68,1.0,1.0,85,0.00,,---,0.00,VWS V14.00,2013-01-28 16:39:00,
2013-01-28 11:40:00,51.5,46.8,30.40,ENE,76,0.0,2.0,84,0.00,,---,0.00,VWS V14.00,2013-01-28 16:40:00,
2013-01-28 11:41:00,50.8,46.5,30.40,NNW,341,0.0,2.0,85,0.00,,---,0.00,VWS V14.00,2013-01-28 16:41:00,
2013-01-28 11:42:00,50.9,46.6,30.40,NNW,343,0.0,2.0,85,0.00,,---,0.00,VWS V14.00,2013-01-28 16:42:00,
2013-01-28 11:43:00,51.1,46.8,30.41,NE,36,3.0,3.0,85,0.00,,---,0.00,VWS V14.00,2013-01-28 16:43:00,
2013-01-28 11:44:00,51.3,47.0,30.40,NE,49,2.0,4.0,85,0.00,,---,0.00,VWS V14.00,2013-01-28 16:44:00,
2013-01-28 11:45:00,52.2,47.5,30.40,ENE,76,0.0,0.0,84,0.00,,---,0.00,VWS V14.00,2013-01-28 16:45:00,
2013-01-28 11:46:00,51.6,46.9,30.40,ENE,76,0.0,2.0,84,0.00,,---,0.00,VWS V14.00,2013-01-28 16:46:00,
2013-01-28 11:47:00,51.8,47.1,30.40,ENE,76,0.0,1.0,84,0.00,,---,0.00,VWS V14.00,2013-01-28 16:47:00,
2013-01-28 11:48:00,51.9,47.2,30.40,ENE,76,0.0,0.0,84,0.00,,---,0.00,VWS V14.00,2013-01-28 16:48:00,
2013-01-28 11:49:00,52.1,47.4,30.40,ENE,76,0.0,2.0,84,0.00,,---,0.00,VWS V14.00,2013-01-28 16:49:00,
2013-01-28 11:50:00,52.8,47.5,30.40,NE,53,0.0,1.0,82,0.00,,---,0.00,VWS V14.00,2013-01-28 16:50:00,
2013-01-28 11:51:00,52.3,47.6,30.40,ENE,76,0.0,0.0,84,0.00,,---,0.00,VWS V14.00,2013-01-28 16:51:00,
2013-01-28 11:52:00,52.4,47.7,30.40,NE,34,2.0,4.0,84,0.00,,---,0.00,VWS V14.00,2013-01-28 16:52:00,
2013-01-28 11:53:00,52.6,47.6,30.40,NE,53,0.0,2.0,83,0.00,,---,0.00,VWS V14.00,2013-01-28 16:53:00,
2013-01-28 11:54:00,52.7,47.7,30.40,NE,53,0.0,1.0,83,0.00,,---,0.00,VWS V14.00,2013-01-28 16:54:00,
2013-01-28 11:55:00,53.3,48.0,30.39,East,80,0.0,0.0,82,0.00,,---,0.00,VWS V14.00,2013-01-28 16:55:00,
2013-01-28 11:56:00,52.9,47.6,30.40,NE,53,0.0,1.0,82,0.00,,---,0.00,VWS V14.00,2013-01-28 16:56:00,
2013-01-28 11:57:00,53.0,47.7,30.40,NE,53,0.0,1.0,82,0.00,,---,0.00,VWS V14.00,2013-01-28 16:57:00,
2013-01-28 11:58:00,53.1,47.8,30.39,East,80,0.0,3.0,82,0.00,,---,0.00,VWS V14.00,2013-01-28 16:58:00,
2013-01-28 11:59:00,53.2,47.9,30.39,East,80,0.0,2.0,82,0.00,,---,0.00,VWS V14.00,2013-01-28 16:59:00,
2013-01-28 12:00:00,53.8,48.1,30.39,ENE,59,0.0,1.0,81,0.00,,---,0.00,VWS V14.00,2013-01-28 17:00:00,
2013-01-28 12:01:00,53.4,48.0,30.39,East,80,0.0,0.0,82,0.00,,---,0.00,VWS V14.00,2013-01-28 17:01:00,
2013-01-28 12:02:00,53.5,48.2,30.39,East,80,0.0,0.0,82,0.00,,---,0.00,VWS V14.00,2013-01-28 17:02:00,
2013-01-28 12:03:00,53.6,47.9,30.39,East,79,1.0,1.0,81,0.00,,---,0.00,VWS V14.00,2013-01-28 17:03:00,
2013-01-28 12:04:00,53.7,48.0,30.39,ENE,59,0.0,2.0,81,0.00,,---,0.00,VWS V14.00,2013-01-28 17:04:00,
2013-01-28 12:05:00,54.2,48.2,30.39,NE,34,1.0,2.0,80,0.00,,---,0.00,VWS V14.00,2013-01-28 17:05:00,
2013-01-28 12:06:00,53.9,48.2,30.39,ENE,59,2.0,2.0,81,0.00,,---,0.00,VWS V14.00,2013-01-28 17:06:00,
2013-01-28 12:07:00,53.9,48.2,30.39,ENE,59,1.0,2.0,81,0.00,,---,0.00,VWS V14.00,2013-01-28 17:07:00,
2013-01-28 12:08:00,54.0,48.3,30.39,ENE,59,1.0,2.0,81,0.00,,---,0.00,VWS V14.00,2013-01-28 17:08:00,
2013-01-28 12:09:00,54.1,48.1,30.39,ENE,59,3.0,3.0,80,0.00,,---,0.00,VWS V14.00,2013-01-28 17:09:00,
2013-01-28 12:10:00,54.6,48.2,30.38,East,87,0.0,0.0,79,0.00,,---,0.00,VWS V14.00,2013-01-28 17:10:00,
2013-01-28 12:11:00,54.3,47.9,30.39,NE,34,0.0,2.0,79,0.00,,---,0.00,VWS V14.00,2013-01-28 17:11:00,
2013-01-28 12:12:00,54.4,48.0,30.39,NE,34,0.0,2.0,79,0.00,,---,0.00,VWS V14.00,2013-01-28 17:12:00,
2013-01-28 12:13:00,54.4,48.4,30.38,NE,52,1.0,5.0,80,0.00,,---,0.00,VWS V14.00,2013-01-28 17:13:00,
2013-01-28 12:14:00,54.5,48.1,30.38,East,87,0.0,4.0,79,0.00,,---,0.00,VWS V14.00,2013-01-28 17:14:00,
2013-01-28 12:15:00,55.0,48.6,30.38,ENE,60,0.0,0.0,79,0.00,,---,0.00,VWS V14.00,2013-01-28 17:15:00,
2013-01-28 12:16:00,54.6,48.2,30.38,East,87,0.0,0.0,79,0.00,,---,0.00,VWS V14.00,2013-01-28 17:16:00,
2013-01-28 12:17:00,54.7,48.3,30.38,NE,56,1.0,3.0,79,0.00,,---,0.00,VWS V14.00,2013-01-28 17:17:00,
2013-01-28 12:18:00,54.8,48.8,30.38,ENE,60,2.0,4.0,80,0.00,,---,0.00,VWS V14.00,2013-01-28 17:18:00,
2013-01-28 12:19:00,54.9,48.5,30.38,ENE,60,0.0,2.0,79,0.00,,---,0.00,VWS V14.00,2013-01-28 17:19:00,
2013-01-28 12:20:00,55.4,48.7,30.37,NE,36,1.0,1.0,78,0.00,,---,0.00,VWS V14.00,2013-01-28 17:20:00,
2013-01-28 12:21:00,55.0,48.6,30.38,ENE,60,1.0,1.0,79,0.00,,---,0.00,VWS V14.00,2013-01-28 17:21:00,
2013-01-28 12:22:00,55.1,48.7,30.38,NE,36,1.0,2.0,79,0.00,,---,0.00,VWS V14.00,2013-01-28 17:22:00,
2013-01-28 12:23:00,55.2,48.8,30.38,NE,36,0.0,2.0,79,0.00,,---,0.00,VWS V14.00,2013-01-28 17:23:00,
2013-01-28 12:24:00,55.3,48.9,30.38,NE,36,2.0,2.0,79,0.00,,---,0.00,VWS V14.00,2013-01-28 17:24:00,
2013-01-28 12:25:00,55.9,49.2,30.37,NE,35,1.0,1.0,78,0.00,,---,0.00,VWS V14.00,2013-01-28 17:25:00,
2013-01-28 12:26:00,55.5,48.8,30.37,NE,36,0.0,1.0,78,0.00,,---,0.00,VWS V14.00,2013-01-28 17:26:00,
2013-01-28 12:27:00,55.5,49.1,30.37,NE,36,0.0,1.0,79,0.00,,---,0.00,VWS V14.00,2013-01-28 17:27:00,
2013-01-28 12:28:00,55.6,48.9,30.37,NE,36,0.0,3.0,78,0.00,,---,0.00,VWS V14.00,2013-01-28 17:28:00,
2013-01-28 12:29:00,55.7,49.0,30.37,NE,35,2.0,3.0,78,0.00,,---,0.00,VWS V14.00,2013-01-28 17:29:00,
2013-01-28 12:30:00,56.5,49.4,30.37,NE,36,0.0,0.0,77,0.00,,---,0.00,VWS V14.00,2013-01-28 17:30:00,
2013-01-28 12:31:00,56.0,49.2,30.37,NE,35,2.0,2.0,78,0.00,,---,0.00,VWS V14.00,2013-01-28 17:31:00,
2013-01-28 12:32:00,56.1,49.3,30.37,NE,35,0.0,2.0,78,0.00,,---,0.00,VWS V14.00,2013-01-28 17:32:00,
2013-01-28 12:33:00,56.2,49.1,30.37,NE,35,0.0,1.0,77,0.00,,---,0.00,VWS V14.00,2013-01-28 17:33:00,
2013-01-28 12:34:00,56.3,49.2,30.37,NE,36,0.0,1.0,77,0.00,,---,0.00,VWS V14.00,2013-01-28 17:34:00,
2013-01-28 12:35:00,57.2,50.1,30.37,NE,36,2.0,2.0,77,0.00,,---,0.00,VWS V14.00,2013-01-28 17:35:00,
2013-01-28 12:36:00,56.6,49.5,30.37,NE,36,0.0,0.0,77,0.00,,---,0.00,VWS V14.00,2013-01-28 17:36:00,
2013-01-28 12:37:00,56.7,49.9,30.37,NE,35,0.0,0.0,78,0.00,,---,0.00,VWS V14.00,2013-01-28 17:37:00,
2013-01-28 12:38:00,56.9,49.8,30.37,NE,36,0.0,2.0,77,0.00,,---,0.00,VWS V14.00,2013-01-28 17:38:00,
2013-01-28 12:39:00,57.0,49.9,30.37,NE,36,0.0,0.0,77,0.00,,---,0.00,VWS V14.00,2013-01-28 17:39:00,
2013-01-28 12:40:00,57.8,50.3,30.37,North,355,2.0,4.0,76,0.00,,---,0.00,VWS V14.00,2013-01-28 17:40:00,
2013-01-28 12:41:00,57.2,50.1,30.37,ENE,59,1.0,4.0,77,0.00,,---,0.00,VWS V14.00,2013-01-28 17:41:00,
2013-01-28 12:42:00,57.3,49.8,30.37,NE,50,2.0,2.0,76,0.00,,---,0.00,VWS V14.00,2013-01-28 17:42:00,
2013-01-28 12:43:00,57.5,50.0,30.37,NE,50,0.0,2.0,76,0.00,,---,0.00,VWS V14.00,2013-01-28 17:43:00,
2013-01-28 12:44:00,57.6,50.1,30.37,NNE,18,0.0,3.0,76,0.00,,---,0.00,VWS V14.00,2013-01-28 17:44:00,
2013-01-28 12:45:00,58.4,50.5,30.37,NNE,22,0.0,1.0,75,0.00,,---,0.00,VWS V14.00,2013-01-28 17:45:00,
2013-01-28 12:46:00,57.8,49.9,30.37,North,355,0.0,4.0,75,0.00,,---,0.00,VWS V14.00,2013-01-28 17:46:00,
2013-01-28 12:47:00,58.0,50.1,30.37,North,355,0.0,1.0,75,0.00,,---,0.00,VWS V14.00,2013-01-28 17:47:00,
2013-01-28 12:48:00,58.1,50.2,30.37,NNE,22,1.0,3.0,75,0.00,,---,0.00,VWS V14.00,2013-01-28 17:48:00,
2013-01-28 12:49:00,58.2,50.3,30.37,NNE,22,1.0,1.0,75,0.00,,---,0.00,VWS V14.00,2013-01-28 17:49:00,
2013-01-28 12:50:00,59.0,51.1,30.36,North,11,1.0,1.0,75,0.00,,---,0.00,VWS V14.00,2013-01-28 17:50:00,
2013-01-28 12:51:00,58.4,50.5,30.37,NNE,22,0.0,1.0,75,0.00,,---,0.00,VWS V14.00,2013-01-28 17:51:00,
2013-01-28 12:52:00,58.5,50.2,30.36,NNE,22,0.0,1.0,74,0.00,,---,0.00,VWS V14.00,2013-01-28 17:52:00,
2013-01-28 12:53:00,58.7,50.5,30.36,North,355,0.0,4.0,74,0.00,,---,0.00,VWS V14.00,2013-01-28 17:53:00,
2013-01-28 12:54:00,58.8,50.5,30.36,North,355,0.0,2.0,74,0.00,,---,0.00,VWS V14.00,2013-01-28 17:54:00,
2013-01-28 12:55:00,59.5,51.2,30.36,NNE,27,0.0,1.0,74,0.00,,---,0.00,VWS V14.00,2013-01-28 17:55:00,
2013-01-28 12:56:00,59.0,51.5,30.36,NNE,24,1.0,2.0,76,0.00,,---,0.00,VWS V14.00,2013-01-28 17:56:00,
2013-01-28 12:57:00,59.1,50.8,30.36,NNE,27,1.0,2.0,74,0.00,,---,0.00,VWS V14.00,2013-01-28 17:57:00,
2013-01-28 12:58:00,59.3,51.0,30.36,NNE,27,0.0,1.0,74,0.00,,---,0.00,VWS V14.00,2013-01-28 17:58:00,
2013-01-28 12:59:00,59.4,51.1,30.36,NNE,27,0.0,2.0,74,0.00,,---,0.00,VWS V14.00,2013-01-28 17:59:00,
2013-01-28 13:00:00,60.1,51.4,30.36,NE,51,0.0,0.0,73,0.00,,---,0.00,VWS V14.00,2013-01-28 18:00:00,
2013-01-28 13:01:00,59.6,51.3,30.36,NNE,27,0.0,1.0,74,0.00,,---,0.00,VWS V14.00,2013-01-28 18:01:00,
2013-01-28 13:02:00,59.7,51.4,30.36,NNE,27,0.0,1.0,74,0.00,,---,0.00,VWS V14.00,2013-01-28 18:02:00,
2013-01-28 13:03:00,59.8,51.5,30.36,NNE,27,0.0,1.0,74,0.00,,---,0.00,VWS V14.00,2013-01-28 18:03:00,
2013-01-28 13:04:00,60.0,51.7,30.36,NE,51,1.0,3.0,74,0.00,,---,0.00,VWS V14.00,2013-01-28 18:04:00,
2013-01-28 13:05:00,60.7,52.4,30.36,NE,51,0.0,0.0,74,0.00,,---,0.00,VWS V14.00,2013-01-28 18:05:00,
2013-01-28 13:06:00,60.2,51.5,30.36,NE,51,0.0,0.0,73,0.00,,---,0.00,VWS V14.00,2013-01-28 18:06:00,
2013-01-28 13:07:00,60.3,51.6,30.36,NE,51,0.0,0.0,73,0.00,,---,0.00,VWS V14.00,2013-01-28 18:07:00,
2013-01-28 13:08:00,60.4,52.1,30.36,NE,51,0.0,0.0,74,0.00,,---,0.00,VWS V14.00,2013-01-28 18:08:00,
2013-01-28 13:09:00,60.5,52.5,30.36,NE,51,0.0,1.0,75,0.00,,---,0.00,VWS V14.00,2013-01-28 18:09:00,
2013-01-28 13:10:00,61.3,53.0,30.35,NE,51,0.0,0.0,74,0.00,,---,0.00,VWS V14.00,2013-01-28 18:10:00,
2013-01-28 13:11:00,60.8,52.5,30.36,NE,51,0.0,0.0,74,0.00,,---,0.00,VWS V14.00,2013-01-28 18:11:00,
2013-01-28 13:12:00,61.0,52.7,30.35,NE,51,0.0,1.0,74,0.00,,---,0.00,VWS V14.00,2013-01-28 18:12:00,
2013-01-28 13:13:00,61.1,52.4,30.35,NE,51,1.0,1.0,73,0.00,,---,0.00,VWS V14.00,2013-01-28 18:13:00,
2013-01-28 13:14:00,61.1,52.4,30.35,NE,51,0.0,1.0,73,0.00,,---,0.00,VWS V14.00,2013-01-28 18:14:00,
2013-01-28 13:15:00,61.7,53.0,30.35,NE,34,0.0,1.0,73,0.00,,---,0.00,VWS V14.00,2013-01-28 18:15:00,
2013-01-28 13:16:00,61.4,52.7,30.35,NE,51,1.0,1.0,73,0.00,,---,0.00,VWS V14.00,2013-01-28 18:16:00,
2013-01-28 13:17:00,61.4,52.7,30.35,ENE,78,0.0,3.0,73,0.00,,---,0.00,VWS V14.00,2013-01-28 18:17:00,
2013-01-28 13:18:00,61.6,52.9,30.35,ENE,78,1.0,1.0,73,0.00,,---,0.00,VWS V14.00,2013-01-28 18:18:00,
2013-01-28 13:19:00,61.6,52.9,30.35,ENE,78,0.0,1.0,73,0.00,,---,0.00,VWS V14.00,2013-01-28 18:19:00,
2013-01-28 13:20:00,62.0,52.9,30.35,NE,34,1.0,1.0,72,0.00,,---,0.00,VWS V14.00,2013-01-28 18:20:00,
2013-01-28 13:21:00,61.8,53.1,30.35,NE,34,0.0,1.0,73,0.00,,---,0.00,VWS V14.00,2013-01-28 18:21:00,
2013-01-28 13:22:00,61.9,53.2,30.35,NE,34,1.0,1.0,73,0.00,,---,0.00,VWS V14.00,2013-01-28 18:22:00,
2013-01-28 13:23:00,62.0,52.9,30.35,NE,34,0.0,1.0,72,0.00,,---,0.00,VWS V14.00,2013-01-28 18:23:00,
2013-01-28 13:24:00,62.0,52.9,30.35,NE,34,0.0,0.0,72,0.00,,---,0.00,VWS V14.00,2013-01-28 18:24:00,
2013-01-28 13:25:00,62.3,53.2,30.34,NE,34,0.0,1.0,72,0.00,,---,0.00,VWS V14.00,2013-01-28 18:25:00,
2013-01-28 13:26:00,62.0,52.9,30.35,NE,34,0.0,1.0,72,0.00,,---,0.00,VWS V14.00,2013-01-28 18:26:00,
2013-01-28 13:27:00,62.1,53.0,30.35,NE,34,0.0,0.0,72,0.00,,---,0.00,VWS V14.00,2013-01-28 18:27:00,
2013-01-28 13:28:00,62.1,53.0,30.35,NE,34,0.0,0.0,72,0.00,,---,0.00,VWS V14.00,2013-01-28 18:28:00,
2013-01-28 13:29:00,62.2,53.1,30.34,NE,34,0.0,0.0,72,0.00,,---,0.00,VWS V14.00,2013-01-28 18:29:00,
2013-01-28 13:30:00,62.4,52.5,30.34,ENE,68,0.0,0.0,70,0.00,,---,0.00,VWS V14.00,2013-01-28 18:30:00,
2013-01-28 13:31:00,62.3,53.2,30.34,NE,34,0.0,1.0,72,0.00,,---,0.00,VWS V14.00,2013-01-28 18:31:00,
2013-01-28 13:32:00,62.3,53.2,30.34,NE,34,0.0,1.0,72,0.00,,---,0.00,VWS V14.00,2013-01-28 18:32:00,
2013-01-28 13:33:00,62.4,53.3,30.34,ENE,68,3.0,3.0,72,0.00,,---,0.00,VWS V14.00,2013-01-28 18:33:00,
2013-01-28 13:34:00,62.4,52.9,30.34,ENE,68,1.0,3.0,71,0.00,,---,0.00,VWS V14.00,2013-01-28 18:34:00,
2013-01-28 13:35:00,62.5,52.2,30.33,ENE,68,0.0,0.0,69,0.00,,---,0.00,VWS V14.00,2013-01-28 18:35:00,
2013-01-28 13:36:00,62.4,52.5,30.34,ENE,68,0.0,1.0,70,0.00,,---,0.00,VWS V14.00,2013-01-28 18:36:00,
2013-01-28 13:37:00,62.4,52.1,30.34,ENE,68,0.0,1.0,69,0.00,,---,0.00,VWS V14.00,2013-01-28 18:37:00,
2013-01-28 13:38:00,62.4,52.5,30.33,ENE,67,0.0,1.0,70,0.00,,---,0.00,VWS V14.00,2013-01-28 18:38:00,
2013-01-28 13:39:00,62.5,52.2,30.33,ENE,68,0.0,0.0,69,0.00,,---,0.00,VWS V14.00,2013-01-28 18:39:00,
2013-01-28 13:40:00,62.5,52.2,30.33,NNE,17,1.0,1.0,69,0.00,,---,0.00,VWS V14.00,2013-01-28 18:40:00,
2013-01-28 13:41:00,62.5,52.2,30.33,NNE,17,0.0,2.0,69,0.00,,---,0.00,VWS V14.00,2013-01-28 18:41:00,
2013-01-28 13:42:00,62.5,52.2,30.33,NNE,17,0.0,0.0,69,0.00,,---,0.00,VWS V14.00,2013-01-28 18:42:00,
2013-01-28 13:43:00,62.5,52.2,30.33,NNE,17,2.0,2.0,69,0.00,,---,0.00,VWS V14.00,2013-01-28 18:43:00,
2013-01-28 13:44:00,62.5,52.2,30.33,NNE,17,0.0,2.0,69,0.00,,---,0.00,VWS V14.00,2013-01-28 18:44:00,
2013-01-28 13:45:00,62.5,52.2,30.33,NNE,33,0.0,0.0,69,0.00,,---,0.00,VWS V14.00,2013-01-28 18:45:00,
2013-01-28 13:46:00,62.5,52.2,30.33,NNE,17,1.0,1.0,69,0.00,,---,0.00,VWS V14.00,2013-01-28 18:46:00,
2013-01-28 13:47:00,62.5,52.2,30.33,NNE,33,0.0,2.0,69,0.00,,---,0.00,VWS V14.00,2013-01-28 18:47:00,
2013-01-28 13:48:00,62.5,52.2,30.33,NNE,33,0.0,0.0,69,0.00,,---,0.00,VWS V14.00,2013-01-28 18:48:00,
2013-01-28 13:49:00,62.5,52.2,30.33,NNE,33,0.0,2.0,69,0.00,,---,0.00,VWS V14.00,2013-01-28 18:49:00,
2013-01-28 13:50:00,62.6,52.7,30.33,NNE,33,0.0,0.0,70,0.00,,---,0.00,VWS V14.00,2013-01-28 18:50:00,
2013-01-28 13:51:00,62.5,52.2,30.33,NNE,33,0.0,0.0,69,0.00,,---,0.00,VWS V14.00,2013-01-28 18:51:00,
2013-01-28 13:52:00,62.5,52.6,30.33,NNE,33,0.0,1.0,70,0.00,,---,0.00,VWS V14.00,2013-01-28 18:52:00,
2013-01-28 13:53:00,62.6,52.7,30.33,NNE,33,1.0,1.0,70,0.00,,---,0.00,VWS V14.00,2013-01-28 18:53:00,
2013-01-28 13:54:00,62.6,52.7,30.33,NNE,33,0.0,1.0,70,0.00,,---,0.00,VWS V14.00,2013-01-28 18:54:00,
2013-01-28 13:55:00,62.7,52.8,30.33,NNE,33,0.0,0.0,70,0.00,,---,0.00,VWS V14.00,2013-01-28 18:55:00,
2013-01-28 13:56:00,62.7,52.8,30.33,NNE,33,1.0,1.0,70,0.00,,---,0.00,VWS V14.00,2013-01-28 18:56:00,
2013-01-28 13:57:00,62.7,52.8,30.33,NNE,33,0.0,1.0,70,0.00,,---,0.00,VWS V14.00,2013-01-28 18:57:00,
2013-01-28 13:58:00,62.7,52.8,30.33,NNE,33,0.0,1.0,70,0.00,,---,0.00,VWS V14.00,2013-01-28 18:58:00,
2013-01-28 13:59:00,62.7,52.8,30.33,NNE,33,0.0,1.0,70,0.00,,---,0.00,VWS V14.00,2013-01-28 18:59:00,
2013-01-28 14:00:00,62.8,52.9,30.33,NNE,33,1.0,1.0,70,0.00,,---,0.00,VWS V14.00,2013-01-28 19:00:00,
2013-01-28 14:01:00,62.8,52.9,30.33,NNE,33,0.0,0.0,70,0.00,,---,0.00,VWS V14.00,2013-01-28 19:01:00,
2013-01-28 14:02:00,62.8,52.9,30.33,NNE,33,0.0,0.0,70,0.00,,---,0.00,VWS V14.00,2013-01-28 19:02:00,
2013-01-28 14:03:00,62.8,52.9,30.33,NNE,33,0.0,0.0,70,0.00,,---,0.00,VWS V14.00,2013-01-28 19:03:00,
2013-01-28 14:04:00,62.8,52.9,30.33,NNE,33,1.0,1.0,70,0.00,,---,0.00,VWS V14.00,2013-01-28 19:04:00,
2013-01-28 14:05:00,62.9,53.4,30.32,NNE,33,0.0,0.0,71,0.00,,---,0.00,VWS V14.00,2013-01-28 19:05:00,
2013-01-28 14:06:00,62.8,52.9,30.33,NNE,33,0.0,1.0,70,0.00,,---,0.00,VWS V14.00,2013-01-28 19:06:00,
2013-01-28 14:07:00,62.8,52.9,30.33,NNE,33,0.0,0.0,70,0.00,,---,0.00,VWS V14.00,2013-01-28 19:07:00,
2013-01-28 14:08:00,62.8,52.9,30.33,NNE,33,0.0,0.0,70,0.00,,---,0.00,VWS V14.00,2013-01-28 19:08:00,
2013-01-28 14:09:00,62.8,52.9,30.32,NNE,33,0.0,0.0,70,0.00,,---,0.00,VWS V14.00,2013-01-28 19:09:00,
2013-01-28 14:10:00,63.0,53.5,30.32,NNE,33,1.0,1.0,71,0.00,,---,0.00,VWS V14.00,2013-01-28 19:10:00,
2013-01-28 14:11:00,62.9,53.4,30.32,NNE,33,0.0,0.0,71,0.00,,---,0.00,VWS V14.00,2013-01-28 19:11:00,
2013-01-28 14:12:00,62.9,53.4,30.32,NNE,33,0.0,0.0,71,0.00,,---,0.00,VWS V14.00,2013-01-28 19:12:00,
2013-01-28 14:13:00,62.9,53.4,30.32,NNE,33,0.0,0.0,71,0.00,,---,0.00,VWS V14.00,2013-01-28 19:13:00,
2013-01-28 14:14:00,62.9,53.4,30.32,NNE,33,0.0,0.0,71,0.00,,---,0.00,VWS V14.00,2013-01-28 19:14:00,
2013-01-28 14:15:00,62.9,53.0,30.31,NNE,33,0.0,0.0,70,0.00,,---,0.00,VWS V14.00,2013-01-28 19:15:00,
2013-01-28 14:16:00,62.9,53.4,30.32,NNE,33,0.0,1.0,71,0.00,,---,0.00,VWS V14.00,2013-01-28 19:16:00,
2013-01-28 14:17:00,63.0,53.1,30.32,NNE,33,0.0,1.0,70,0.00,,---,0.00,VWS V14.00,2013-01-28 19:17:00,
2013-01-28 14:18:00,63.0,53.1,30.32,NNE,33,0.0,1.0,70,0.00,,---,0.00,VWS V14.00,2013-01-28 19:18:00,
2013-01-28 14:19:00,62.9,53.0,30.32,NNE,33,0.0,1.0,70,0.00,,---,0.00,VWS V14.00,2013-01-28 19:19:00,
2013-01-28 14:20:00,63.0,53.1,30.31,East,93,1.0,1.0,70,0.00,,---,0.00,VWS V14.00,2013-01-28 19:20:00,
2013-01-28 14:21:00,63.0,53.1,30.31,NNE,33,0.0,0.0,70,0.00,,---,0.00,VWS V14.00,2013-01-28 19:21:00,
2013-01-28 14:22:00,63.0,53.1,30.31,NNE,33,0.0,0.0,70,0.00,,---,0.00,VWS V14.00,2013-01-28 19:22:00,
2013-01-28 14:23:00,63.0,53.5,30.31,NNE,33,0.0,2.0,71,0.00,,---,0.00,VWS V14.00,2013-01-28 19:23:00,
2013-01-28 14:24:00,63.0,53.5,30.31,NNE,33,0.0,1.0,71,0.00,,---,0.00,VWS V14.00,2013-01-28 19:24:00,
2013-01-28 14:25:00,63.1,53.6,30.31,East,79,1.0,1.0,71,0.00,,---,0.00,VWS V14.00,2013-01-28 19:25:00,
2013-01-28 14:26:00,63.0,53.1,30.31,East,93,1.0,1.0,70,0.00,,---,0.00,VWS V14.00,2013-01-28 19:26:00,
2013-01-28 14:27:00,63.1,53.2,30.31,East,93,0.0,1.0,70,0.00,,---,0.00,VWS V14.00,2013-01-28 19:27:00,
2013-01-28 14:28:00,63.1,53.2,30.31,East,93,0.0,1.0,70,0.00,,---,0.00,VWS V14.00,2013-01-28 19:28:00,
2013-01-28 14:29:00,63.1,53.6,30.31,East,93,0.0,1.0,71,0.00,,---,0.00,VWS V14.00,2013-01-28 19:29:00,
2013-01-28 14:30:00,63.2,53.3,30.31,East,79,0.0,1.0,70,0.00,,---,0.00,VWS V14.00,2013-01-28 19:30:00,
2013-01-28 14:31:00,63.2,53.7,30.31,East,79,0.0,1.0,71,0.00,,---,0.00,VWS V14.00,2013-01-28 19:31:00,
2013-01-28 14:32:00,63.1,53.2,30.31,East,79,0.0,1.0,70,0.00,,---,0.00,VWS V14.00,2013-01-28 19:32:00,
2013-01-28 14:33:00,63.2,53.3,30.31,East,79,0.0,1.0,70,0.00,,---,0.00,VWS V14.00,2013-01-28 19:33:00,
2013-01-28 14:34:00,63.2,53.3,30.31,East,79,0.0,1.0,70,0.00,,---,0.00,VWS V14.00,2013-01-28 19:34:00,
2013-01-28 14:35:00,63.3,53.0,30.31,ENE,74,0.0,0.0,69,0.00,,---,0.00,VWS V14.00,2013-01-28 19:35:00,
2013-01-28 14:36:00,63.2,53.7,30.31,ENE,74,0.0,3.0,71,0.00,,---,0.00,VWS V14.00,2013-01-28 19:36:00,
2013-01-28 14:37:00,63.2,53.3,30.31,ENE,74,0.0,1.0,70,0.00,,---,0.00,VWS V14.00,2013-01-28 19:37:00,
2013-01-28 14:38:00,63.3,53.4,30.31,ENE,74,1.0,1.0,70,0.00,,---,0.00,VWS V14.00,2013-01-28 19:38:00,
2013-01-28 14:39:00,63.3,53.4,30.31,ENE,74,0.0,2.0,70,0.00,,---,0.00,VWS V14.00,2013-01-28 19:39:00,
2013-01-28 14:40:00,63.3,53.0,30.30,ENE,74,0.0,1.0,69,0.00,,---,0.00,VWS V14.00,2013-01-28 19:40:00,
2013-01-28 14:41:00,63.3,53.0,30.31,ENE,74,0.0,1.0,69,0.00,,---,0.00,VWS V14.00,2013-01-28 19:41:00,
2013-01-28 14:42:00,63.3,53.0,30.31,ENE,74,0.0,1.0,69,0.00,,---,0.00,VWS V14.00,2013-01-28 19:42:00,
2013-01-28 14:43:00,63.3,53.0,30.31,ENE,74,0.0,1.0,69,0.00,,---,0.00,VWS V14.00,2013-01-28 19:43:00,
2013-01-28 14:44:00,63.3,53.0,30.31,ENE,74,0.0,1.0,69,0.00,,---,0.00,VWS V14.00,2013-01-28 19:44:00,
2013-01-28 14:45:00,63.3,53.0,30.30,ENE,74,0.0,0.0,69,0.00,,---,0.00,VWS V14.00,2013-01-28 19:45:00,
2013-01-28 14:46:00,63.4,53.1,30.30,ENE,74,0.0,1.0,69,0.00,,---,0.00,VWS V14.00,2013-01-28 19:46:00,
2013-01-28 14:47:00,63.3,53.0,30.30,ENE,74,0.0,0.0,69,0.00,,---,0.00,VWS V14.00,2013-01-28 19:47:00,
2013-01-28 14:48:00,63.3,53.0,30.30,ENE,74,1.0,1.0,69,0.00,,---,0.00,VWS V14.00,2013-01-28 19:48:00,
2013-01-28 14:49:00,63.3,53.0,30.30,ENE,74,0.0,1.0,69,0.00,,---,0.00,VWS V14.00,2013-01-28 19:49:00,
2013-01-28 14:50:00,63.3,53.4,30.30,ENE,68,1.0,1.0,70,0.00,,---,0.00,VWS V14.00,2013-01-28 19:50:00,
2013-01-28 14:51:00,63.3,53.0,30.30,ENE,74,0.0,1.0,69,0.00,,---,0.00,VWS V14.00,2013-01-28 19:51:00,
2013-01-28 14:52:00,63.3,53.0,30.30,ENE,74,1.0,2.0,69,0.00,,---,0.00,VWS V14.00,2013-01-28 19:52:00,
2013-01-28 14:53:00,63.3,53.0,30.30,ENE,74,0.0,1.0,69,0.00,,---,0.00,VWS V14.00,2013-01-28 19:53:00,
2013-01-28 14:54:00,63.3,53.0,30.29,ENE,74,0.0,0.0,69,0.00,,---,0.00,VWS V14.00,2013-01-28 19:54:00,
2013-01-28 14:55:00,63.4,53.8,30.30,NE,48,0.0,0.0,71,0.00,,---,0.00,VWS V14.00,2013-01-28 19:55:00,
2013-01-28 14:56:00,63.3,53.4,30.30,ENE,68,0.0,1.0,70,0.00,,---,0.00,VWS V14.00,2013-01-28 19:56:00,
2013-01-28 14:57:00,63.4,53.5,30.30,ENE,68,0.0,1.0,70,0.00,,---,0.00,VWS V14.00,2013-01-28 19:57:00,
2013-01-28 14:58:00,63.4,53.5,30.30,NE,47,1.0,2.0,70,0.00,,---,0.00,VWS V14.00,2013-01-28 19:58:00,
2013-01-28 14:59:00,63.4,53.5,30.30,NE,47,0.0,1.0,70,0.00,,---,0.00,VWS V14.00,2013-01-28 19:59:00,
2013-01-28 15:00:00,63.5,53.9,30.31,NE,48,0.0,1.0,71,0.00,,---,0.00,VWS V14.00,2013-01-28 20:00:00,
2013-01-28 15:01:00,63.4,53.8,30.30,NE,48,0.0,0.0,71,0.00,,---,0.00,VWS V14.00,2013-01-28 20:01:00,
2013-01-28 15:02:00,63.4,53.8,30.30,NE,48,0.0,0.0,71,0.00,,---,0.00,VWS V14.00,2013-01-28 20:02:00,
2013-01-28 15:03:00,63.5,53.9,30.30,NE,48,0.0,0.0,71,0.00,,---,0.00,VWS V14.00,2013-01-28 20:03:00,
2013-01-28 15:04:00,63.5,53.9,30.31,NE,48,0.0,0.0,71,0.00,,---,0.00,VWS V14.00,2013-01-28 20:04:00,
2013-01-28 15:05:00,63.6,54.0,30.30,NE,48,0.0,0.0,71,0.00,,---,0.00,VWS V14.00,2013-01-28 20:05:00,
2013-01-28 15:06:00,63.5,53.9,30.31,NE,48,0.0,1.0,71,0.00,,---,0.00,VWS V14.00,2013-01-28 20:06:00,
2013-01-28 15:07:00,63.6,54.0,30.31,NE,48,0.0,1.0,71,0.00,,---,0.00,VWS V14.00,2013-01-28 20:07:00,
2013-01-28 15:08:00,63.6,54.0,30.31,NE,48,0.0,1.0,71,0.00,,---,0.00,VWS V14.00,2013-01-28 20:08:00,
2013-01-28 15:09:00,63.6,54.0,30.31,NE,48,0.0,1.0,71,0.00,,---,0.00,VWS V14.00,2013-01-28 20:09:00,
2013-01-28 15:10:00,63.7,54.5,30.31,NE,48,0.0,1.0,72,0.00,,---,0.00,VWS V14.00,2013-01-28 20:10:00,
2013-01-28 15:11:00,63.6,54.0,30.30,NE,48,0.0,1.0,71,0.00,,---,0.00,VWS V14.00,2013-01-28 20:11:00,
2013-01-28 15:12:00,63.6,54.0,30.30,NE,48,0.0,0.0,71,0.00,,---,0.00,VWS V14.00,2013-01-28 20:12:00,
2013-01-28 15:13:00,63.6,54.0,30.30,NE,48,1.0,1.0,71,0.00,,---,0.00,VWS V14.00,2013-01-28 20:13:00,
2013-01-28 15:14:00,63.7,54.1,30.30,NE,48,0.0,1.0,71,0.00,,---,0.00,VWS V14.00,2013-01-28 20:14:00,
2013-01-28 15:15:00,63.8,55.0,30.30,NE,48,0.0,0.0,73,0.00,,---,0.00,VWS V14.00,2013-01-28 20:15:00,
2013-01-28 15:16:00,63.7,54.5,30.31,NE,48,0.0,1.0,72,0.00,,---,0.00,VWS V14.00,2013-01-28 20:16:00,
2013-01-28 15:17:00,63.7,54.5,30.30,NE,48,1.0,1.0,72,0.00,,---,0.00,VWS V14.00,2013-01-28 20:17:00,
2013-01-28 15:18:00,63.8,55.0,30.30,NE,48,0.0,1.0,73,0.00,,---,0.00,VWS V14.00,2013-01-28 20:18:00,
2013-01-28 15:19:00,63.8,55.0,30.30,NE,48,0.0,0.0,73,0.00,,---,0.00,VWS V14.00,2013-01-28 20:19:00,
2013-01-28 15:20:00,63.8,55.4,30.30,ENE,57,1.0,1.0,74,0.00,,---,0.00,VWS V14.00,2013-01-28 20:20:00,
2013-01-28 15:21:00,63.7,54.9,30.30,NE,48,0.0,1.0,73,0.00,,---,0.00,VWS V14.00,2013-01-28 20:21:00,
2013-01-28 15:22:00,63.8,55.0,30.30,NE,48,0.0,1.0,73,0.00,,---,0.00,VWS V14.00,2013-01-28 20:22:00,
2013-01-28 15:23:00,63.8,55.4,30.30,NE,48,0.0,1.0,74,0.00,,---,0.00,VWS V14.00,2013-01-28 20:23:00,
2013-01-28 15:24:00,63.7,55.3,30.30,NE,48,0.0,1.0,74,0.00,,---,0.00,VWS V14.00,2013-01-28 20:24:00,
2013-01-28 15:25:00,63.7,55.3,30.30,ENE,63,0.0,0.0,74,0.00,,---,0.00,VWS V14.00,2013-01-28 20:25:00,
2013-01-28 15:26:00,63.7,55.3,30.30,ENE,57,1.0,1.0,74,0.00,,---,0.00,VWS V14.00,2013-01-28 20:26:00,
2013-01-28 15:27:00,63.8,55.4,30.30,ENE,57,1.0,1.0,74,0.00,,---,0.00,VWS V14.00,2013-01-28 20:27:00,
2013-01-28 15:28:00,63.7,55.3,30.30,ENE,63,1.0,1.0,74,0.00,,---,0.00,VWS V14.00,2013-01-28 20:28:00,
2013-01-28 15:29:00,63.7,55.3,30.30,ENE,63,0.0,2.0,74,0.00,,---,0.00,VWS V14.00,2013-01-28 20:29:00,
2013-01-28 15:30:00,63.7,55.6,30.30,ENE,63,0.0,1.0,75,0.00,,---,0.00,VWS V14.00,2013-01-28 20:30:00,
2013-01-28 15:31:00,63.7,55.3,30.30,ENE,63,0.0,0.0,74,0.00,,---,0.00,VWS V14.00,2013-01-28 20:31:00,
2013-01-28 15:32:00,63.7,55.6,30.30,ENE,63,0.0,0.0,75,0.00,,---,0.00,VWS V14.00,2013-01-28 20:32:00,
2013-01-28 15:33:00,63.7,55.6,30.30,ENE,63,0.0,0.0,75,0.00,,---,0.00,VWS V14.00,2013-01-28 20:33:00,
2013-01-28 15:34:00,63.7,55.6,30.30,ENE,63,0.0,0.0,75,0.00,,---,0.00,VWS V14.00,2013-01-28 20:34:00,
2013-01-28 15:35:00,63.7,55.3,30.30,ENE,63,0.0,0.0,74,0.00,,---,0.00,VWS V14.00,2013-01-28 20:35:00,
2013-01-28 15:36:00,63.6,55.5,30.30,ENE,63,0.0,1.0,75,0.00,,---,0.00,VWS V14.00,2013-01-28 20:36:00,
2013-01-28 15:37:00,63.7,55.6,30.30,ENE,63,0.0,0.0,75,0.00,,---,0.00,VWS V14.00,2013-01-28 20:37:00,
2013-01-28 15:38:00,63.7,55.6,30.30,ENE,63,0.0,0.0,75,0.00,,---,0.00,VWS V14.00,2013-01-28 20:38:00,
2013-01-28 15:39:00,63.7,55.6,30.30,ENE,63,0.0,0.0,75,0.00,,---,0.00,VWS V14.00,2013-01-28 20:39:00,
2013-01-28 15:40:00,63.7,55.3,30.30,ENE,63,0.0,1.0,74,0.00,,---,0.00,VWS V14.00,2013-01-28 20:40:00,
2013-01-28 15:41:00,63.7,55.3,30.30,ENE,63,0.0,0.0,74,0.00,,---,0.00,VWS V14.00,2013-01-28 20:41:00,
2013-01-28 15:42:00,63.7,55.3,30.30,ENE,63,0.0,0.0,74,0.00,,---,0.00,VWS V14.00,2013-01-28 20:42:00,
2013-01-28 15:43:00,63.7,55.3,30.30,ENE,63,0.0,0.0,74,0.00,,---,0.00,VWS V14.00,2013-01-28 20:43:00,
2013-01-28 15:44:00,63.7,55.3,30.30,ENE,63,0.0,0.0,74,0.00,,---,0.00,VWS V14.00,2013-01-28 20:44:00,
2013-01-28 15:45:00,63.7,55.3,30.30,ENE,63,0.0,0.0,74,0.00,,---,0.00,VWS V14.00,2013-01-28 20:45:00,
2013-01-28 15:46:00,63.7,55.3,30.30,ENE,63,0.0,1.0,74,0.00,,---,0.00,VWS V14.00,2013-01-28 20:46:00,
2013-01-28 15:47:00,63.7,55.3,30.30,ENE,63,0.0,0.0,74,0.00,,---,0.00,VWS V14.00,2013-01-28 20:47:00,
2013-01-28 15:48:00,63.7,55.3,30.30,ENE,63,0.0,0.0,74,0.00,,---,0.00,VWS V14.00,2013-01-28 20:48:00,
2013-01-28 15:49:00,63.7,55.3,30.30,ENE,63,0.0,0.0,74,0.00,,---,0.00,VWS V14.00,2013-01-28 20:49:00,
2013-01-28 15:50:00,63.8,55.4,30.30,ENE,63,0.0,0.0,74,0.00,,---,0.00,VWS V14.00,2013-01-28 20:50:00,
2013-01-28 15:51:00,63.7,54.9,30.30,ENE,63,0.0,0.0,73,0.00,,---,0.00,VWS V14.00,2013-01-28 20:51:00,
2013-01-28 15:52:00,63.7,54.9,30.30,ENE,63,0.0,1.0,73,0.00,,---,0.00,VWS V14.00,2013-01-28 20:52:00,
2013-01-28 15:53:00,63.7,55.3,30.30,ENE,63,0.0,0.0,74,0.00,,---,0.00,VWS V14.00,2013-01-28 20:53:00,
2013-01-28 15:54:00,63.8,55.4,30.30,ENE,63,0.0,1.0,74,0.00,,---,0.00,VWS V14.00,2013-01-28 20:54:00,
2013-01-28 15:55:00,63.9,55.5,30.30,ENE,63,0.0,0.0,74,0.00,,---,0.00,VWS V14.00,2013-01-28 20:55:00,
2013-01-28 15:56:00,63.8,55.4,30.30,ENE,63,0.0,0.0,74,0.00,,---,0.00,VWS V14.00,2013-01-28 20:56:00,
2013-01-28 15:57:00,63.8,55.4,30.30,ENE,63,0.0,0.0,74,0.00,,---,0.00,VWS V14.00,2013-01-28 20:57:00,
2013-01-28 15:58:00,63.8,55.4,30.30,ENE,63,0.0,1.0,74,0.00,,---,0.00,VWS V14.00,2013-01-28 20:58:00,
2013-01-28 15:59:00,63.9,55.5,30.30,ENE,63,0.0,0.0,74,0.00,,---,0.00,VWS V14.00,2013-01-28 20:59:00,
2013-01-28 16:00:00,64.0,55.9,30.30,ENE,63,0.0,0.0,75,0.00,,---,0.00,VWS V14.00,2013-01-28 21:00:00,
2013-01-28 16:01:00,63.9,55.8,30.30,ENE,63,0.0,0.0,75,0.00,,---,0.00,VWS V14.00,2013-01-28 21:01:00,
2013-01-28 16:02:00,63.9,55.8,30.30,ENE,63,0.0,0.0,75,0.00,,---,0.00,VWS V14.00,2013-01-28 21:02:00,
2013-01-28 16:03:00,63.9,55.8,30.30,ENE,63,0.0,0.0,75,0.00,,---,0.00,VWS V14.00,2013-01-28 21:03:00,
2013-01-28 16:04:00,63.9,55.8,30.30,ENE,63,0.0,1.0,75,0.00,,---,0.00,VWS V14.00,2013-01-28 21:04:00,
2013-01-28 16:05:00,64.0,56.3,30.30,ENE,63,0.0,0.0,76,0.00,,---,0.00,VWS V14.00,2013-01-28 21:05:00,
2013-01-28 16:06:00,63.9,55.8,30.30,ENE,63,0.0,0.0,75,0.00,,---,0.00,VWS V14.00,2013-01-28 21:06:00,
2013-01-28 16:07:00,64.0,55.9,30.29,ENE,63,0.0,1.0,75,0.00,,---,0.00,VWS V14.00,2013-01-28 21:07:00,
2013-01-28 16:08:00,64.0,55.9,30.30,ENE,63,0.0,0.0,75,0.00,,---,0.00,VWS V14.00,2013-01-28 21:08:00,
2013-01-28 16:09:00,64.0,56.3,30.30,ENE,63,0.0,0.0,76,0.00,,---,0.00,VWS V14.00,2013-01-28 21:09:00,
2013-01-28 16:10:00,64.0,56.3,30.30,ENE,63,0.0,0.0,76,0.00,,---,0.00,VWS V14.00,2013-01-28 21:10:00,
2013-01-28 16:11:00,64.0,56.3,30.30,ENE,63,0.0,0.0,76,0.00,,---,0.00,VWS V14.00,2013-01-28 21:11:00,
2013-01-28 16:12:00,64.0,56.3,30.30,ENE,63,0.0,1.0,76,0.00,,---,0.00,VWS V14.00,2013-01-28 21:12:00,
2013-01-28 16:13:00,64.0,56.3,30.30,ENE,63,0.0,1.0,76,0.00,,---,0.00,VWS V14.00,2013-01-28 21:13:00,
2013-01-28 16:14:00,64.0,56.3,30.30,ENE,63,0.0,0.0,76,0.00,,---,0.00,VWS V14.00,2013-01-28 21:14:00,
2013-01-28 16:15:00,64.0,56.3,30.30,ENE,63,0.0,1.0,76,0.00,,---,0.00,VWS V14.00,2013-01-28 21:15:00,
2013-01-28 16:16:00,64.0,56.3,30.30,ENE,63,0.0,0.0,76,0.00,,---,0.00,VWS V14.00,2013-01-28 21:16:00,
2013-01-28 16:18:00,64.0,56.3,30.30,ENE,63,0.0,0.0,76,0.00,,---,0.00,VWS V14.00,2013-01-28 21:18:00,
2013-01-28 16:19:00,64.0,56.3,30.30,ENE,63,0.0,1.0,76,0.00,,---,0.00,VWS V14.00,2013-01-28 21:19:00,
2013-01-28 16:20:00,63.8,56.1,30.30,ENE,63,0.0,0.0,76,0.00,,---,0.00,VWS V14.00,2013-01-28 21:20:00,
2013-01-28 16:21:00,64.0,56.3,30.30,ENE,63,1.0,1.0,76,0.00,,---,0.00,VWS V14.00,2013-01-28 21:21:00,
2013-01-28 16:22:00,63.9,56.2,30.30,ENE,63,0.0,1.0,76,0.00,,---,0.00,VWS V14.00,2013-01-28 21:22:00,
2013-01-28 16:23:00,63.9,56.2,30.30,ENE,63,0.0,1.0,76,0.00,,---,0.00,VWS V14.00,2013-01-28 21:23:00,
2013-01-28 16:24:00,63.9,56.2,30.30,ENE,63,0.0,1.0,76,0.00,,---,0.00,VWS V14.00,2013-01-28 21:24:00,
2013-01-28 16:25:00,63.7,56.0,30.30,ENE,62,2.0,2.0,76,0.00,,---,0.00,VWS V14.00,2013-01-28 21:25:00,
2013-01-28 16:26:00,63.8,56.1,30.30,ENE,63,0.0,0.0,76,0.00,,---,0.00,VWS V14.00,2013-01-28 21:26:00,
2013-01-28 16:27:00,63.8,56.1,30.30,ENE,63,1.0,2.0,76,0.00,,---,0.00,VWS V14.00,2013-01-28 21:27:00,
2013-01-28 16:28:00,63.8,56.1,30.30,ENE,63,1.0,2.0,76,0.00,,---,0.00,VWS V14.00,2013-01-28 21:28:00,
2013-01-28 16:29:00,63.7,56.0,30.30,ENE,62,0.0,3.0,76,0.00,,---,0.00,VWS V14.00,2013-01-28 21:29:00,
2013-01-28 16:30:00,63.4,55.7,30.30,ENE,62,0.0,0.0,76,0.00,,---,0.00,VWS V14.00,2013-01-28 21:30:00,
2013-01-28 16:31:00,63.6,55.9,30.30,ENE,62,0.0,2.0,76,0.00,,---,0.00,VWS V14.00,2013-01-28 21:31:00,
2013-01-28 16:32:00,63.6,55.9,30.30,ENE,62,0.0,0.0,76,0.00,,---,0.00,VWS V14.00,2013-01-28 21:32:00,
2013-01-28 16:33:00,63.5,55.8,30.30,ENE,62,0.0,0.0,76,0.00,,---,0.00,VWS V14.00,2013-01-28 21:33:00,
2013-01-28 16:34:00,63.5,55.8,30.30,ENE,62,0.0,3.0,76,0.00,,---,0.00,VWS V14.00,2013-01-28 21:34:00,
2013-01-28 16:35:00,63.2,55.9,30.30,ENE,62,0.0,0.0,77,0.00,,---,0.00,VWS V14.00,2013-01-28 21:35:00,
2013-01-28 16:36:00,63.4,55.7,30.30,ENE,62,0.0,1.0,76,0.00,,---,0.00,VWS V14.00,2013-01-28 21:36:00,
2013-01-28 16:37:00,63.4,55.7,30.30,ENE,62,0.0,0.0,76,0.00,,---,0.00,VWS V14.00,2013-01-28 21:37:00,
2013-01-28 16:38:00,63.3,56.0,30.30,ENE,62,1.0,1.0,77,0.00,,---,0.00,VWS V14.00,2013-01-28 21:38:00,
2013-01-28 16:39:00,63.3,56.0,30.30,ENE,62,0.0,1.0,77,0.00,,---,0.00,VWS V14.00,2013-01-28 21:39:00,
2013-01-28 16:40:00,63.1,55.8,30.30,ENE,62,0.0,0.0,77,0.00,,---,0.00,VWS V14.00,2013-01-28 21:40:00,
2013-01-28 16:41:00,63.2,55.9,30.30,ENE,62,0.0,0.0,77,0.00,,---,0.00,VWS V14.00,2013-01-28 21:41:00,
2013-01-28 16:42:00,63.2,55.9,30.30,ENE,62,1.0,1.0,77,0.00,,---,0.00,VWS V14.00,2013-01-28 21:42:00,
2013-01-28 16:43:00,63.2,55.9,30.30,ENE,62,1.0,1.0,77,0.00,,---,0.00,VWS V14.00,2013-01-28 21:43:00,
2013-01-28 16:44:00,63.1,55.8,30.30,ENE,62,0.0,1.0,77,0.00,,---,0.00,VWS V14.00,2013-01-28 21:44:00,
2013-01-28 16:45:00,63.0,55.7,30.30,ENE,62,0.0,0.0,77,0.00,,---,0.00,VWS V14.00,2013-01-28 21:45:00,
2013-01-28 16:46:00,63.1,55.8,30.30,ENE,62,0.0,1.0,77,0.00,,---,0.00,VWS V14.00,2013-01-28 21:46:00,
2013-01-28 16:47:00,63.1,55.8,30.30,ENE,62,0.0,0.0,77,0.00,,---,0.00,VWS V14.00,2013-01-28 21:47:00,
2013-01-28 16:48:00,63.1,55.8,30.30,ENE,62,0.0,0.0,77,0.00,,---,0.00,VWS V14.00,2013-01-28 21:48:00,
2013-01-28 16:49:00,63.0,55.7,30.30,ENE,62,0.0,0.0,77,0.00,,---,0.00,VWS V14.00,2013-01-28 21:49:00,
2013-01-28 16:50:00,62.8,55.5,30.30,ENE,62,0.0,0.0,77,0.00,,---,0.00,VWS V14.00,2013-01-28 21:50:00,
2013-01-28 16:51:00,62.9,55.6,30.30,ENE,62,0.0,1.0,77,0.00,,---,0.00,VWS V14.00,2013-01-28 21:51:00,
2013-01-28 16:52:00,62.9,55.6,30.30,ENE,62,0.0,0.0,77,0.00,,---,0.00,VWS V14.00,2013-01-28 21:52:00,
2013-01-28 16:53:00,62.9,55.6,30.30,ENE,62,0.0,0.0,77,0.00,,---,0.00,VWS V14.00,2013-01-28 21:53:00,
2013-01-28 16:54:00,62.8,55.5,30.30,ENE,62,0.0,0.0,77,0.00,,---,0.00,VWS V14.00,2013-01-28 21:54:00,
2013-01-28 16:55:00,62.7,55.8,30.30,ENE,62,0.0,0.0,78,0.00,,---,0.00,VWS V14.00,2013-01-28 21:55:00,
2013-01-28 16:56:00,62.8,55.8,30.30,ENE,62,0.0,1.0,78,0.00,,---,0.00,VWS V14.00,2013-01-28 21:56:00,
2013-01-28 16:57:00,62.7,55.8,30.30,ENE,62,0.0,0.0,78,0.00,,---,0.00,VWS V14.00,2013-01-28 21:57:00,
2013-01-28 16:58:00,62.7,55.8,30.30,ENE,62,0.0,0.0,78,0.00,,---,0.00,VWS V14.00,2013-01-28 21:58:00,
2013-01-28 16:59:00,62.7,55.8,30.30,ENE,62,0.0,0.0,78,0.00,,---,0.00,VWS V14.00,2013-01-28 21:59:00,
2013-01-28 17:00:00,62.5,55.6,30.30,ENE,62,0.0,0.0,78,0.00,,---,0.00,VWS V14.00,2013-01-28 22:00:00,
2013-01-28 17:01:00,62.6,55.7,30.30,ENE,62,0.0,0.0,78,0.00,,---,0.00,VWS V14.00,2013-01-28 22:01:00,
2013-01-28 17:02:00,62.6,55.7,30.30,ENE,62,0.0,0.0,78,0.00,,---,0.00,VWS V14.00,2013-01-28 22:02:00,
2013-01-28 17:03:00,62.5,55.6,30.30,ENE,62,0.0,0.0,78,0.00,,---,0.00,VWS V14.00,2013-01-28 22:03:00,
2013-01-28 17:04:00,62.5,55.6,30.30,ENE,62,0.0,0.0,78,0.00,,---,0.00,VWS V14.00,2013-01-28 22:04:00,
2013-01-28 17:05:00,62.3,55.7,30.30,ENE,62,0.0,0.0,79,0.00,,---,0.00,VWS V14.00,2013-01-28 22:05:00,
2013-01-28 17:06:00,62.5,55.6,30.30,ENE,62,0.0,0.0,78,0.00,,---,0.00,VWS V14.00,2013-01-28 22:06:00,
2013-01-28 17:07:00,62.4,55.5,30.30,ENE,62,0.0,0.0,78,0.00,,---,0.00,VWS V14.00,2013-01-28 22:07:00,
2013-01-28 17:08:00,62.4,55.5,30.31,ENE,62,0.0,0.0,78,0.00,,---,0.00,VWS V14.00,2013-01-28 22:08:00,
2013-01-28 17:09:00,62.3,55.4,30.30,ENE,62,0.0,0.0,78,0.00,,---,0.00,VWS V14.00,2013-01-28 22:09:00,
2013-01-28 17:10:00,62.2,55.6,30.30,ENE,62,0.0,0.0,79,0.00,,---,0.00,VWS V14.00,2013-01-28 22:10:00,
2013-01-28 17:11:00,62.3,55.7,30.30,ENE,62,0.0,0.0,79,0.00,,---,0.00,VWS V14.00,2013-01-28 22:11:00,
2013-01-28 17:12:00,62.3,55.7,30.30,ENE,62,0.0,0.0,79,0.00,,---,0.00,VWS V14.00,2013-01-28 22:12:00,
2013-01-28 17:13:00,62.2,55.6,30.30,ENE,62,0.0,0.0,79,0.00,,---,0.00,VWS V14.00,2013-01-28 22:13:00,
2013-01-28 17:14:00,62.2,55.6,30.30,ENE,62,0.0,0.0,79,0.00,,---,0.00,VWS V14.00,2013-01-28 22:14:00,
2013-01-28 17:15:00,62.0,55.8,30.31,ENE,62,0.0,0.0,80,0.00,,---,0.00,VWS V14.00,2013-01-28 22:15:00,
2013-01-28 17:16:00,62.2,55.6,30.30,ENE,62,0.0,0.0,79,0.00,,---,0.00,VWS V14.00,2013-01-28 22:16:00,
2013-01-28 17:17:00,62.1,55.9,30.30,ENE,62,0.0,0.0,80,0.00,,---,0.00,VWS V14.00,2013-01-28 22:17:00,
2013-01-28 17:18:00,62.1,55.9,30.30,ENE,62,0.0,0.0,80,0.00,,---,0.00,VWS V14.00,2013-01-28 22:18:00,
2013-01-28 17:19:00,62.0,55.8,30.31,ENE,62,0.0,0.0,80,0.00,,---,0.00,VWS V14.00,2013-01-28 22:19:00,
2013-01-28 17:20:00,61.8,55.6,30.31,ENE,62,0.0,0.0,80,0.00,,---,0.00,VWS V14.00,2013-01-28 22:20:00,
2013-01-28 17:21:00,62.0,55.8,30.31,ENE,62,0.0,0.0,80,0.00,,---,0.00,VWS V14.00,2013-01-28 22:21:00,
2013-01-28 17:22:00,61.9,55.7,30.31,ENE,62,0.0,0.0,80,0.00,,---,0.00,VWS V14.00,2013-01-28 22:22:00,
2013-01-28 17:23:00,61.9,55.7,30.31,ENE,62,0.0,0.0,80,0.00,,---,0.00,VWS V14.00,2013-01-28 22:23:00,
2013-01-28 17:24:00,61.8,55.6,30.31,ENE,62,0.0,0.0,80,0.00,,---,0.00,VWS V14.00,2013-01-28 22:24:00,
2013-01-28 17:25:00,61.6,55.7,30.31,ENE,62,0.0,0.0,81,0.00,,---,0.00,VWS V14.00,2013-01-28 22:25:00,
2013-01-28 17:26:00,61.8,55.6,30.31,ENE,62,0.0,0.0,80,0.00,,---,0.00,VWS V14.00,2013-01-28 22:26:00,
2013-01-28 17:27:00,61.7,55.5,30.31,ENE,62,0.0,0.0,80,0.00,,---,0.00,VWS V14.00,2013-01-28 22:27:00,
2013-01-28 17:28:00,61.7,55.5,30.31,ENE,62,0.0,1.0,80,0.00,,---,0.00,VWS V14.00,2013-01-28 22:28:00,
2013-01-28 17:29:00,61.6,55.4,30.31,ENE,62,0.0,0.0,80,0.00,,---,0.00,VWS V14.00,2013-01-28 22:29:00,
2013-01-28 17:30:00,61.4,55.5,30.31,ENE,62,0.0,0.0,81,0.00,,---,0.00,VWS V14.00,2013-01-28 22:30:00,
2013-01-28 17:31:00,61.6,55.7,30.31,ENE,62,0.0,0.0,81,0.00,,---,0.00,VWS V14.00,2013-01-28 22:31:00,
2013-01-28 17:32:00,61.5,55.6,30.31,ENE,62,0.0,0.0,81,0.00,,---,0.00,VWS V14.00,2013-01-28 22:32:00,
2013-01-28 17:33:00,61.5,55.6,30.31,ENE,62,0.0,0.0,81,0.00,,---,0.00,VWS V14.00,2013-01-28 22:33:00,
2013-01-28 17:34:00,61.4,55.5,30.31,ENE,62,0.0,0.0,81,0.00,,---,0.00,VWS V14.00,2013-01-28 22:34:00,
2013-01-28 17:35:00,61.1,55.2,30.31,ENE,62,0.0,0.0,81,0.00,,---,0.00,VWS V14.00,2013-01-28 22:35:00,
2013-01-28 17:36:00,61.3,55.4,30.31,ENE,62,0.0,0.0,81,0.00,,---,0.00,VWS V14.00,2013-01-28 22:36:00,
2013-01-28 17:37:00,61.3,55.4,30.31,ENE,62,0.0,0.0,81,0.00,,---,0.00,VWS V14.00,2013-01-28 22:37:00,
2013-01-28 17:38:00,61.2,55.3,30.31,ENE,62,0.0,0.0,81,0.00,,---,0.00,VWS V14.00,2013-01-28 22:38:00,
2013-01-28 17:39:00,61.2,55.3,30.31,ENE,62,0.0,0.0,81,0.00,,---,0.00,VWS V14.00,2013-01-28 22:39:00,
2013-01-28 17:40:00,60.9,55.0,30.31,ENE,62,0.0,0.0,81,0.00,,---,0.00,VWS V14.00,2013-01-28 22:40:00,
2013-01-28 17:41:00,61.1,55.2,30.31,ENE,62,0.0,0.0,81,0.00,,---,0.00,VWS V14.00,2013-01-28 22:41:00,
2013-01-28 17:42:00,61.1,55.2,30.31,ENE,62,0.0,0.0,81,0.00,,---,0.00,VWS V14.00,2013-01-28 22:42:00,
2013-01-28 17:43:00,61.0,55.1,30.31,ENE,62,0.0,0.0,81,0.00,,---,0.00,VWS V14.00,2013-01-28 22:43:00,
2013-01-28 17:44:00,60.9,55.0,30.31,ENE,62,0.0,0.0,81,0.00,,---,0.00,VWS V14.00,2013-01-28 22:44:00,
2013-01-28 17:45:00,60.6,54.8,30.31,ENE,62,0.0,0.0,81,0.00,,---,0.00,VWS V14.00,2013-01-28 22:45:00,
2013-01-28 17:46:00,60.8,54.9,30.31,ENE,62,0.0,0.0,81,0.00,,---,0.00,VWS V14.00,2013-01-28 22:46:00,
2013-01-28 17:47:00,60.8,54.9,30.31,ENE,62,0.0,0.0,81,0.00,,---,0.00,VWS V14.00,2013-01-28 22:47:00,
2013-01-28 17:48:00,60.7,54.8,30.31,ENE,62,0.0,0.0,81,0.00,,---,0.00,VWS V14.00,2013-01-28 22:48:00,
2013-01-28 17:49:00,60.7,54.8,30.31,ENE,62,0.0,0.0,81,0.00,,---,0.00,VWS V14.00,2013-01-28 22:49:00,
2013-01-28 17:50:00,60.4,54.9,30.30,ENE,62,0.0,0.0,82,0.00,,---,0.00,VWS V14.00,2013-01-28 22:50:00,
2013-01-28 17:51:00,60.6,54.8,30.31,ENE,62,0.0,0.0,81,0.00,,---,0.00,VWS V14.00,2013-01-28 22:51:00,
2013-01-28 17:52:00,60.5,54.7,30.31,ENE,62,0.0,0.0,81,0.00,,---,0.00,VWS V14.00,2013-01-28 22:52:00,
2013-01-28 17:53:00,60.4,54.5,30.31,ENE,62,0.0,0.0,81,0.00,,---,0.00,VWS V14.00,2013-01-28 22:53:00,
2013-01-28 17:54:00,60.4,54.5,30.31,ENE,62,0.0,0.0,81,0.00,,---,0.00,VWS V14.00,2013-01-28 22:54:00,
2013-01-28 17:55:00,60.2,54.7,30.31,ENE,62,0.0,0.0,82,0.00,,---,0.00,VWS V14.00,2013-01-28 22:55:00,
2013-01-28 17:56:00,60.3,54.8,30.30,ENE,62,0.0,0.0,82,0.00,,---,0.00,VWS V14.00,2013-01-28 22:56:00,
2013-01-28 17:57:00,60.3,54.8,30.30,ENE,62,0.0,0.0,82,0.00,,---,0.00,VWS V14.00,2013-01-28 22:57:00,
2013-01-28 17:58:00,60.3,54.8,30.30,ENE,62,0.0,0.0,82,0.00,,---,0.00,VWS V14.00,2013-01-28 22:58:00,
2013-01-28 17:59:00,60.2,54.7,30.30,ENE,62,0.0,0.0,82,0.00,,---,0.00,VWS V14.00,2013-01-28 22:59:00,
2013-01-28 18:00:00,60.0,54.5,30.31,ENE,62,0.0,0.0,82,0.00,,---,0.00,VWS V14.00,2013-01-28 23:00:00,
2013-01-28 18:01:00,60.1,54.6,30.31,ENE,62,0.0,0.0,82,0.00,,---,0.00,VWS V14.00,2013-01-28 23:01:00,
2013-01-28 18:03:00,60.0,54.5,30.31,ENE,62,0.0,0.0,82,0.00,,---,0.00,VWS V14.00,2013-01-28 23:03:00,
2013-01-28 18:04:00,60.0,54.5,30.31,ENE,62,0.0,0.0,82,0.00,,---,0.00,VWS V14.00,2013-01-28 23:04:00,
2013-01-28 18:05:00,59.7,54.2,30.31,ENE,62,0.0,0.0,82,0.00,,---,0.00,VWS V14.00,2013-01-28 23:05:00,
2013-01-28 18:06:00,59.9,54.4,30.31,ENE,62,0.0,0.0,82,0.00,,---,0.00,VWS V14.00,2013-01-28 23:06:00,
2013-01-28 18:08:00,59.8,54.3,30.31,ENE,62,0.0,0.0,82,0.00,,---,0.00,VWS V14.00,2013-01-28 23:08:00,
2013-01-28 18:09:00,59.8,54.3,30.31,ENE,62,0.0,0.0,82,0.00,,---,0.00,VWS V14.00,2013-01-28 23:09:00,
2013-01-28 18:10:00,59.4,54.2,30.30,ENE,62,0.0,0.0,83,0.00,,---,0.00,VWS V14.00,2013-01-28 23:10:00,
2013-01-28 18:11:00,59.7,54.2,30.31,ENE,62,0.0,0.0,82,0.00,,---,0.00,VWS V14.00,2013-01-28 23:11:00,
2013-01-28 18:12:00,59.6,54.4,30.31,ENE,62,0.0,0.0,83,0.00,,---,0.00,VWS V14.00,2013-01-28 23:12:00,
2013-01-28 18:13:00,59.6,54.4,30.31,ENE,62,0.0,0.0,83,0.00,,---,0.00,VWS V14.00,2013-01-28 23:13:00,
2013-01-28 18:14:00,59.5,54.3,30.31,ENE,62,0.0,0.0,83,0.00,,---,0.00,VWS V14.00,2013-01-28 23:14:00,
2013-01-28 18:15:00,59.2,54.0,30.30,ENE,62,0.0,0.0,83,0.00,,---,0.00,VWS V14.00,2013-01-28 23:15:00,
2013-01-28 18:16:00,59.4,54.2,30.30,ENE,62,0.0,0.0,83,0.00,,---,0.00,VWS V14.00,2013-01-28 23:16:00,
2013-01-28 18:17:00,59.4,54.2,30.31,ENE,62,0.0,0.0,83,0.00,,---,0.00,VWS V14.00,2013-01-28 23:17:00,
2013-01-28 18:18:00,59.3,54.2,30.31,ENE,62,0.0,0.0,83,0.00,,---,0.00,VWS V14.00,2013-01-28 23:18:00,
2013-01-28 18:19:00,59.3,54.2,30.30,ENE,62,0.0,0.0,83,0.00,,---,0.00,VWS V14.00,2013-01-28 23:19:00,
2013-01-28 18:20:00,58.9,53.8,30.31,ENE,62,0.0,0.0,83,0.00,,---,0.00,VWS V14.00,2013-01-28 23:20:00,
2013-01-28 18:21:00,59.1,54.0,30.30,ENE,62,0.0,0.0,83,0.00,,---,0.00,VWS V14.00,2013-01-28 23:21:00,
2013-01-28 18:22:00,59.1,54.0,30.31,ENE,62,0.0,0.0,83,0.00,,---,0.00,VWS V14.00,2013-01-28 23:22:00,
2013-01-28 18:23:00,59.0,53.8,30.30,ENE,62,0.0,0.0,83,0.00,,---,0.00,VWS V14.00,2013-01-28 23:23:00,
2013-01-28 18:24:00,59.0,53.8,30.30,ENE,62,0.0,0.0,83,0.00,,---,0.00,VWS V14.00,2013-01-28 23:24:00,
2013-01-28 18:25:00,58.6,53.5,30.30,ENE,62,0.0,0.0,83,0.00,,---,0.00,VWS V14.00,2013-01-28 23:25:00,
2013-01-28 18:26:00,58.9,53.8,30.31,ENE,62,0.0,0.0,83,0.00,,---,0.00,VWS V14.00,2013-01-28 23:26:00,
2013-01-28 18:27:00,58.8,53.7,30.31,ENE,62,0.0,0.0,83,0.00,,---,0.00,VWS V14.00,2013-01-28 23:27:00,
2013-01-28 18:28:00,58.8,53.7,30.30,ENE,62,0.0,0.0,83,0.00,,---,0.00,VWS V14.00,2013-01-28 23:28:00,
2013-01-28 18:29:00,58.7,53.6,30.30,ENE,62,0.0,0.0,83,0.00,,---,0.00,VWS V14.00,2013-01-28 23:29:00,
2013-01-28 18:30:00,58.3,53.5,30.30,ENE,62,0.0,0.0,84,0.00,,---,0.00,VWS V14.00,2013-01-28 23:30:00,
2013-01-28 18:31:00,58.6,53.5,30.30,ENE,62,0.0,0.0,83,0.00,,---,0.00,VWS V14.00,2013-01-28 23:31:00,
2013-01-28 18:32:00,58.5,53.4,30.30,ENE,62,0.0,0.0,83,0.00,,---,0.00,VWS V14.00,2013-01-28 23:32:00,
2013-01-28 18:33:00,58.5,53.4,30.30,ENE,62,0.0,0.0,83,0.00,,---,0.00,VWS V14.00,2013-01-28 23:33:00,
2013-01-28 18:34:00,58.4,53.3,30.30,ENE,62,0.0,0.0,83,0.00,,---,0.00,VWS V14.00,2013-01-28 23:34:00,
2013-01-28 18:35:00,58.0,53.2,30.30,ENE,62,0.0,0.0,84,0.00,,---,0.00,VWS V14.00,2013-01-28 23:35:00,
2013-01-28 18:36:00,58.3,53.5,30.30,ENE,62,0.0,0.0,84,0.00,,---,0.00,VWS V14.00,2013-01-28 23:36:00,
2013-01-28 18:37:00,58.2,53.4,30.30,ENE,62,0.0,0.0,84,0.00,,---,0.00,VWS V14.00,2013-01-28 23:37:00,
2013-01-28 18:38:00,58.2,53.4,30.30,ENE,62,0.0,0.0,84,0.00,,---,0.00,VWS V14.00,2013-01-28 23:38:00,
2013-01-28 18:39:00,58.1,53.3,30.30,ENE,62,0.0,0.0,84,0.00,,---,0.00,VWS V14.00,2013-01-28 23:39:00,
2013-01-28 18:40:00,57.7,52.9,30.30,ENE,62,0.0,0.0,84,0.00,,---,0.00,VWS V14.00,2013-01-28 23:40:00,
2013-01-28 18:41:00,58.0,53.2,30.30,ENE,62,0.0,0.0,84,0.00,,---,0.00,VWS V14.00,2013-01-28 23:41:00,
2013-01-28 18:42:00,57.9,53.1,30.30,ENE,62,0.0,0.0,84,0.00,,---,0.00,VWS V14.00,2013-01-28 23:42:00,
2013-01-28 18:43:00,57.8,53.0,30.30,ENE,62,0.0,0.0,84,0.00,,---,0.00,VWS V14.00,2013-01-28 23:43:00,
2013-01-28 18:44:00,57.8,53.0,30.30,ENE,62,0.0,0.0,84,0.00,,---,0.00,VWS V14.00,2013-01-28 23:44:00,
2013-01-28 18:45:00,57.4,52.6,30.30,ENE,62,0.0,0.0,84,0.00,,---,0.00,VWS V14.00,2013-01-28 23:45:00,
2013-01-28 18:46:00,57.7,52.9,30.30,ENE,62,0.0,0.0,84,0.00,,---,0.00,VWS V14.00,2013-01-28 23:46:00,
2013-01-28 18:47:00,57.6,52.8,30.30,ENE,62,0.0,0.0,84,0.00,,---,0.00,VWS V14.00,2013-01-28 23:47:00,
2013-01-28 18:48:00,57.6,52.8,30.30,ENE,62,0.0,0.0,84,0.00,,---,0.00,VWS V14.00,2013-01-28 23:48:00,
2013-01-28 18:49:00,57.5,52.7,30.30,ENE,62,0.0,0.0,84,0.00,,---,0.00,VWS V14.00,2013-01-28 23:49:00,
2013-01-28 18:50:00,57.2,52.7,30.30,ENE,62,0.0,0.0,85,0.00,,---,0.00,VWS V14.00,2013-01-28 23:50:00,
2013-01-28 18:51:00,57.4,52.6,30.30,ENE,62,0.0,0.0,84,0.00,,---,0.00,VWS V14.00,2013-01-28 23:51:00,
2013-01-28 18:52:00,57.3,52.8,30.30,ENE,62,0.0,0.0,85,0.00,,---,0.00,VWS V14.00,2013-01-28 23:52:00,
2013-01-28 18:53:00,57.3,52.8,30.30,ENE,62,0.0,0.0,85,0.00,,---,0.00,VWS V14.00,2013-01-28 23:53:00,
2013-01-28 18:54:00,57.2,52.7,30.30,ENE,62,0.0,0.0,85,0.00,,---,0.00,VWS V14.00,2013-01-28 23:54:00,
2013-01-28 18:55:00,56.9,52.4,30.31,ENE,62,0.0,0.0,85,0.00,,---,0.00,VWS V14.00,2013-01-28 23:55:00,
2013-01-28 18:56:00,57.1,52.6,30.31,ENE,62,0.0,0.0,85,0.00,,---,0.00,VWS V14.00,2013-01-28 23:56:00,
2013-01-28 18:57:00,57.1,52.6,30.30,ENE,62,0.0,0.0,85,0.00,,---,0.00,VWS V14.00,2013-01-28 23:57:00,
2013-01-28 18:58:00,57.0,52.5,30.30,ENE,62,0.0,0.0,85,0.00,,---,0.00,VWS V14.00,2013-01-28 23:58:00,
2013-01-28 18:59:00,56.9,52.4,30.31,ENE,62,0.0,0.0,85,0.00,,---,0.00,VWS V14.00,2013-01-28 23:59:00,
2013-01-28 19:00:00,56.7,52.6,30.30,ENE,62,0.0,0.0,86,0.00,,---,0.00,VWS V14.00,2013-01-29 00:00:00,
2013-01-28 19:01:00,56.9,52.4,30.30,ENE,62,0.0,0.0,85,0.00,,---,0.00,VWS V14.00,2013-01-29 00:01:00,
2013-01-28 19:02:00,56.8,52.3,30.30,ENE,62,0.0,0.0,85,0.00,,---,0.00,VWS V14.00,2013-01-29 00:02:00,
2013-01-28 19:03:00,56.8,52.3,30.30,ENE,62,0.0,0.0,85,0.00,,---,0.00,VWS V14.00,2013-01-29 00:03:00,
2013-01-28 19:04:00,56.7,52.6,30.30,ENE,62,0.0,0.0,86,0.00,,---,0.00,VWS V14.00,2013-01-29 00:04:00,
2013-01-28 19:05:00,56.5,52.4,30.30,ENE,62,0.0,0.0,86,0.00,,---,0.00,VWS V14.00,2013-01-29 00:05:00,
2013-01-28 19:06:00,56.6,52.5,30.30,ENE,62,0.0,0.0,86,0.00,,---,0.00,VWS V14.00,2013-01-29 00:06:00,
2013-01-28 19:07:00,56.6,52.5,30.30,ENE,62,0.0,0.0,86,0.00,,---,0.00,VWS V14.00,2013-01-29 00:07:00,
2013-01-28 19:08:00,56.5,52.4,30.30,ENE,62,0.0,0.0,86,0.00,,---,0.00,VWS V14.00,2013-01-29 00:08:00,
2013-01-28 19:09:00,56.5,52.4,30.30,ENE,62,0.0,0.0,86,0.00,,---,0.00,VWS V14.00,2013-01-29 00:09:00,
2013-01-28 19:10:00,56.3,52.2,30.30,ENE,62,0.0,0.0,86,0.00,,---,0.00,VWS V14.00,2013-01-29 00:10:00,
2013-01-28 19:11:00,56.4,52.3,30.30,ENE,62,0.0,0.0,86,0.00,,---,0.00,VWS V14.00,2013-01-29 00:11:00,
2013-01-28 19:12:00,56.4,52.3,30.30,ENE,62,0.0,0.0,86,0.00,,---,0.00,VWS V14.00,2013-01-29 00:12:00,
2013-01-28 19:13:00,56.3,52.2,30.30,ENE,62,0.0,0.0,86,0.00,,---,0.00,VWS V14.00,2013-01-29 00:13:00,
2013-01-28 19:14:00,56.3,52.2,30.30,ENE,62,0.0,0.0,86,0.00,,---,0.00,VWS V14.00,2013-01-29 00:14:00,
2013-01-28 19:15:00,56.0,52.2,30.30,ENE,62,0.0,0.0,87,0.00,,---,0.00,VWS V14.00,2013-01-29 00:15:00,
2013-01-28 19:16:00,56.2,52.1,30.31,ENE,62,0.0,0.0,86,0.00,,---,0.00,VWS V14.00,2013-01-29 00:16:00,
2013-01-28 19:17:00,56.1,52.0,30.30,ENE,62,0.0,0.0,86,0.00,,---,0.00,VWS V14.00,2013-01-29 00:17:00,
2013-01-28 19:18:00,56.1,52.0,30.30,ENE,62,0.0,0.0,86,0.00,,---,0.00,VWS V14.00,2013-01-29 00:18:00,
2013-01-28 19:19:00,56.0,51.9,30.30,ENE,62,0.0,0.0,86,0.00,,---,0.00,VWS V14.00,2013-01-29 00:19:00,
2013-01-28 19:20:00,55.8,52.0,30.30,ENE,62,0.0,0.0,87,0.00,,---,0.00,VWS V14.00,2013-01-29 00:20:00,
2013-01-28 19:21:00,55.9,51.8,30.30,ENE,62,0.0,0.0,86,0.00,,---,0.00,VWS V14.00,2013-01-29 00:21:00,
2013-01-28 19:22:00,55.9,52.1,30.30,ENE,62,0.0,0.0,87,0.00,,---,0.00,VWS V14.00,2013-01-29 00:22:00,
2013-01-28 19:23:00,55.8,52.0,30.30,ENE,62,0.0,0.0,87,0.00,,---,0.00,VWS V14.00,2013-01-29 00:23:00,
2013-01-28 19:24:00,55.8,52.0,30.30,ENE,62,0.0,0.0,87,0.00,,---,0.00,VWS V14.00,2013-01-29 00:24:00,
2013-01-28 19:25:00,55.5,51.7,30.30,ENE,62,0.0,0.0,87,0.00,,---,0.00,VWS V14.00,2013-01-29 00:25:00,
2013-01-28 19:26:00,55.7,51.9,30.30,ENE,62,0.0,0.0,87,0.00,,---,0.00,VWS V14.00,2013-01-29 00:26:00,
2013-01-28 19:27:00,55.7,51.9,30.30,ENE,62,0.0,0.0,87,0.00,,---,0.00,VWS V14.00,2013-01-29 00:27:00,
2013-01-28 19:28:00,55.6,51.8,30.30,ENE,62,0.0,0.0,87,0.00,,---,0.00,VWS V14.00,2013-01-29 00:28:00,
2013-01-28 19:29:00,55.6,51.8,30.30,ENE,62,0.0,0.0,87,0.00,,---,0.00,VWS V14.00,2013-01-29 00:29:00,
2013-01-28 19:30:00,55.3,51.5,30.30,ENE,62,0.0,0.0,87,0.00,,---,0.00,VWS V14.00,2013-01-29 00:30:00,
2013-01-28 19:31:00,55.5,51.7,30.30,ENE,62,0.0,0.0,87,0.00,,---,0.00,VWS V14.00,2013-01-29 00:31:00,
2013-01-28 19:32:00,55.4,51.6,30.30,ENE,62,0.0,0.0,87,0.00,,---,0.00,VWS V14.00,2013-01-29 00:32:00,
2013-01-28 19:33:00,55.4,51.6,30.30,ENE,62,0.0,0.0,87,0.00,,---,0.00,VWS V14.00,2013-01-29 00:33:00,
2013-01-28 19:34:00,55.4,51.6,30.30,ENE,62,0.0,0.0,87,0.00,,---,0.00,VWS V14.00,2013-01-29 00:34:00,
2013-01-28 19:35:00,55.1,51.3,30.30,ENE,62,0.0,0.0,87,0.00,,---,0.00,VWS V14.00,2013-01-29 00:35:00,
2013-01-28 19:36:00,55.3,51.5,30.30,ENE,62,0.0,0.0,87,0.00,,---,0.00,VWS V14.00,2013-01-29 00:36:00,
2013-01-28 19:37:00,55.2,51.4,30.30,ENE,62,0.0,0.0,87,0.00,,---,0.00,VWS V14.00,2013-01-29 00:37:00,
2013-01-28 19:38:00,55.2,51.4,30.30,ENE,62,0.0,0.0,87,0.00,,---,0.00,VWS V14.00,2013-01-29 00:38:00,
2013-01-28 19:39:00,54.9,51.4,30.30,ENE,62,0.0,0.0,88,0.00,,---,0.00,VWS V14.00,2013-01-29 00:39:00,
2013-01-28 19:40:00,55.1,51.3,30.30,ENE,62,0.0,0.0,87,0.00,,---,0.00,VWS V14.00,2013-01-29 00:40:00,
2013-01-28 19:41:00,55.0,51.2,30.30,ENE,62,0.0,0.0,87,0.00,,---,0.00,VWS V14.00,2013-01-29 00:41:00,
2013-01-28 19:42:00,55.0,51.2,30.30,ENE,62,0.0,0.0,87,0.00,,---,0.00,VWS V14.00,2013-01-29 00:42:00,
2013-01-28 19:43:00,55.0,51.2,30.30,ENE,62,0.0,0.0,87,0.00,,---,0.00,VWS V14.00,2013-01-29 00:43:00,
2013-01-28 19:44:00,54.7,51.2,30.30,ENE,62,0.0,0.0,88,0.00,,---,0.00,VWS V14.00,2013-01-29 00:44:00,
2013-01-28 19:45:00,54.9,51.4,30.30,ENE,62,0.0,0.0,88,0.00,,---,0.00,VWS V14.00,2013-01-29 00:45:00,
2013-01-28 19:46:00,54.9,51.4,30.30,ENE,62,0.0,0.0,88,0.00,,---,0.00,VWS V14.00,2013-01-29 00:46:00,
2013-01-28 19:47:00,54.8,51.0,30.30,ENE,62,0.0,0.0,87,0.00,,---,0.00,VWS V14.00,2013-01-29 00:47:00,
2013-01-28 19:48:00,54.8,51.0,30.30,ENE,62,0.0,0.0,87,0.00,,---,0.00,VWS V14.00,2013-01-29 00:48:00,
2013-01-28 19:49:00,54.5,51.0,30.29,ENE,62,0.0,0.0,88,0.00,,---,0.00,VWS V14.00,2013-01-29 00:49:00,
2013-01-28 19:50:00,54.7,51.2,30.30,ENE,62,0.0,0.0,88,0.00,,---,0.00,VWS V14.00,2013-01-29 00:50:00,
2013-01-28 19:51:00,54.7,51.2,30.30,ENE,62,0.0,0.0,88,0.00,,---,0.00,VWS V14.00,2013-01-29 00:51:00,
2013-01-28 19:52:00,54.6,51.1,30.30,ENE,62,0.0,0.0,88,0.00,,---,0.00,VWS V14.00,2013-01-29 00:52:00,
2013-01-28 19:53:00,54.6,51.1,30.29,ENE,62,0.0,0.0,88,0.00,,---,0.00,VWS V14.00,2013-01-29 00:53:00,
2013-01-28 19:54:00,54.4,50.9,30.29,ENE,62,0.0,0.0,88,0.00,,---,0.00,VWS V14.00,2013-01-29 00:54:00,
2013-01-28 19:55:00,54.6,51.1,30.29,ENE,62,0.0,0.0,88,0.00,,---,0.00,VWS V14.00,2013-01-29 00:55:00,
2013-01-28 19:56:00,54.5,51.0,30.29,ENE,62,0.0,0.0,88,0.00,,---,0.00,VWS V14.00,2013-01-29 00:56:00,
2013-01-28 19:57:00,54.5,51.0,30.29,ENE,62,0.0,0.0,88,0.00,,---,0.00,VWS V14.00,2013-01-29 00:57:00,
2013-01-28 19:58:00,54.4,50.9,30.29,ENE,62,0.0,0.0,88,0.00,,---,0.00,VWS V14.00,2013-01-29 00:58:00,
2013-01-28 19:59:00,54.2,50.7,30.30,ENE,62,0.0,0.0,88,0.00,,---,0.00,VWS V14.00,2013-01-29 00:59:00,
2013-01-28 20:00:00,54.4,50.9,30.29,ENE,62,0.0,0.0,88,0.00,,---,0.00,VWS V14.00,2013-01-29 01:00:00,
2013-01-28 20:01:00,54.4,50.9,30.29,ENE,62,0.0,0.0,88,0.00,,---,0.00,VWS V14.00,2013-01-29 01:01:00,
2013-01-28 20:02:00,54.3,50.8,30.29,ENE,62,0.0,0.0,88,0.00,,---,0.00,VWS V14.00,2013-01-29 01:02:00,
2013-01-28 20:03:00,54.3,50.8,30.29,ENE,62,0.0,0.0,88,0.00,,---,0.00,VWS V14.00,2013-01-29 01:03:00,
2013-01-28 20:04:00,54.1,50.6,30.30,ENE,62,0.0,0.0,88,0.00,,---,0.00,VWS V14.00,2013-01-29 01:04:00,
2013-01-28 20:05:00,54.2,50.7,30.30,ENE,62,0.0,0.0,88,0.00,,---,0.00,VWS V14.00,2013-01-29 01:05:00,
2013-01-28 20:06:00,54.2,50.7,30.30,ENE,62,0.0,0.0,88,0.00,,---,0.00,VWS V14.00,2013-01-29 01:06:00,
2013-01-28 20:07:00,54.2,50.7,30.30,ENE,62,0.0,0.0,88,0.00,,---,0.00,VWS V14.00,2013-01-29 01:07:00,
2013-01-28 20:08:00,54.1,50.6,30.30,ENE,62,0.0,0.0,88,0.00,,---,0.00,VWS V14.00,2013-01-29 01:08:00,
2013-01-28 20:09:00,53.9,50.4,30.29,ENE,62,0.0,0.0,88,0.00,,---,0.00,VWS V14.00,2013-01-29 01:09:00,
2013-01-28 20:10:00,54.1,50.6,30.30,ENE,62,0.0,0.0,88,0.00,,---,0.00,VWS V14.00,2013-01-29 01:10:00,
2013-01-28 20:11:00,54.1,50.6,30.30,ENE,62,0.0,0.0,88,0.00,,---,0.00,VWS V14.00,2013-01-29 01:11:00,
2013-01-28 20:12:00,54.0,50.5,30.29,ENE,62,0.0,0.0,88,0.00,,---,0.00,VWS V14.00,2013-01-29 01:12:00,
2013-01-28 20:13:00,54.0,50.5,30.29,ENE,62,0.0,0.0,88,0.00,,---,0.00,VWS V14.00,2013-01-29 01:13:00,
2013-01-28 20:14:00,53.8,50.6,30.29,ENE,62,0.0,0.0,89,0.00,,---,0.00,VWS V14.00,2013-01-29 01:14:00,
2013-01-28 20:15:00,53.9,50.4,30.29,ENE,62,0.0,0.0,88,0.00,,---,0.00,VWS V14.00,2013-01-29 01:15:00,
2013-01-28 20:16:00,53.9,50.4,30.29,ENE,62,0.0,0.0,88,0.00,,---,0.00,VWS V14.00,2013-01-29 01:16:00,
2013-01-28 20:17:00,53.9,50.4,30.29,ENE,62,0.0,0.0,88,0.00,,---,0.00,VWS V14.00,2013-01-29 01:17:00,
2013-01-28 20:18:00,53.8,50.6,30.29,ENE,62,0.0,0.0,89,0.00,,---,0.00,VWS V14.00,2013-01-29 01:18:00,
2013-01-28 20:19:00,53.7,50.2,30.29,ENE,62,0.0,0.0,88,0.00,,---,0.00,VWS V14.00,2013-01-29 01:19:00,
2013-01-28 20:20:00,53.8,50.6,30.29,ENE,62,0.0,0.0,89,0.00,,---,0.00,VWS V14.00,2013-01-29 01:20:00,
2013-01-28 20:21:00,53.7,50.5,30.29,ENE,62,0.0,0.0,89,0.00,,---,0.00,VWS V14.00,2013-01-29 01:21:00,
2013-01-28 20:22:00,53.7,50.2,30.29,ENE,62,0.0,0.0,88,0.00,,---,0.00,VWS V14.00,2013-01-29 01:22:00,
2013-01-28 20:23:00,53.7,50.2,30.29,ENE,62,0.0,0.0,88,0.00,,---,0.00,VWS V14.00,2013-01-29 01:23:00,
2013-01-28 20:24:00,53.5,50.0,30.29,ENE,62,0.0,0.0,88,0.00,,---,0.00,VWS V14.00,2013-01-29 01:24:00,
2013-01-28 20:25:00,53.7,50.2,30.29,ENE,62,0.0,0.0,88,0.00,,---,0.00,VWS V14.00,2013-01-29 01:25:00,
2013-01-28 20:26:00,53.6,50.1,30.29,ENE,62,0.0,0.0,88,0.00,,---,0.00,VWS V14.00,2013-01-29 01:26:00,
2013-01-28 20:27:00,53.6,50.1,30.29,ENE,62,0.0,0.0,88,0.00,,---,0.00,VWS V14.00,2013-01-29 01:27:00,
2013-01-28 20:28:00,53.6,50.1,30.29,ENE,62,0.0,0.0,88,0.00,,---,0.00,VWS V14.00,2013-01-29 01:28:00,
2013-01-28 20:29:00,53.4,50.2,30.29,ENE,62,0.0,0.0,89,0.00,,---,0.00,VWS V14.00,2013-01-29 01:29:00,
2013-01-28 20:30:00,53.5,50.0,30.29,ENE,62,0.0,0.0,88,0.00,,---,0.00,VWS V14.00,2013-01-29 01:30:00,
2013-01-28 20:31:00,53.5,50.0,30.29,ENE,62,0.0,0.0,88,0.00,,---,0.00,VWS V14.00,2013-01-29 01:31:00,
2013-01-28 20:33:00,53.4,50.2,30.29,ENE,62,0.0,0.0,89,0.00,,---,0.00,VWS V14.00,2013-01-29 01:33:00,
2013-01-28 20:34:00,53.2,50.0,30.29,ENE,62,0.0,0.0,89,0.00,,---,0.00,VWS V14.00,2013-01-29 01:34:00,
2013-01-28 20:35:00,53.3,50.2,30.29,ENE,62,0.0,0.0,89,0.00,,---,0.00,VWS V14.00,2013-01-29 01:35:00,
2013-01-28 20:36:00,53.3,50.2,30.29,ENE,62,0.0,0.0,89,0.00,,---,0.00,VWS V14.00,2013-01-29 01:36:00,
2013-01-28 20:37:00,53.3,50.2,30.29,ENE,62,0.0,0.0,89,0.00,,---,0.00,VWS V14.00,2013-01-29 01:37:00,
2013-01-28 20:38:00,53.2,50.0,30.29,ENE,62,0.0,0.0,89,0.00,,---,0.00,VWS V14.00,2013-01-29 01:38:00,
2013-01-28 20:39:00,53.1,50.0,30.29,ENE,62,0.0,0.0,89,0.00,,---,0.00,VWS V14.00,2013-01-29 01:39:00,
2013-01-28 20:40:00,53.2,50.0,30.29,ENE,62,0.0,0.0,89,0.00,,---,0.00,VWS V14.00,2013-01-29 01:40:00,
2013-01-28 20:41:00,53.2,50.0,30.29,ENE,62,0.0,0.0,89,0.00,,---,0.00,VWS V14.00,2013-01-29 01:41:00,
2013-01-28 20:42:00,53.2,50.0,30.29,ENE,62,0.0,0.0,89,0.00,,---,0.00,VWS V14.00,2013-01-29 01:42:00,
2013-01-28 20:43:00,53.1,50.0,30.30,ENE,62,0.0,0.0,89,0.00,,---,0.00,VWS V14.00,2013-01-29 01:43:00,
2013-01-28 20:44:00,52.9,49.8,30.28,ENE,62,0.0,0.0,89,0.00,,---,0.00,VWS V14.00,2013-01-29 01:44:00,
2013-01-28 20:45:00,53.1,50.0,30.29,ENE,62,0.0,0.0,89,0.00,,---,0.00,VWS V14.00,2013-01-29 01:45:00,
2013-01-28 20:46:00,53.0,49.8,30.29,ENE,62,0.0,0.0,89,0.00,,---,0.00,VWS V14.00,2013-01-29 01:46:00,
2013-01-28 20:47:00,53.0,49.8,30.29,ENE,62,0.0,0.0,89,0.00,,---,0.00,VWS V14.00,2013-01-29 01:47:00,
2013-01-28 20:48:00,53.0,49.8,30.29,ENE,62,0.0,0.0,89,0.00,,---,0.00,VWS V14.00,2013-01-29 01:48:00,
2013-01-28 20:49:00,52.8,49.7,30.29,ENE,62,0.0,0.0,89,0.00,,---,0.00,VWS V14.00,2013-01-29 01:49:00,
2013-01-28 20:50:00,52.9,49.8,30.28,ENE,62,0.0,0.0,89,0.00,,---,0.00,VWS V14.00,2013-01-29 01:50:00,
2013-01-28 20:51:00,52.9,49.8,30.29,ENE,62,0.0,0.0,89,0.00,,---,0.00,VWS V14.00,2013-01-29 01:51:00,
2013-01-28 20:52:00,52.8,49.7,30.29,ENE,62,0.0,0.0,89,0.00,,---,0.00,VWS V14.00,2013-01-29 01:52:00,
2013-01-28 20:53:00,52.8,49.7,30.29,ENE,62,0.0,0.0,89,0.00,,---,0.00,VWS V14.00,2013-01-29 01:53:00,
2013-01-28 20:54:00,52.6,49.5,30.29,ENE,62,0.0,0.0,89,0.00,,---,0.00,VWS V14.00,2013-01-29 01:54:00,
2013-01-28 20:55:00,52.8,49.7,30.29,ENE,62,0.0,0.0,89,0.00,,---,0.00,VWS V14.00,2013-01-29 01:55:00,
2013-01-28 20:56:00,52.7,49.5,30.29,ENE,62,0.0,0.0,89,0.00,,---,0.00,VWS V14.00,2013-01-29 01:56:00,
2013-01-28 20:57:00,52.7,49.5,30.29,ENE,62,0.0,0.0,89,0.00,,---,0.00,VWS V14.00,2013-01-29 01:57:00,
2013-01-28 20:58:00,52.7,49.5,30.29,ENE,62,0.0,0.0,89,0.00,,---,0.00,VWS V14.00,2013-01-29 01:58:00,
2013-01-28 20:59:00,52.5,49.4,30.28,ENE,62,0.0,0.0,89,0.00,,---,0.00,VWS V14.00,2013-01-29 01:59:00,
2013-01-28 21:00:00,52.6,49.5,30.29,ENE,62,0.0,0.0,89,0.00,,---,0.00,VWS V14.00,2013-01-29 02:00:00,
2013-01-28 21:01:00,52.6,49.5,30.29,ENE,62,0.0,0.0,89,0.00,,---,0.00,VWS V14.00,2013-01-29 02:01:00,
2013-01-28 21:02:00,52.6,49.5,30.29,ENE,62,0.0,0.0,89,0.00,,---,0.00,VWS V14.00,2013-01-29 02:02:00,
2013-01-28 21:03:00,52.5,49.4,30.29,ENE,62,0.0,0.0,89,0.00,,---,0.00,VWS V14.00,2013-01-29 02:03:00,
2013-01-28 21:04:00,52.4,49.3,30.29,ENE,62,0.0,0.0,89,0.00,,---,0.00,VWS V14.00,2013-01-29 02:04:00,
2013-01-28 21:05:00,52.5,49.4,30.28,ENE,62,0.0,0.0,89,0.00,,---,0.00,VWS V14.00,2013-01-29 02:05:00,
2013-01-28 21:06:00,52.4,49.3,30.29,ENE,62,0.0,0.0,89,0.00,,---,0.00,VWS V14.00,2013-01-29 02:06:00,
2013-01-28 21:07:00,52.4,49.3,30.28,ENE,62,0.0,0.0,89,0.00,,---,0.00,VWS V14.00,2013-01-29 02:07:00,
2013-01-28 21:08:00,52.4,49.3,30.28,ENE,62,0.0,0.0,89,0.00,,---,0.00,VWS V14.00,2013-01-29 02:08:00,
2013-01-28 21:09:00,52.2,49.1,30.28,ENE,62,0.0,0.0,89,0.00,,---,0.00,VWS V14.00,2013-01-29 02:09:00,
2013-01-28 21:10:00,52.4,49.3,30.29,ENE,62,0.0,0.0,89,0.00,,---,0.00,VWS V14.00,2013-01-29 02:10:00,
2013-01-28 21:11:00,52.3,49.2,30.28,ENE,62,0.0,0.0,89,0.00,,---,0.00,VWS V14.00,2013-01-29 02:11:00,
2013-01-28 21:12:00,52.3,49.2,30.29,ENE,62,0.0,0.0,89,0.00,,---,0.00,VWS V14.00,2013-01-29 02:12:00,
2013-01-28 21:13:00,52.3,49.2,30.28,ENE,62,0.0,0.0,89,0.00,,---,0.00,VWS V14.00,2013-01-29 02:13:00,
2013-01-28 21:14:00,52.1,49.0,30.29,ENE,62,0.0,0.0,89,0.00,,---,0.00,VWS V14.00,2013-01-29 02:14:00,
2013-01-28 21:15:00,52.2,49.1,30.28,ENE,62,0.0,0.0,89,0.00,,---,0.00,VWS V14.00,2013-01-29 02:15:00,
2013-01-28 21:16:00,52.2,49.1,30.29,ENE,62,0.0,0.0,89,0.00,,---,0.00,VWS V14.00,2013-01-29 02:16:00,
2013-01-28 21:17:00,52.2,49.1,30.28,ENE,62,0.0,0.0,89,0.00,,---,0.00,VWS V14.00,2013-01-29 02:17:00,
2013-01-28 21:18:00,52.1,49.0,30.28,ENE,62,0.0,0.0,89,0.00,,---,0.00,VWS V14.00,2013-01-29 02:18:00,
2013-01-28 21:19:00,51.9,48.8,30.28,ENE,62,0.0,0.0,89,0.00,,---,0.00,VWS V14.00,2013-01-29 02:19:00,
2013-01-28 21:20:00,52.1,49.0,30.29,ENE,62,0.0,0.0,89,0.00,,---,0.00,VWS V14.00,2013-01-29 02:20:00,
2013-01-28 21:21:00,52.1,49.0,30.29,ENE,62,0.0,0.0,89,0.00,,---,0.00,VWS V14.00,2013-01-29 02:21:00,
2013-01-28 21:22:00,52.0,48.9,30.29,ENE,62,0.0,0.0,89,0.00,,---,0.00,VWS V14.00,2013-01-29 02:22:00,
2013-01-28 21:23:00,52.0,48.9,30.29,ENE,62,0.0,0.0,89,0.00,,---,0.00,VWS V14.00,2013-01-29 02:23:00,
2013-01-28 21:24:00,51.8,49.0,30.29,ENE,62,0.0,0.0,90,0.00,,---,0.00,VWS V14.00,2013-01-29 02:24:00,
2013-01-28 21:26:00,51.9,48.8,30.29,ENE,62,0.0,0.0,89,0.00,,---,0.00,VWS V14.00,2013-01-29 02:26:00,
2013-01-28 21:27:00,51.9,48.8,30.29,ENE,62,0.0,0.0,89,0.00,,---,0.00,VWS V14.00,2013-01-29 02:27:00,
2013-01-28 21:28:00,51.9,49.1,30.29,ENE,62,0.0,0.0,90,0.00,,---,0.00,VWS V14.00,2013-01-29 02:28:00,
2013-01-28 21:29:00,51.7,48.9,30.29,ENE,62,0.0,0.0,90,0.00,,---,0.00,VWS V14.00,2013-01-29 02:29:00,
2013-01-28 21:30:00,51.8,49.0,30.29,ENE,62,0.0,0.0,90,0.00,,---,0.00,VWS V14.00,2013-01-29 02:30:00,
2013-01-28 21:32:00,51.8,49.0,30.29,ENE,62,0.0,0.0,90,0.00,,---,0.00,VWS V14.00,2013-01-29 02:32:00,
2013-01-28 21:33:00,51.7,48.6,30.29,ENE,62,0.0,0.0,89,0.00,,---,0.00,VWS V14.00,2013-01-29 02:33:00,
2013-01-28 21:34:00,51.5,48.7,30.29,ENE,62,0.0,0.0,90,0.00,,---,0.00,VWS V14.00,2013-01-29 02:34:00,
2013-01-28 21:35:00,51.7,48.9,30.29,ENE,62,0.0,0.0,90,0.00,,---,0.00,VWS V14.00,2013-01-29 02:35:00,
2013-01-28 21:36:00,51.7,48.9,30.29,ENE,62,0.0,0.0,90,0.00,,---,0.00,VWS V14.00,2013-01-29 02:36:00,
2013-01-28 21:37:00,51.6,48.8,30.29,ENE,62,0.0,0.0,90,0.00,,---,0.00,VWS V14.00,2013-01-29 02:37:00,
2013-01-28 21:38:00,51.6,48.8,30.29,ENE,62,0.0,0.0,90,0.00,,---,0.00,VWS V14.00,2013-01-29 02:38:00,
2013-01-28 21:39:00,51.4,48.6,30.29,ENE,62,0.0,0.0,90,0.00,,---,0.00,VWS V14.00,2013-01-29 02:39:00,
2013-01-28 21:40:00,51.6,48.8,30.29,ENE,62,0.0,0.0,90,0.00,,---,0.00,VWS V14.00,2013-01-29 02:40:00,
2013-01-28 21:41:00,51.5,48.7,30.29,ENE,62,0.0,0.0,90,0.00,,---,0.00,VWS V14.00,2013-01-29 02:41:00,
2013-01-28 21:42:00,51.5,48.7,30.29,ENE,62,0.0,0.0,90,0.00,,---,0.00,VWS V14.00,2013-01-29 02:42:00,
2013-01-28 21:43:00,51.5,48.7,30.29,ENE,62,0.0,0.0,90,0.00,,---,0.00,VWS V14.00,2013-01-29 02:43:00,
2013-01-28 21:44:00,51.3,48.5,30.29,ENE,62,0.0,0.0,90,0.00,,---,0.00,VWS V14.00,2013-01-29 02:44:00,
2013-01-28 21:45:00,51.4,48.6,30.29,ENE,62,0.0,0.0,90,0.00,,---,0.00,VWS V14.00,2013-01-29 02:45:00,
2013-01-28 21:46:00,51.4,48.6,30.29,ENE,62,0.0,0.0,90,0.00,,---,0.00,VWS V14.00,2013-01-29 02:46:00,
2013-01-28 21:47:00,51.4,48.6,30.29,ENE,62,0.0,0.0,90,0.00,,---,0.00,VWS V14.00,2013-01-29 02:47:00,
2013-01-28 21:48:00,51.3,48.5,30.29,ENE,62,0.0,0.0,90,0.00,,---,0.00,VWS V14.00,2013-01-29 02:48:00,
2013-01-28 21:49:00,51.2,48.4,30.29,ENE,62,0.0,0.0,90,0.00,,---,0.00,VWS V14.00,2013-01-29 02:49:00,
2013-01-28 21:50:00,51.3,48.5,30.29,ENE,62,0.0,0.0,90,0.00,,---,0.00,VWS V14.00,2013-01-29 02:50:00,
2013-01-28 21:51:00,51.3,48.5,30.29,ENE,62,0.0,0.0,90,0.00,,---,0.00,VWS V14.00,2013-01-29 02:51:00,
2013-01-28 21:52:00,51.2,48.4,30.29,ENE,62,0.0,0.0,90,0.00,,---,0.00,VWS V14.00,2013-01-29 02:52:00,
2013-01-28 21:53:00,51.2,48.4,30.29,ENE,62,0.0,0.0,90,0.00,,---,0.00,VWS V14.00,2013-01-29 02:53:00,
2013-01-28 21:54:00,51.0,48.2,30.29,ENE,62,0.0,0.0,90,0.00,,---,0.00,VWS V14.00,2013-01-29 02:54:00,
2013-01-28 21:55:00,51.2,48.4,30.29,ENE,62,0.0,0.0,90,0.00,,---,0.00,VWS V14.00,2013-01-29 02:55:00,
2013-01-28 21:56:00,51.1,48.3,30.29,ENE,62,0.0,0.0,90,0.00,,---,0.00,VWS V14.00,2013-01-29 02:56:00,
2013-01-28 21:57:00,51.1,48.3,30.29,ENE,62,0.0,0.0,90,0.00,,---,0.00,VWS V14.00,2013-01-29 02:57:00,
2013-01-28 21:58:00,51.1,48.3,30.29,ENE,62,0.0,0.0,90,0.00,,---,0.00,VWS V14.00,2013-01-29 02:58:00,
2013-01-28 21:59:00,50.9,48.1,30.29,ENE,62,0.0,0.0,90,0.00,,---,0.00,VWS V14.00,2013-01-29 02:59:00,
2013-01-28 22:00:00,51.0,48.2,30.29,ENE,62,0.0,0.0,90,0.00,,---,0.00,VWS V14.00,2013-01-29 03:00:00,
2013-01-28 22:01:00,51.0,48.2,30.29,ENE,62,0.0,0.0,90,0.00,,---,0.00,VWS V14.00,2013-01-29 03:01:00,
2013-01-28 22:02:00,51.0,48.2,30.29,ENE,62,0.0,0.0,90,0.00,,---,0.00,VWS V14.00,2013-01-29 03:02:00,
2013-01-28 22:03:00,51.0,48.2,30.29,ENE,62,0.0,0.0,90,0.00,,---,0.00,VWS V14.00,2013-01-29 03:03:00,
2013-01-28 22:04:00,50.9,48.1,30.29,ENE,62,0.0,0.0,90,0.00,,---,0.00,VWS V14.00,2013-01-29 03:04:00,
2013-01-28 22:05:00,50.9,48.1,30.29,ENE,62,0.0,0.0,90,0.00,,---,0.00,VWS V14.00,2013-01-29 03:05:00,
2013-01-28 22:06:00,50.9,48.1,30.29,ENE,62,0.0,0.0,90,0.00,,---,0.00,VWS V14.00,2013-01-29 03:06:00,
2013-01-28 22:07:00,50.9,48.1,30.29,ENE,62,0.0,0.0,90,0.00,,---,0.00,VWS V14.00,2013-01-29 03:07:00,
2013-01-28 22:08:00,50.9,48.1,30.29,ENE,62,0.0,0.0,90,0.00,,---,0.00,VWS V14.00,2013-01-29 03:08:00,
2013-01-28 22:09:00,50.8,48.0,30.29,ENE,62,0.0,0.0,90,0.00,,---,0.00,VWS V14.00,2013-01-29 03:09:00,
2013-01-28 22:10:00,50.9,48.1,30.29,ENE,62,0.0,0.0,90,0.00,,---,0.00,VWS V14.00,2013-01-29 03:10:00,
2013-01-28 22:11:00,50.9,48.1,30.29,ENE,62,0.0,0.0,90,0.00,,---,0.00,VWS V14.00,2013-01-29 03:11:00,
2013-01-28 22:12:00,50.8,48.0,30.29,ENE,62,0.0,0.0,90,0.00,,---,0.00,VWS V14.00,2013-01-29 03:12:00,
2013-01-28 22:13:00,50.8,48.0,30.29,ENE,62,0.0,0.0,90,0.00,,---,0.00,VWS V14.00,2013-01-29 03:13:00,
2013-01-28 22:14:00,50.6,48.1,30.28,ENE,62,0.0,0.0,91,0.00,,---,0.00,VWS V14.00,2013-01-29 03:14:00,
2013-01-28 22:15:00,50.8,48.0,30.29,ENE,62,0.0,0.0,90,0.00,,---,0.00,VWS V14.00,2013-01-29 03:15:00,
2013-01-28 22:16:00,50.7,47.9,30.29,ENE,62,0.0,0.0,90,0.00,,---,0.00,VWS V14.00,2013-01-29 03:16:00,
2013-01-28 22:17:00,50.7,47.9,30.29,ENE,62,0.0,0.0,90,0.00,,---,0.00,VWS V14.00,2013-01-29 03:17:00,
2013-01-28 22:18:00,50.7,47.9,30.28,ENE,62,0.0,0.0,90,0.00,,---,0.00,VWS V14.00,2013-01-29 03:18:00,
2013-01-28 22:19:00,50.6,48.1,30.29,ENE,62,0.0,0.0,91,0.00,,---,0.00,VWS V14.00,2013-01-29 03:19:00,
2013-01-28 22:21:00,50.6,48.1,30.28,ENE,62,0.0,0.0,91,0.00,,---,0.00,VWS V14.00,2013-01-29 03:21:00,
2013-01-28 22:22:00,50.6,48.1,30.28,ENE,62,0.0,0.0,91,0.00,,---,0.00,VWS V14.00,2013-01-29 03:22:00,
2013-01-28 22:23:00,50.6,48.1,30.28,ENE,62,0.0,0.0,91,0.00,,---,0.00,VWS V14.00,2013-01-29 03:23:00,
2013-01-28 22:24:00,50.5,48.0,30.28,ENE,62,0.0,0.0,91,0.00,,---,0.00,VWS V14.00,2013-01-29 03:24:00,
2013-01-28 22:25:00,50.6,48.1,30.29,ENE,62,0.0,0.0,91,0.00,,---,0.00,VWS V14.00,2013-01-29 03:25:00,
2013-01-28 22:26:00,50.5,48.0,30.29,ENE,62,0.0,0.0,91,0.00,,---,0.00,VWS V14.00,2013-01-29 03:26:00,
2013-01-28 22:27:00,50.5,48.0,30.28,ENE,62,0.0,0.0,91,0.00,,---,0.00,VWS V14.00,2013-01-29 03:27:00,
2013-01-28 22:28:00,50.5,48.0,30.28,ENE,62,0.0,0.0,91,0.00,,---,0.00,VWS V14.00,2013-01-29 03:28:00,
2013-01-28 22:29:00,50.4,47.9,30.28,ENE,62,0.0,0.0,91,0.00,,---,0.00,VWS V14.00,2013-01-29 03:29:00,
2013-01-28 22:30:00,50.5,48.0,30.28,ENE,62,0.0,0.0,91,0.00,,---,0.00,VWS V14.00,2013-01-29 03:30:00,
2013-01-28 22:31:00,50.4,47.9,30.29,ENE,62,0.0,0.0,91,0.00,,---,0.00,VWS V14.00,2013-01-29 03:31:00,
2013-01-28 22:32:00,50.4,47.9,30.29,ENE,62,0.0,0.0,91,0.00,,---,0.00,VWS V14.00,2013-01-29 03:32:00,
2013-01-28 22:33:00,50.4,47.9,30.28,ENE,62,0.0,0.0,91,0.00,,---,0.00,VWS V14.00,2013-01-29 03:33:00,
2013-01-28 22:34:00,50.3,47.5,30.28,ENE,62,0.0,0.0,90,0.00,,---,0.00,VWS V14.00,2013-01-29 03:34:00,
2013-01-28 22:35:00,50.3,47.8,30.28,ENE,62,0.0,0.0,91,0.00,,---,0.00,VWS V14.00,2013-01-29 03:35:00,
2013-01-28 22:36:00,50.4,47.9,30.28,ENE,62,0.0,0.0,91,0.00,,---,0.00,VWS V14.00,2013-01-29 03:36:00,
2013-01-28 22:37:00,50.3,47.8,30.28,ENE,62,0.0,0.0,91,0.00,,---,0.00,VWS V14.00,2013-01-29 03:37:00,
2013-01-28 22:38:00,50.3,47.5,30.28,ENE,62,0.0,0.0,90,0.00,,---,0.00,VWS V14.00,2013-01-29 03:38:00,
2013-01-28 22:39:00,50.2,47.7,30.28,ENE,62,0.0,0.0,91,0.00,,---,0.00,VWS V14.00,2013-01-29 03:39:00,
2013-01-28 22:40:00,50.3,47.5,30.28,ENE,62,0.0,0.0,90,0.00,,---,0.00,VWS V14.00,2013-01-29 03:40:00,
2013-01-28 22:41:00,50.3,47.8,30.28,ENE,62,0.0,0.0,91,0.00,,---,0.00,VWS V14.00,2013-01-29 03:41:00,
2013-01-28 22:42:00,50.2,47.7,30.28,ENE,62,0.0,0.0,91,0.00,,---,0.00,VWS V14.00,2013-01-29 03:42:00,
2013-01-28 22:43:00,50.3,47.8,30.28,ENE,62,0.0,0.0,91,0.00,,---,0.00,VWS V14.00,2013-01-29 03:43:00,
2013-01-28 22:44:00,50.2,47.7,30.28,ENE,62,0.0,0.0,91,0.00,,---,0.00,VWS V14.00,2013-01-29 03:44:00,
2013-01-28 22:45:00,50.2,47.7,30.28,ENE,62,0.0,0.0,91,0.00,,---,0.00,VWS V14.00,2013-01-29 03:45:00,
2013-01-28 22:46:00,50.2,47.7,30.28,ENE,62,0.0,0.0,91,0.00,,---,0.00,VWS V14.00,2013-01-29 03:46:00,
2013-01-28 22:47:00,50.2,47.7,30.28,ENE,62,0.0,0.0,91,0.00,,---,0.00,VWS V14.00,2013-01-29 03:47:00,
2013-01-28 22:48:00,50.2,47.7,30.28,ENE,62,0.0,0.0,91,0.00,,---,0.00,VWS V14.00,2013-01-29 03:48:00,
2013-01-28 22:49:00,50.2,48.0,30.28,ENE,62,0.0,0.0,92,0.00,,---,0.00,VWS V14.00,2013-01-29 03:49:00,
2013-01-28 22:50:00,50.2,47.7,30.28,ENE,62,0.0,0.0,91,0.00,,---,0.00,VWS V14.00,2013-01-29 03:50:00,
2013-01-28 22:51:00,50.2,47.7,30.28,ENE,62,0.0,0.0,91,0.00,,---,0.00,VWS V14.00,2013-01-29 03:51:00,
2013-01-28 22:52:00,50.2,47.7,30.28,ENE,62,0.0,0.0,91,0.00,,---,0.00,VWS V14.00,2013-01-29 03:52:00,
2013-01-28 22:53:00,50.2,48.0,30.28,ENE,62,0.0,0.0,92,0.00,,---,0.00,VWS V14.00,2013-01-29 03:53:00,
2013-01-28 22:54:00,50.2,48.0,30.28,ENE,62,0.0,0.0,92,0.00,,---,0.00,VWS V14.00,2013-01-29 03:54:00,
2013-01-28 22:55:00,50.3,48.1,30.28,ENE,62,0.0,0.0,92,0.00,,---,0.00,VWS V14.00,2013-01-29 03:55:00,
2013-01-28 22:56:00,50.3,48.1,30.28,ENE,62,0.0,0.0,92,0.00,,---,0.00,VWS V14.00,2013-01-29 03:56:00,
2013-01-28 22:57:00,50.3,48.1,30.28,ENE,62,0.0,0.0,92,0.00,,---,0.00,VWS V14.00,2013-01-29 03:57:00,
2013-01-28 22:58:00,50.2,48.0,30.28,ENE,62,0.0,0.0,92,0.00,,---,0.00,VWS V14.00,2013-01-29 03:58:00,
2013-01-28 22:59:00,50.1,47.9,30.28,ENE,62,0.0,0.0,92,0.00,,---,0.00,VWS V14.00,2013-01-29 03:59:00,
2013-01-28 23:00:00,50.2,48.0,30.28,ENE,62,0.0,0.0,92,0.00,,---,0.00,VWS V14.00,2013-01-29 04:00:00,
2013-01-28 23:01:00,50.2,48.0,30.28,ENE,62,0.0,0.0,92,0.00,,---,0.00,VWS V14.00,2013-01-29 04:01:00,
2013-01-28 23:02:00,50.1,47.9,30.28,ENE,62,0.0,0.0,92,0.00,,---,0.00,VWS V14.00,2013-01-29 04:02:00,
2013-01-28 23:03:00,50.1,47.9,30.28,ENE,62,0.0,0.0,92,0.00,,---,0.00,VWS V14.00,2013-01-29 04:03:00,
2013-01-28 23:04:00,50.0,47.8,30.28,ENE,62,0.0,0.0,92,0.00,,---,0.00,VWS V14.00,2013-01-29 04:04:00,
2013-01-28 23:05:00,50.1,47.9,30.28,ENE,62,0.0,0.0,92,0.00,,---,0.00,VWS V14.00,2013-01-29 04:05:00,
2013-01-28 23:06:00,50.1,47.9,30.28,ENE,62,0.0,0.0,92,0.00,,---,0.00,VWS V14.00,2013-01-29 04:06:00,
2013-01-28 23:07:00,50.1,47.9,30.28,ENE,62,0.0,0.0,92,0.00,,---,0.00,VWS V14.00,2013-01-29 04:07:00,
2013-01-28 23:08:00,50.1,47.9,30.28,ENE,62,0.0,0.0,92,0.00,,---,0.00,VWS V14.00,2013-01-29 04:08:00,
2013-01-28 23:09:00,50.0,47.8,30.28,ENE,62,0.0,0.0,92,0.00,,---,0.00,VWS V14.00,2013-01-29 04:09:00,
2013-01-28 23:10:00,50.1,47.9,30.28,ENE,62,0.0,0.0,92,0.00,,---,0.00,VWS V14.00,2013-01-29 04:10:00,
2013-01-28 23:11:00,50.0,47.8,30.28,ENE,62,0.0,0.0,92,0.00,,---,0.00,VWS V14.00,2013-01-29 04:11:00,
2013-01-28 23:12:00,50.0,47.8,30.28,ENE,62,0.0,0.0,92,0.00,,---,0.00,VWS V14.00,2013-01-29 04:12:00,
2013-01-28 23:13:00,50.0,47.8,30.28,ENE,62,0.0,0.0,92,0.00,,---,0.00,VWS V14.00,2013-01-29 04:13:00,
2013-01-28 23:14:00,49.9,47.7,30.28,ENE,62,0.0,0.0,92,0.00,,---,0.00,VWS V14.00,2013-01-29 04:14:00,
2013-01-28 23:15:00,49.9,47.7,30.28,ENE,62,0.0,0.0,92,0.00,,---,0.00,VWS V14.00,2013-01-29 04:15:00,
2013-01-28 23:16:00,49.9,47.7,30.28,ENE,62,0.0,0.0,92,0.00,,---,0.00,VWS V14.00,2013-01-29 04:16:00,
2013-01-28 23:17:00,49.9,47.7,30.28,ENE,62,0.0,0.0,92,0.00,,---,0.00,VWS V14.00,2013-01-29 04:17:00,
2013-01-28 23:18:00,49.9,47.7,30.28,ENE,62,0.0,0.0,92,0.00,,---,0.00,VWS V14.00,2013-01-29 04:18:00,
2013-01-28 23:19:00,49.8,47.6,30.28,ENE,62,0.0,0.0,92,0.00,,---,0.00,VWS V14.00,2013-01-29 04:19:00,
2013-01-28 23:20:00,49.9,47.7,30.28,ENE,62,0.0,0.0,92,0.00,,---,0.00,VWS V14.00,2013-01-29 04:20:00,
2013-01-28 23:21:00,49.8,47.6,30.28,ENE,62,0.0,0.0,92,0.00,,---,0.00,VWS V14.00,2013-01-29 04:21:00,
2013-01-28 23:22:00,49.8,47.6,30.28,ENE,62,0.0,0.0,92,0.00,,---,0.00,VWS V14.00,2013-01-29 04:22:00,
2013-01-28 23:23:00,49.8,47.6,30.28,ENE,62,0.0,0.0,92,0.00,,---,0.00,VWS V14.00,2013-01-29 04:23:00,
2013-01-28 23:24:00,49.7,47.5,30.28,ENE,62,0.0,0.0,92,0.00,,---,0.00,VWS V14.00,2013-01-29 04:24:00,
2013-01-28 23:25:00,49.7,47.5,30.28,ENE,62,0.0,0.0,92,0.00,,---,0.00,VWS V14.00,2013-01-29 04:25:00,
2013-01-28 23:26:00,49.8,47.6,30.28,ENE,62,0.0,0.0,92,0.00,,---,0.00,VWS V14.00,2013-01-29 04:26:00,
2013-01-28 23:27:00,49.7,47.5,30.28,ENE,62,0.0,0.0,92,0.00,,---,0.00,VWS V14.00,2013-01-29 04:27:00,
2013-01-28 23:28:00,49.7,47.5,30.28,ENE,62,0.0,0.0,92,0.00,,---,0.00,VWS V14.00,2013-01-29 04:28:00,
2013-01-28 23:29:00,49.6,47.4,30.28,ENE,62,0.0,0.0,92,0.00,,---,0.00,VWS V14.00,2013-01-29 04:29:00,
2013-01-28 23:30:00,49.7,47.5,30.28,ENE,62,0.0,0.0,92,0.00,,---,0.00,VWS V14.00,2013-01-29 04:30:00,
2013-01-28 23:31:00,49.7,47.5,30.28,ENE,62,0.0,0.0,92,0.00,,---,0.00,VWS V14.00,2013-01-29 04:31:00,
2013-01-28 23:32:00,49.6,47.4,30.28,ENE,62,0.0,0.0,92,0.00,,---,0.00,VWS V14.00,2013-01-29 04:32:00,
2013-01-28 23:33:00,49.6,47.4,30.27,ENE,62,0.0,0.0,92,0.00,,---,0.00,VWS V14.00,2013-01-29 04:33:00,
2013-01-28 23:34:00,49.5,47.3,30.28,ENE,62,0.0,0.0,92,0.00,,---,0.00,VWS V14.00,2013-01-29 04:34:00,
2013-01-28 23:35:00,49.6,47.4,30.28,ENE,62,0.0,0.0,92,0.00,,---,0.00,VWS V14.00,2013-01-29 04:35:00,
2013-01-28 23:36:00,49.6,47.4,30.28,ENE,62,0.0,0.0,92,0.00,,---,0.00,VWS V14.00,2013-01-29 04:36:00,
2013-01-28 23:37:00,49.6,47.4,30.27,ENE,62,0.0,0.0,92,0.00,,---,0.00,VWS V14.00,2013-01-29 04:37:00,
2013-01-28 23:38:00,49.5,47.3,30.28,ENE,62,0.0,0.0,92,0.00,,---,0.00,VWS V14.00,2013-01-29 04:38:00,
2013-01-28 23:39:00,49.5,47.3,30.28,ENE,62,0.0,0.0,92,0.00,,---,0.00,VWS V14.00,2013-01-29 04:39:00,
2013-01-28 23:40:00,49.5,47.3,30.28,ENE,62,0.0,0.0,92,0.00,,---,0.00,VWS V14.00,2013-01-29 04:40:00,
2013-01-28 23:41:00,49.5,47.3,30.28,ENE,62,0.0,0.0,92,0.00,,---,0.00,VWS V14.00,2013-01-29 04:41:00,
2013-01-28 23:42:00,49.5,47.3,30.28,ENE,62,0.0,0.0,92,0.00,,---,0.00,VWS V14.00,2013-01-29 04:42:00,
2013-01-28 23:43:00,49.5,47.3,30.27,ENE,62,0.0,0.0,92,0.00,,---,0.00,VWS V14.00,2013-01-29 04:43:00,
2013-01-28 23:44:00,49.5,47.3,30.28,ENE,62,0.0,0.0,92,0.00,,---,0.00,VWS V14.00,2013-01-29 04:44:00,
2013-01-28 23:45:00,49.5,47.3,30.28,ENE,62,0.0,0.0,92,0.00,,---,0.00,VWS V14.00,2013-01-29 04:45:00,
2013-01-28 23:46:00,49.5,47.3,30.27,ENE,62,0.0,0.0,92,0.00,,---,0.00,VWS V14.00,2013-01-29 04:46:00,
2013-01-28 23:47:00,49.5,47.3,30.28,ENE,62,0.0,0.0,92,0.00,,---,0.00,VWS V14.00,2013-01-29 04:47:00,
2013-01-28 23:48:00,49.4,47.2,30.28,ENE,62,0.0,0.0,92,0.00,,---,0.00,VWS V14.00,2013-01-29 04:48:00,
2013-01-28 23:49:00,49.4,47.2,30.27,ENE,62,0.0,0.0,92,0.00,,---,0.00,VWS V14.00,2013-01-29 04:49:00,
2013-01-28 23:50:00,49.5,47.3,30.28,ENE,62,0.0,0.0,92,0.00,,---,0.00,VWS V14.00,2013-01-29 04:50:00,
2013-01-28 23:51:00,49.4,47.2,30.28,ENE,62,0.0,0.0,92,0.00,,---,0.00,VWS V14.00,2013-01-29 04:51:00,
2013-01-28 23:52:00,49.4,47.2,30.28,ENE,62,0.0,0.0,92,0.00,,---,0.00,VWS V14.00,2013-01-29 04:52:00,
2013-01-28 23:53:00,49.4,47.2,30.28,ENE,62,0.0,0.0,92,0.00,,---,0.00,VWS V14.00,2013-01-29 04:53:00,
2013-01-28 23:54:00,49.4,47.2,30.27,ENE,62,0.0,0.0,92,0.00,,---,0.00,VWS V14.00,2013-01-29 04:54:00,
2013-01-28 23:55:00,49.4,47.2,30.27,ENE,62,0.0,0.0,92,0.00,,---,0.00,VWS V14.00,2013-01-29 04:55:00,
2013-01-28 23:56:00,49.4,47.2,30.27,ENE,62,0.0,0.0,92,0.00,,---,0.00,VWS V14.00,2013-01-29 04:56:00,
2013-01-28 23:57:00,49.4,47.2,30.27,ENE,62,0.0,0.0,92,0.00,,---,0.00,VWS V14.00,2013-01-29 04:57:00,
2013-01-28 23:58:00,49.4,47.2,30.27,ENE,62,0.0,0.0,92,0.00,,---,0.00,VWS V14.00,2013-01-29 04:58:00,
2013-01-28 23:59:00,49.3,47.1,30.27,ENE,62,0.0,0.0,92,0.00,,---,0.00,VWS V14.00,2013-01-29 04:59:00,